[[{"header":{"parameterUnit":"m.s-1","parameterCategory":1,"la1":31.0,"la2":29.5877,"lo1":-88.7671,"lo2":-86.6584,"dx":0.0162,"dy":0.0185,"nx":115,"ny":88,"refTime":"2023-01-06T18:00:00:Z","depth":0,"parameterNumber":2,"parameterNumberName":"U-component_of_WINDS"},"data":[0.0,0.0,0.0,0.0,0.0,0.0,0.0,0.0,0.0,0.0,0.0,0.0,0.0,0.0,0.0,0.0,0.0,0.0,0.0,0.0,0.0,0.0,0.0,0.0,0.0,0.0,0.0,0.0,0.0,0.0,0.0,0.0,0.0,0.0,0.0,0.0,0.0,0.0,0.0,0.0,0.0,0.0,0.0,0.0,0.0,0.0,0.0,0.0,0.0,0.0,0.0,0.0,0.0,0.0,0.0,0.0,0.0,0.0,0.0,0.0,0.0,0.0,0.0,0.0,0.0,0.0,0.0,0.0,0.0,0.0,0.0,0.0,0.0,0.0,0.0,0.0,0.0,0.0,0.0,0.0,0.0,0.0,0.0,0.0,0.0,0.0,0.0,0.0,0.0,0.0,0.0,0.0,0.0,0.0,0.0,0.0,0.0,0.0,0.0,0.0,0.0,0.0,0.0,0.0,0.0,0.0,0.0,0.0,0.0,0.0,0.0,0.0,0.0,0.0,0.0,0.0,0.0,0.0,0.0,0.0,0.0,0.0,0.0,0.0,0.0,0.0,0.0,0.0,0.0,0.0,0.0,0.0,0.0,0.0,0.0,0.0,0.0,0.0,0.0,0.0,0.0,0.0,0.0,0.0,0.0,0.0,0.0,0.0,0.0,0.0,0.0,0.0,0.0,0.0,0.0,0.0,0.0,0.0,0.0,0.0,0.0,0.0,0.0,0.0,0.0,0.0,0.0,0.0,0.0,0.0,0.0,0.0,0.0,0.0,0.0,0.0,0.0,0.0,0.0,0.0,0.0,0.0,0.0,0.0,0.0,0.0,0.0,0.0,0.0,0.0,0.0,0.0,0.0,0.0,0.0,0.0,0.0,0.0,0.0,0.0,0.0,0.0,0.0,0.0,0.0,0.0,0.0,0.0,0.0,0.0,0.0,0.0,0.0,0.0,0.0,0.0,0.0,0.0,0.0,0.0,0.0,0.0,0.0,0.0,0.0,0.0,0.0,0.0,0.0,0.0,0.0,0.0,0.0,0.0,0.0,0.0,0.0,0.0,0.0,0.0,0.0,0.0,0.0,0.0,0.0,0.0,0.0,0.0,0.0,0.0,0.0,0.0,0.0,0.0,0.0,0.0,0.0,0.0,0.0,0.0,0.0,0.0,0.0,0.0,0.0,0.0,0.0,0.0,0.0,0.0,0.0,0.0,0.0,0.0,0.0,0.0,0.0,0.0,0.0,0.0,0.0,0.0,0.0,0.0,0.0,0.0,0.0,0.0,0.0,0.0,0.0,0.0,0.0,0.0,0.0,0.0,0.0,0.0,0.0,0.0,0.0,0.0,0.0,0.0,0.0,0.0,0.0,0.0,0.0,0.0,0.0,0.0,0.0,0.0,0.0,0.0,0.0,0.0,0.0,0.0,0.0,0.0,0.0,0.0,0.0,0.0,0.0,0.0,0.0,0.0,0.0,0.0,0.0,0.0,0.0,0.0,0.0,0.0,0.0,0.0,0.0,0.0,0.0,0.0,0.0,0.0,0.0,0.0,0.0,0.0,0.0,0.0,0.0,0.0,0.0,0.0,0.0,0.0,0.0,0.0,0.0,0.0,0.0,0.0,0.0,0.0,0.0,0.0,0.0,0.0,0.0,0.0,0.0,0.0,0.0,0.0,0.0,0.0,0.0,0.0,0.0,0.0,0.0,0.0,0.0,0.0,0.0,0.0,0.0,0.0,0.0,0.0,0.0,0.0,0.0,0.0,0.0,0.0,0.0,0.0,0.0,0.0,0.0,0.0,0.0,0.0,0.0,0.0,0.0,0.0,0.0,0.0,0.0,0.0,0.0,0.0,0.0,0.0,0.0,0.0,0.0,0.0,0.0,0.0,0.0,0.0,0.0,0.0,0.0,0.0,0.0,0.0,0.0,0.0,0.0,0.0,0.0,0.0,0.0,0.0,0.0,0.0,0.0,0.0,0.0,0.0,0.0,0.0,0.0,0.0,0.0,0.0,0.0,0.0,0.0,0.0,0.0,0.0,0.0,0.0,0.0,0.0,0.0,0.0,0.0,0.0,0.0,0.0,0.0,0.0,0.0,0.0,0.0,0.0,0.0,0.0,0.0,0.0,0.0,0.0,0.0,0.0,0.0,0.0,0.0,0.0,0.0,0.0,0.0,0.0,0.0,0.0,0.0,0.0,0.0,0.0,0.0,0.0,0.0,0.0,0.0,0.0,0.0,0.0,0.0,0.0,0.0,0.0,0.0,0.0,0.0,0.0,0.0,0.0,0.0,0.0,0.0,0.0,0.0,0.0,0.0,0.0,0.0,0.0,0.0,0.0,0.0,0.0,0.0,0.0,0.0,0.0,0.0,0.0,0.0,0.0,0.0,0.0,0.0,0.0,0.0,0.0,0.0,0.0,0.0,0.0,0.0,0.0,0.0,0.0,0.0,0.0,0.0,0.0,0.0,0.0,0.0,0.0,0.0,0.0,0.0,0.0,0.0,0.0,0.0,0.0,0.0,0.0,0.0,0.0,0.0,0.0,0.0,0.0,0.0,0.0,0.0,0.0,0.0,0.0,0.0,0.0,0.0,0.0,0.0,0.0,0.0,0.0,0.0,0.0,0.0,0.0,0.0,0.0,0.0,0.0,0.0,0.0,0.0,0.0,0.0,0.0,0.0,0.0,0.0,0.0,0.0,0.0,0.0,0.0,0.0,0.0,0.0,0.0,0.0,0.0,0.0,0.0,0.0,0.0,0.0,0.0,0.0,0.0,0.0,0.0,0.0,0.0,0.0,0.0,0.0,0.0,0.0,0.0,0.0,0.0,0.0,0.0,0.0,0.0,0.0,0.0,0.0,0.0,0.0,0.0,0.0,0.0,0.0,0.0,0.0,0.0,0.0,0.0,0.0,0.0,0.0,0.0,0.0,0.0,0.0,0.0,0.0,0.0,0.0,0.0,0.0,0.0,0.0,0.0,0.0,0.0,0.0,0.0,0.0,0.0,0.0,0.0,0.0,0.0,0.0,0.0,0.0,0.0,0.0,0.0,0.0,0.0,0.0,0.0,0.0,0.0,0.0,0.0,0.0,0.0,0.0,0.0,0.0,0.0,0.0,0.0,0.0,0.0,0.0,0.0,0.0,0.0,0.0,0.0,0.0,0.0,0.0,0.0,0.0,0.0,0.0,0.0,0.0,0.0,0.0,0.0,0.0,0.0,0.0,0.0,0.0,0.0,0.0,0.0,0.0,0.0,0.0,0.0,0.0,0.0,0.0,0.0,0.0,0.0,0.0,0.0,0.0,0.0,0.0,0.0,0.0,0.0,0.0,0.0,0.0,0.0,0.0,0.0,0.0,0.0,0.0,0.0,0.0,0.0,0.0,0.0,0.0,0.0,0.0,0.0,0.0,0.0,0.0,0.0,0.0,0.0,0.0,0.0,0.0,0.0,0.0,0.0,0.0,0.0,0.0,0.0,0.0,0.0,0.0,0.0,0.0,0.0,0.0,0.0,0.0,0.0,0.0,0.0,0.0,0.0,0.0,0.0,0.0,0.0,0.0,0.0,0.0,0.0,0.0,0.0,0.0,0.0,0.0,0.0,0.0,0.0,0.0,0.0,0.0,0.0,0.0,0.0,0.0,0.0,0.0,0.0,0.0,0.0,0.0,0.0,0.0,0.0,0.0,0.0,0.0,0.0,0.0,0.0,0.0,0.0,0.0,0.0,0.0,0.0,0.0,0.0,0.0,0.0,0.0,0.0,0.0,0.0,0.0,0.0,0.0,0.0,0.0,0.0,0.0,0.0,0.0,0.0,0.0,0.0,0.0,0.0,0.0,0.0,0.0,0.0,0.0,0.0,0.0,0.0,0.0,0.0,0.0,0.0,0.0,0.0,0.0,0.0,0.0,0.0,0.0,0.0,0.0,0.0,0.0,0.0,0.0,0.0,0.0,0.0,0.0,0.0,0.0,0.0,0.0,0.0,0.0,0.0,0.0,0.0,0.0,0.0,0.0,0.0,0.0,0.0,0.0,0.0,0.0,0.0,0.0,0.0,0.0,0.0,0.0,0.0,0.0,0.0,0.0,0.0,0.0,0.0,0.0,0.0,0.0,0.0,0.0,0.0,0.0,0.0,0.0,0.0,0.0,0.0,0.0,0.0,0.0,0.0,0.0,0.0,0.0,0.0,0.0,0.0,0.0,0.0,0.0,0.0,0.0,0.0,0.0,0.0,0.0,0.0,0.0,0.0,0.0,0.0,0.0,0.0,0.0,0.0,-1.4648,0.0,0.0,0.0,-1.3232,0.0,0.0,0.0,0.0,0.0,0.0,0.0,0.0,0.0,0.0,0.0,0.0,0.0,0.0,0.0,0.0,0.0,0.0,0.0,0.0,0.0,0.0,0.0,0.0,0.0,0.0,0.0,0.0,0.0,0.0,0.0,0.0,0.0,0.0,0.0,0.0,0.0,0.0,0.0,0.0,0.0,0.0,0.0,0.0,0.0,0.0,0.0,0.0,0.0,0.0,0.0,0.0,0.0,0.0,0.0,0.0,0.0,0.0,0.0,0.0,0.0,0.0,0.0,0.0,0.0,0.0,0.0,0.0,0.0,0.0,0.0,0.0,0.0,0.0,0.0,0.0,0.0,0.0,0.0,0.0,0.0,0.0,0.0,0.0,0.0,0.0,0.0,0.0,0.0,0.0,0.0,0.0,0.0,0.0,0.0,0.0,0.0,0.0,0.0,0.0,0.0,0.0,0.0,0.0,0.0,0.0,0.0,0.0,0.0,0.0,-1.4609,-1.3245,-1.5092,-1.5092,-1.2898,0.0,0.0,0.0,0.0,0.0,0.0,0.0,0.0,0.0,0.0,0.0,0.0,0.0,0.0,0.0,0.0,0.0,0.0,0.0,0.0,0.0,0.0,0.0,0.0,0.0,0.0,0.0,0.0,0.0,0.0,0.0,0.0,0.0,0.0,0.0,0.0,0.0,0.0,0.0,0.0,0.0,0.0,0.0,0.0,0.0,0.0,0.0,0.0,0.0,0.0,0.0,0.0,0.0,0.0,0.0,0.0,0.0,0.0,0.0,0.0,0.0,0.0,0.0,0.0,0.0,0.0,0.0,0.0,0.0,0.0,0.0,0.0,0.0,0.0,0.0,0.0,0.0,0.0,0.0,0.0,0.0,0.0,0.0,0.0,0.0,0.0,0.0,0.0,0.0,0.0,0.0,0.0,0.0,0.0,0.0,0.0,0.0,0.0,0.0,0.0,0.0,0.0,0.0,0.0,0.0,0.0,0.0,0.0,0.0,0.0,0.0,0.0,-1.5637,-1.5587,-1.3394,0.0,0.0,0.0,0.0,0.0,0.0,0.0,0.0,0.0,0.0,0.0,0.0,0.0,0.0,0.0,0.0,0.0,0.0,0.0,0.0,0.0,0.0,0.0,0.0,0.0,0.0,0.0,0.0,0.0,0.0,0.0,0.0,0.0,0.0,0.0,0.0,0.0,0.0,0.0,0.0,0.0,0.0,0.0,0.0,0.0,0.0,0.0,0.0,0.0,0.0,0.0,0.0,0.0,0.0,0.0,0.0,0.0,0.0,0.0,0.0,0.0,0.0,0.0,0.0,0.0,0.0,0.0,0.0,0.0,0.0,0.0,0.0,0.0,0.0,0.0,0.0,0.0,0.0,0.0,0.0,0.0,0.0,0.0,0.0,0.0,0.0,0.0,0.0,0.0,0.0,0.0,0.0,0.0,0.0,0.0,0.0,0.0,0.0,0.0,0.0,0.0,0.0,0.0,0.0,0.0,0.0,0.0,0.0,0.0,0.0,-1.3879,-1.5666,-1.5433,0.0,-1.4662,0.0,0.0,0.0,0.0,0.0,0.0,0.0,0.0,0.0,0.0,0.0,0.0,0.0,0.0,0.0,0.0,0.0,0.0,0.0,0.0,0.0,0.0,0.0,0.0,0.0,0.0,0.0,0.0,0.0,0.0,0.0,0.0,0.0,0.0,0.0,0.0,0.0,0.0,0.0,0.0,0.0,0.0,0.0,0.0,0.0,0.0,0.0,0.0,0.0,0.0,0.0,0.0,0.0,0.0,0.0,0.0,0.0,0.0,0.0,0.0,0.0,0.0,0.0,0.0,0.0,0.0,0.0,0.0,0.0,0.0,0.0,0.0,0.0,0.0,0.0,0.0,0.0,0.0,0.0,0.0,0.0,0.0,0.0,0.0,0.0,0.0,0.0,0.0,0.0,0.0,0.0,0.0,0.0,0.0,0.0,0.0,0.0,0.0,0.0,0.0,0.0,0.0,0.0,0.0,0.0,0.0,0.0,0.0,0.0,0.0,-1.4326,-1.5783,-1.5342,-1.463,0.0,0.0,0.0,0.0,0.0,0.0,0.0,0.0,0.0,0.0,0.0,0.0,0.0,0.0,0.0,0.0,0.0,0.0,0.0,0.0,0.0,0.0,0.0,0.0,0.0,0.0,0.0,0.0,0.0,0.0,0.0,0.0,0.0,0.0,0.0,0.0,0.0,0.0,0.0,0.0,0.0,0.0,0.0,0.0,0.0,0.0,0.0,0.0,0.0,0.0,0.0,0.0,0.0,0.0,0.0,0.0,0.0,0.0,0.0,0.0,0.0,0.0,0.0,0.0,0.0,0.0,0.0,0.0,0.0,0.0,0.0,0.0,0.0,0.0,0.0,0.0,0.0,0.0,0.0,0.0,0.0,0.0,0.0,0.0,0.0,0.0,0.0,0.0,0.0,0.0,0.0,0.0,0.0,0.0,0.0,0.0,0.0,0.0,0.0,0.0,0.0,0.0,0.0,0.0,0.0,0.0,0.0,0.0,0.0,0.0,-1.4681,-1.5076,-1.6132,-1.5441,-1.4487,-1.3385,0.0,0.0,0.0,0.0,0.0,0.0,0.0,0.0,0.0,0.0,0.0,0.0,0.0,0.0,0.0,0.0,0.0,0.0,0.0,0.0,0.0,0.0,0.0,0.0,0.0,0.0,0.0,0.0,0.0,0.0,0.0,0.0,0.0,0.0,0.0,0.0,0.0,0.0,0.0,0.0,0.0,0.0,0.0,0.0,0.0,0.0,0.0,0.0,0.0,0.0,0.0,0.0,0.0,0.0,0.0,0.0,0.0,0.0,0.0,0.0,0.0,0.0,0.0,0.0,0.0,0.0,0.0,0.0,0.0,0.0,0.0,0.0,0.0,0.0,0.0,0.0,0.0,0.0,0.0,0.0,0.0,0.0,0.0,0.0,0.0,0.0,0.0,0.0,0.0,0.0,0.0,0.0,0.0,0.0,0.0,0.0,0.0,0.0,0.0,0.0,0.0,0.0,0.0,0.0,0.0,0.0,0.0,0.0,-1.8939,-1.6661,-1.6061,-1.7494,-1.5784,-1.4781,0.0,0.0,0.0,0.0,0.0,0.0,0.0,0.0,0.0,0.0,0.0,0.0,0.0,0.0,0.0,0.0,0.0,0.0,0.0,0.0,0.0,0.0,0.0,0.0,0.0,0.0,0.0,0.0,0.0,0.0,0.0,0.0,0.0,0.0,0.0,0.0,0.0,0.0,0.0,0.0,0.0,0.0,0.0,0.0,0.0,0.0,0.0,0.0,0.0,0.0,0.0,0.0,0.0,0.0,0.0,0.0,0.0,0.0,0.0,0.0,0.0,0.0,0.0,0.0,0.0,0.0,0.0,0.0,0.0,0.0,0.0,0.0,0.0,0.0,0.0,0.0,0.0,0.0,0.0,0.0,0.0,0.0,0.0,0.0,0.0,0.0,0.0,0.0,0.0,0.0,0.0,0.0,0.0,0.0,0.0,0.0,0.0,0.0,0.0,0.0,0.0,0.0,0.0,0.0,0.0,0.0,0.0,0.0,0.0,-1.5152,-1.5215,-1.5904,-1.7243,-1.569,-1.5005,0.0,0.0,0.0,0.0,0.0,0.0,0.0,0.0,0.0,0.0,0.0,0.0,0.0,0.0,0.0,0.0,0.0,0.0,0.0,0.0,0.0,0.0,0.0,0.0,0.0,0.0,0.0,0.0,0.0,0.0,0.0,0.0,0.0,0.0,0.0,0.0,0.0,0.0,0.0,0.0,0.0,0.0,0.0,0.0,0.0,0.0,0.0,0.0,0.0,0.0,0.0,0.0,0.0,0.0,0.0,0.0,0.0,0.0,0.0,0.0,0.0,0.0,0.0,0.0,0.0,0.0,0.0,0.0,0.0,0.0,0.0,0.0,0.0,0.0,0.0,0.0,0.0,0.0,0.0,0.0,0.0,0.0,0.0,0.0,0.0,0.0,0.0,0.0,0.0,0.0,0.0,0.0,0.0,0.0,0.0,0.0,0.0,0.0,0.0,0.0,0.0,0.0,0.0,0.0,0.0,0.0,0.0,0.0,0.0,-1.4508,-1.6208,-1.721,-1.7288,-1.5915,-1.4931,0.0,0.0,0.0,0.0,0.0,0.0,0.0,0.0,0.0,0.0,0.0,0.0,0.0,0.0,0.0,0.0,0.0,0.0,0.0,0.0,0.0,0.0,0.0,0.0,0.0,0.0,0.0,0.0,0.0,0.0,0.0,0.0,0.0,0.0,0.0,0.0,0.0,0.0,0.0,0.0,0.0,0.0,0.0,0.0,0.0,0.0,0.0,0.0,0.0,0.0,0.0,0.0,0.0,0.0,0.0,0.0,0.0,0.0,0.0,0.0,0.0,0.0,0.0,0.0,0.0,0.0,0.0,0.0,0.0,0.0,0.0,0.0,0.0,0.0,0.0,0.0,0.0,0.0,0.0,0.0,0.0,0.0,0.0,0.0,0.0,0.0,0.0,0.0,0.0,0.0,0.0,0.0,0.0,0.0,0.0,0.0,0.0,0.0,0.0,0.0,0.0,0.0,0.0,0.0,0.0,0.0,0.0,0.0,-1.4513,-1.7823,-1.9946,-1.984,-1.7775,-1.6413,-1.4556,0.0,0.0,0.0,0.0,0.0,0.0,0.0,0.0,0.0,0.0,0.0,0.0,0.0,0.0,0.0,0.0,0.0,0.0,0.0,0.0,0.0,0.0,0.0,0.0,0.0,0.0,0.0,0.0,0.0,0.0,0.0,0.0,0.0,0.0,0.0,0.0,0.0,0.0,0.0,0.0,0.0,0.0,0.0,0.0,0.0,0.0,0.0,0.0,0.0,0.0,0.0,0.0,0.0,0.0,0.0,0.0,0.0,0.0,0.0,0.0,0.0,0.0,0.0,0.0,0.0,0.0,0.0,0.0,0.0,0.0,0.0,0.0,0.0,0.0,0.0,0.0,0.0,0.0,0.0,0.0,0.0,0.0,0.0,0.0,0.0,0.0,0.0,0.0,0.0,0.0,0.0,0.0,0.0,0.0,0.0,0.0,0.0,0.0,0.0,0.0,0.0,0.0,0.0,0.0,0.0,0.0,0.0,0.0,0.0,-1.4053,-1.7152,-1.846,-1.7684,-1.5965,-1.5294,0.0,0.0,0.0,0.0,0.0,0.0,0.0,0.0,0.0,0.0,0.0,0.0,0.0,0.0,0.0,0.0,0.0,0.0,0.0,0.0,0.0,0.0,0.0,0.0,0.0,0.0,0.0,0.0,0.0,0.0,0.0,0.0,0.0,0.0,0.0,0.0,0.0,0.0,0.0,0.0,0.0,0.0,0.0,0.0,0.0,0.0,0.0,0.0,0.0,0.0,0.0,0.0,0.0,0.0,0.0,0.0,0.0,0.0,0.0,0.0,0.0,0.0,0.0,0.0,0.0,0.0,0.0,0.0,0.0,0.0,0.0,0.0,0.0,0.0,0.0,0.0,0.0,0.0,0.0,0.0,0.0,0.0,0.0,0.0,0.0,0.0,0.0,0.0,0.0,0.0,0.0,0.0,0.0,0.0,0.0,0.0,0.0,0.0,0.0,0.0,0.0,0.0,0.0,0.0,0.0,0.0,0.0,0.0,0.0,-1.444,-1.7928,-1.9552,-1.8835,-1.6845,-1.5995,-1.6411,0.0,0.0,0.0,0.0,0.0,0.0,0.0,0.0,0.0,0.0,0.0,0.0,0.0,0.0,0.0,0.0,0.0,0.0,0.0,0.0,0.0,0.0,0.0,0.0,0.0,0.0,0.0,0.0,0.0,0.0,0.0,0.0,0.0,0.0,0.0,0.0,0.0,0.0,0.0,0.0,0.0,0.0,0.0,0.0,0.0,0.0,0.0,0.0,0.0,0.0,0.0,0.0,0.0,0.0,0.0,0.0,0.0,0.0,0.0,0.0,0.0,0.0,0.0,0.0,0.0,0.0,0.0,0.0,0.0,0.0,0.0,0.0,0.0,0.0,0.0,0.0,0.0,0.0,0.0,0.0,0.0,0.0,0.0,0.0,0.0,0.0,0.0,0.0,0.0,0.0,0.0,0.0,0.0,0.0,0.0,0.0,0.0,0.0,0.0,0.0,0.0,0.0,0.0,0.0,0.0,0.0,0.0,0.0,-1.7847,-2.158,-2.256,-2.0646,-1.8629,-1.6707,0.0,0.0,0.0,0.0,0.0,0.0,0.0,0.0,0.0,0.0,0.0,0.0,0.0,0.0,0.0,0.0,0.0,0.0,0.0,0.0,0.0,0.0,0.0,0.0,0.0,0.0,0.0,0.0,0.0,0.0,0.0,0.0,0.0,0.0,0.0,0.0,0.0,0.0,0.0,0.0,0.0,0.0,0.0,0.0,0.0,0.0,0.0,0.0,0.0,0.0,0.0,0.0,0.0,0.0,0.0,0.0,0.0,0.0,0.0,0.0,0.0,0.0,0.0,0.0,0.0,0.0,0.0,0.0,0.0,0.0,0.0,0.0,0.0,0.0,0.0,0.0,0.0,0.0,0.0,0.0,0.0,0.0,0.0,0.0,0.0,0.0,0.0,0.0,0.0,0.0,0.0,0.0,0.0,0.0,0.0,0.0,0.0,0.0,0.0,0.0,0.0,0.0,0.0,0.0,0.0,0.0,0.0,0.0,0.0,-1.9907,-2.1888,-2.1982,-2.002,-1.8311,-1.6936,0.0,0.0,0.0,0.0,0.0,0.0,0.0,0.0,0.0,0.0,0.0,0.0,0.0,0.0,0.0,0.0,0.0,0.0,0.0,0.0,0.0,0.0,0.0,0.0,0.0,0.0,0.0,0.0,0.0,0.0,0.0,0.0,0.0,0.0,0.0,0.0,0.0,0.0,0.0,0.0,0.0,0.0,0.0,0.0,0.0,0.0,0.0,0.0,0.0,0.0,0.0,0.0,0.0,0.0,0.0,0.0,0.0,0.0,0.0,0.0,0.0,0.0,0.0,0.0,0.0,0.0,0.0,0.0,0.0,0.0,0.0,0.0,0.0,0.0,0.0,0.0,0.0,0.0,0.0,0.0,0.0,0.0,0.0,0.0,0.0,0.0,0.0,0.0,0.0,0.0,0.0,0.0,0.0,0.0,0.0,0.0,0.0,0.0,0.0,0.0,0.0,0.0,0.0,0.0,0.0,0.0,0.0,0.0,-1.9074,-2.1859,-2.2367,-2.1947,-2.0577,-1.886,-1.7407,0.0,0.0,0.0,0.0,0.0,0.0,0.0,0.0,0.0,0.0,0.0,0.0,0.0,0.0,0.0,0.0,0.0,0.0,0.0,0.0,0.0,0.0,0.0,0.0,0.0,0.0,0.0,0.0,0.0,0.0,0.0,0.0,0.0,0.0,0.0,0.0,0.0,0.0,0.0,0.0,0.0,0.0,0.0,0.0,0.0,0.0,0.0,0.0,0.0,0.0,0.0,0.0,0.0,0.0,0.0,0.0,0.0,0.0,0.0,0.0,0.0,0.0,0.0,0.0,0.0,0.0,0.0,0.0,0.0,0.0,0.0,0.0,0.0,0.0,0.0,0.0,0.0,0.0,0.0,0.0,0.0,0.0,0.0,0.0,0.0,0.0,0.0,0.0,0.0,0.0,0.0,0.0,0.0,0.0,0.0,0.0,0.0,0.0,0.0,0.0,0.0,0.0,0.0,0.0,0.0,0.0,0.0,0.0,-1.9821,-2.349,-2.2815,-2.2184,-2.1679,-1.9743,-1.7835,0.0,0.0,0.0,0.0,0.0,0.0,0.0,0.0,0.0,0.0,0.0,0.0,0.0,0.0,0.0,0.0,0.0,0.0,0.0,0.0,0.0,0.0,0.0,0.0,0.0,0.0,0.0,0.0,0.0,0.0,0.0,0.0,0.0,0.0,0.0,0.0,0.0,0.0,0.0,0.0,0.0,0.0,0.0,0.0,0.0,0.0,0.0,0.0,0.0,0.0,0.0,0.0,0.0,0.0,0.0,0.0,0.0,0.0,0.0,0.0,0.0,0.0,0.0,0.0,0.0,0.0,0.0,0.0,0.0,0.0,0.0,0.0,0.0,0.0,0.0,0.0,0.0,0.0,0.0,0.0,0.0,0.0,0.0,0.0,0.0,0.0,0.0,0.0,0.0,0.0,0.0,0.0,0.0,0.0,0.0,0.0,0.0,0.0,0.0,0.0,0.0,0.0,0.0,0.0,0.0,0.0,0.0,0.0,-2.1211,-2.3483,-2.2469,-2.1828,-2.1697,-1.9654,-1.7494,0.0,0.0,0.0,0.0,0.0,0.0,0.0,0.0,0.0,0.0,0.0,0.0,0.0,0.0,0.0,0.0,0.0,0.0,0.0,0.0,0.0,0.0,0.0,0.0,0.0,0.0,0.0,0.0,0.0,0.0,0.0,0.0,0.0,0.0,0.0,0.0,0.0,0.0,0.0,0.0,0.0,0.0,0.0,0.0,0.0,0.0,0.0,0.0,-1.0151,0.0,0.0,0.0,0.0,0.0,0.0,0.0,0.0,0.0,0.0,0.0,0.0,0.0,0.0,0.0,0.0,0.0,0.0,0.0,0.0,0.0,0.0,0.0,0.0,0.0,0.0,0.0,0.0,0.0,0.0,0.0,0.0,0.0,0.0,0.0,0.0,0.0,0.0,0.0,0.0,0.0,0.0,0.0,0.0,0.0,0.0,0.0,0.0,0.0,0.0,0.0,0.0,0.0,0.0,0.0,0.0,0.0,0.0,0.0,-2.2113,-2.397,-2.3093,-2.2481,-2.2138,-2.0463,-1.8068,0.0,0.0,0.0,0.0,0.0,0.0,0.0,0.0,0.0,0.0,0.0,0.0,0.0,0.0,0.0,0.0,0.0,0.0,0.0,0.0,0.0,0.0,0.0,0.0,0.0,0.0,0.0,0.0,0.0,0.0,0.0,0.0,0.0,0.0,0.0,0.0,0.0,0.0,0.0,0.0,0.0,0.0,0.0,0.0,0.0,0.0,0.0,0.0,0.0,0.0,0.0,0.0,0.0,0.0,0.0,0.0,0.0,0.0,0.0,0.0,0.0,0.0,0.0,0.0,0.0,0.0,0.0,0.0,0.0,0.0,0.0,0.0,0.0,0.0,0.0,0.0,0.0,0.0,0.0,0.0,0.0,0.0,0.0,0.0,0.0,0.0,0.0,0.0,0.0,0.0,0.0,0.0,0.0,0.0,0.0,0.0,0.0,0.0,0.0,0.0,0.0,0.0,0.0,0.0,0.0,0.0,0.0,-2.024,-2.2655,-2.449,-2.3954,-2.3315,-2.269,-2.1407,-1.8919,-1.5198,0.0,0.0,0.0,0.0,0.0,0.0,0.0,0.0,0.0,0.0,0.0,0.0,0.0,0.0,0.0,0.0,0.0,0.0,0.0,0.0,0.0,0.0,0.0,0.0,0.0,0.0,0.0,0.0,0.0,0.0,0.0,0.0,0.0,0.0,0.0,0.0,0.0,0.0,-1.0484,-1.1968,0.0,0.0,0.0,0.0,0.0,0.0,0.0,0.0,-1.108,0.0,0.0,0.0,0.0,0.0,0.0,0.0,0.0,0.0,0.0,0.0,0.0,0.0,0.0,0.0,0.0,0.0,0.0,0.0,0.0,0.0,0.0,0.0,0.0,0.0,0.0,0.0,0.0,0.0,0.0,0.0,0.0,0.0,0.0,0.0,0.0,0.0,0.0,0.0,0.0,0.0,0.0,0.0,0.0,0.0,0.0,0.0,0.0,0.0,0.0,0.0,0.0,0.0,0.0,0.0,0.0,-2.0797,-2.1425,-2.2659,-2.4607,-2.398,-2.3315,-2.2684,-2.1402,-1.9082,-1.5781,0.0,0.0,0.0,0.0,0.0,0.0,0.0,0.0,0.0,0.0,0.0,0.0,0.0,0.0,0.0,0.0,0.0,0.0,0.0,0.0,0.0,0.0,0.0,0.0,0.0,0.0,0.0,0.0,0.0,0.0,0.0,0.0,0.0,0.0,0.0,0.0,0.0,0.0,0.0,-1.5019,-1.5701,0.0,0.0,0.0,0.0,0.0,0.0,0.0,0.0,-1.1879,0.0,0.0,0.0,0.0,0.0,0.0,0.0,0.0,0.0,0.0,0.0,0.0,0.0,0.0,0.0,0.0,0.0,0.0,0.0,0.0,0.0,0.0,0.0,0.0,0.0,0.0,0.0,0.0,0.0,0.0,0.0,0.0,0.0,0.0,0.0,0.0,0.0,0.0,0.0,0.0,0.0,0.0,0.0,0.0,0.0,0.0,0.0,0.0,0.0,0.0,0.0,0.0,0.0,0.0,0.0,-2.0034,-2.2503,-2.4207,-2.5177,-2.4836,-2.4176,-2.3231,-2.2201,-1.9826,0.0,0.0,0.0,0.0,0.0,0.0,0.0,0.0,0.0,0.0,0.0,0.0,0.0,0.0,0.0,0.0,0.0,0.0,0.0,0.0,0.0,0.0,0.0,0.0,0.0,0.0,0.0,0.0,0.0,0.0,0.0,0.0,0.0,0.0,0.0,0.0,0.0,0.0,0.0,0.0,-1.5916,-1.6525,-1.6475,0.0,0.0,0.0,0.0,0.0,0.0,-1.2281,-1.1798,0.0,0.0,0.0,0.0,0.0,0.0,0.0,0.0,0.0,0.0,0.0,0.0,0.0,0.0,0.0,0.0,0.0,0.0,0.0,0.0,0.0,0.0,0.0,0.0,0.0,0.0,0.0,0.0,0.0,0.0,0.0,0.0,0.0,0.0,0.0,0.0,0.0,0.0,0.0,0.0,0.0,0.0,0.0,0.0,0.0,0.0,0.0,0.0,0.0,0.0,0.0,0.0,0.0,0.0,0.0,-1.8942,-2.3071,-2.5357,-2.5701,-2.5638,-2.5011,-2.3759,-2.3047,-2.0537,0.0,0.0,0.0,0.0,0.0,0.0,0.0,0.0,0.0,0.0,0.0,0.0,0.0,0.0,0.0,0.0,0.0,0.0,0.0,0.0,0.0,0.0,0.0,0.0,0.0,0.0,0.0,0.0,0.0,0.0,0.0,0.0,0.0,0.0,0.0,0.0,0.0,0.0,0.0,0.0,0.0,-1.7205,-1.7519,-1.6473,0.0,0.0,0.0,0.0,-1.3417,-1.296,0.0,0.0,0.0,0.0,0.0,0.0,0.0,0.0,0.0,0.0,0.0,0.0,0.0,0.0,0.0,0.0,0.0,0.0,0.0,0.0,0.0,0.0,0.0,0.0,0.0,0.0,0.0,0.0,0.0,0.0,0.0,0.0,0.0,0.0,0.0,0.0,0.0,0.0,0.0,0.0,0.0,0.0,0.0,0.0,0.0,0.0,0.0,0.0,0.0,0.0,0.0,0.0,0.0,0.0,0.0,0.0,-1.9528,-2.2368,-2.4476,-2.5706,-2.5673,-2.5036,-2.392,-2.318,-2.0847,0.0,0.0,0.0,0.0,0.0,0.0,0.0,0.0,0.0,0.0,0.0,0.0,0.0,0.0,0.0,0.0,0.0,0.0,0.0,0.0,0.0,0.0,0.0,0.0,0.0,0.0,0.0,0.0,0.0,0.0,0.0,0.0,0.0,0.0,0.0,0.0,0.0,0.0,0.0,0.0,0.0,-1.8911,-1.7063,-1.6803,-1.6434,0.0,0.0,-1.56,-1.5556,-1.5372,0.0,0.0,0.0,0.0,0.0,0.0,0.0,0.0,0.0,0.0,0.0,0.0,0.0,0.0,0.0,0.0,0.0,0.0,0.0,0.0,0.0,0.0,0.0,0.0,0.0,0.0,0.0,0.0,0.0,0.0,0.0,0.0,0.0,0.0,0.0,0.0,0.0,0.0,0.0,0.0,0.0,0.0,0.0,0.0,0.0,0.0,0.0,0.0,0.0,0.0,0.0,0.0,0.0,0.0,0.0,-1.6985,-1.9866,-2.3598,-2.5653,-2.5888,-2.5863,-2.5203,-2.3907,-2.3586,-2.1351,0.0,0.0,0.0,0.0,0.0,0.0,0.0,0.0,0.0,0.0,0.0,0.0,0.0,0.0,0.0,0.0,0.0,0.0,0.0,0.0,0.0,0.0,0.0,0.0,0.0,0.0,0.0,0.0,0.0,0.0,0.0,0.0,0.0,0.0,0.0,0.0,0.0,0.0,0.0,0.0,0.0,0.0,-1.97,-1.8732,0.0,0.0,0.0,-1.6622,-1.6162,0.0,0.0,0.0,0.0,0.0,0.0,0.0,0.0,0.0,0.0,0.0,0.0,0.0,0.0,0.0,0.0,0.0,0.0,0.0,0.0,0.0,0.0,0.0,0.0,0.0,0.0,0.0,0.0,0.0,0.0,0.0,0.0,0.0,0.0,0.0,0.0,0.0,0.0,0.0,0.0,0.0,0.0,0.0,0.0,0.0,0.0,0.0,0.0,0.0,0.0,0.0,0.0,0.0,0.0,0.0,0.0,0.0,-2.0036,-2.4809,-2.6912,-2.6252,-2.6226,-2.5632,-2.4434,-2.4245,0.0,0.0,0.0,0.0,0.0,0.0,0.0,0.0,0.0,0.0,0.0,0.0,0.0,0.0,0.0,0.0,0.0,0.0,0.0,0.0,0.0,0.0,0.0,0.0,0.0,0.0,0.0,-0.6583,0.0,0.0,0.0,0.0,0.0,0.0,0.0,0.0,0.0,0.0,0.0,0.0,0.0,0.0,-1.9715,-2.1547,-2.0555,-1.9579,0.0,0.0,-1.7575,-1.7111,-1.7219,-1.663,0.0,0.0,0.0,0.0,0.0,0.0,0.0,0.0,0.0,0.0,0.0,0.0,0.0,0.0,0.0,0.0,0.0,0.0,0.0,0.0,0.0,0.0,0.0,0.0,0.0,0.0,0.0,0.0,0.0,0.0,0.0,0.0,0.0,0.0,0.0,0.0,0.0,0.0,0.0,0.0,0.0,0.0,0.0,0.0,0.0,0.0,0.0,0.0,0.0,0.0,0.0,0.0,0.0,0.0,-1.8561,-2.0112,-2.5242,-2.7565,-2.686,-2.6834,-2.6481,-2.5715,-2.5188,-2.2741,0.0,0.0,0.0,0.0,0.0,0.0,0.0,0.0,0.0,0.0,0.0,0.0,0.0,0.0,0.0,0.0,0.0,0.0,0.0,0.0,0.0,0.0,0.0,0.0,0.0,0.0,0.0,0.0,0.0,0.0,0.0,0.0,0.0,0.0,0.0,0.0,0.0,0.0,0.0,0.0,0.0,-2.0447,-2.0923,-2.1648,-2.203,0.0,-1.995,-1.8771,-1.9218,-1.8785,-1.7348,-1.4245,0.0,0.0,0.0,0.0,0.0,0.0,0.0,0.0,0.0,0.0,0.0,0.0,0.0,0.0,0.0,0.0,0.0,0.0,0.0,0.0,0.0,0.0,0.0,0.0,0.0,0.0,0.0,0.0,0.0,0.0,0.0,0.0,0.0,0.0,0.0,0.0,0.0,0.0,0.0,0.0,0.0,0.0,0.0,0.0,0.0,0.0,0.0,0.0,0.0,0.0,0.0,0.0,0.0,-1.877,-2.0229,-2.5509,-2.785,-2.7071,-2.703,-2.664,-2.581,-2.53,-2.3484,0.0,0.0,0.0,0.0,0.0,0.0,0.0,0.0,0.0,0.0,0.0,0.0,0.0,0.0,0.0,0.0,0.0,0.0,0.0,0.0,0.0,0.0,0.0,0.0,0.0,0.0,0.0,0.0,-1.2477,-1.4153,-1.7797,0.0,0.0,0.0,0.0,0.0,0.0,0.0,0.0,0.0,0.0,-2.2821,-2.4053,-2.4112,0.0,0.0,-2.269,-2.172,-2.1353,-2.0001,-1.84,-1.6619,-1.5548,0.0,0.0,0.0,0.0,0.0,0.0,0.0,0.0,0.0,0.0,0.0,0.0,0.0,0.0,0.0,0.0,0.0,0.0,0.0,0.0,0.0,0.0,0.0,0.0,0.0,0.0,0.0,0.0,0.0,0.0,0.0,0.0,0.0,0.0,0.0,0.0,0.0,0.0,0.0,0.0,0.0,0.0,0.0,0.0,0.0,0.0,0.0,0.0,0.0,0.0,0.0,0.0,-1.9099,-2.0302,-2.5841,-2.8377,-2.7742,-2.769,-2.735,-2.6716,-2.6105,-2.4618,0.0,0.0,0.0,0.0,0.0,0.0,0.0,0.0,0.0,0.0,0.0,0.0,0.0,0.0,0.0,0.0,0.0,0.0,0.0,0.0,0.0,0.0,0.0,0.0,0.0,0.0,0.0,0.0,-1.2921,-1.4333,-1.9045,0.0,0.0,0.0,0.0,0.0,0.0,0.0,0.0,0.0,0.0,-2.4567,-2.6417,-2.6186,-2.556,-2.5013,-2.4248,-2.3358,-2.23,-2.0788,-1.941,-1.8287,0.0,0.0,0.0,0.0,0.0,0.0,0.0,0.0,0.0,0.0,0.0,0.0,0.0,0.0,0.0,0.0,0.0,0.0,0.0,0.0,0.0,0.0,0.0,0.0,0.0,0.0,0.0,-1.2226,0.0,0.0,-1.22,0.0,0.0,0.0,0.0,0.0,0.0,0.0,0.0,0.0,0.0,0.0,0.0,0.0,0.0,0.0,0.0,0.0,0.0,0.0,0.0,0.0,0.0,-1.9545,-2.0381,-2.6287,-2.9281,-2.9139,-2.9027,-2.8873,-2.8703,-2.8015,-2.6232,-2.3282,0.0,0.0,0.0,0.0,0.0,0.0,0.0,0.0,0.0,0.0,0.0,0.0,0.0,0.0,0.0,0.0,0.0,0.0,0.0,0.0,0.0,0.0,0.0,0.0,0.0,0.0,-1.0206,-0.9468,-1.0903,0.0,0.0,0.0,0.0,0.0,0.0,0.0,0.0,0.0,-2.2847,-2.4126,-2.5307,-2.727,-2.7525,-2.6862,-2.5067,-2.4156,-2.3164,-2.189,-2.1185,-2.0308,0.0,0.0,0.0,0.0,0.0,0.0,0.0,0.0,0.0,0.0,0.0,0.0,0.0,0.0,0.0,0.0,0.0,0.0,0.0,0.0,0.0,0.0,0.0,0.0,0.0,0.0,0.0,-1.5685,-1.4886,0.0,0.0,0.0,0.0,0.0,0.0,0.0,0.0,0.0,0.0,0.0,-2.0349,-2.1673,0.0,0.0,0.0,0.0,0.0,0.0,0.0,0.0,0.0,0.0,0.0,0.0,-1.9825,-2.118,-2.698,-2.9997,-2.9878,-2.98,-2.9722,-2.9602,-2.845,-2.6028,-2.2227,0.0,0.0,0.0,0.0,0.0,0.0,0.0,0.0,0.0,0.0,0.0,0.0,0.0,0.0,0.0,0.0,0.0,0.0,0.0,0.0,0.0,0.0,0.0,0.0,0.0,-1.3663,0.0,0.0,0.0,0.0,0.0,0.0,0.0,0.0,0.0,0.0,-1.8984,-2.1839,-2.34,-2.533,-2.6851,-2.751,-2.7585,-2.7515,0.0,0.0,0.0,0.0,0.0,0.0,0.0,0.0,0.0,0.0,0.0,0.0,0.0,0.0,-1.7836,-1.4024,-1.2867,-1.2491,-1.2491,0.0,0.0,0.0,0.0,0.0,0.0,0.0,0.0,0.0,0.0,0.0,0.0,0.0,0.0,-1.8327,-1.7654,-1.7622,0.0,0.0,0.0,0.0,0.0,0.0,0.0,0.0,-2.184,-2.3121,-2.3183,-2.4456,-2.4502,-2.3456,-2.2767,-2.1255,0.0,0.0,0.0,0.0,0.0,0.0,0.0,0.0,-2.0996,-2.3148,-2.8134,-3.0698,-3.063,-3.0566,-3.0513,-3.0403,-2.8981,-2.6901,-2.4148,-2.2868,-2.1352,0.0,0.0,0.0,0.0,0.0,0.0,0.0,0.0,0.0,0.0,0.0,0.0,0.0,0.0,0.0,0.0,0.0,0.0,0.0,0.0,0.0,0.0,0.0,-1.505,0.0,0.0,0.0,0.0,0.0,0.0,0.0,0.0,0.0,-1.7596,-2.1246,-2.4208,-2.4896,-2.6716,-2.7959,-2.7959,0.0,0.0,0.0,0.0,0.0,0.0,0.0,-2.2696,-2.2526,-2.0559,-1.883,-1.8347,-1.9608,-2.0475,-1.9762,0.0,0.0,-1.7072,-1.5933,-1.5523,-1.5523,-1.595,-1.6164,-1.5757,-1.6508,-1.7274,0.0,0.0,0.0,0.0,-1.8249,0.0,0.0,0.0,-2.0077,-2.0083,0.0,-2.0358,0.0,0.0,0.0,0.0,-1.6319,-1.9645,0.0,0.0,-2.6965,-2.8396,-2.8396,-2.8396,-2.8765,-2.9304,-2.738,-2.6457,-2.618,-2.1889,0.0,0.0,0.0,0.0,0.0,0.0,-2.3055,-2.625,-2.9704,-3.1486,-3.1474,-3.137,-3.1301,-3.1182,-2.9697,-2.8856,-2.868,-2.5565,-2.3445,-2.2733,-1.767,0.0,0.0,0.0,0.0,0.0,0.0,0.0,0.0,0.0,0.0,0.0,0.0,0.0,0.0,0.0,0.0,0.0,0.0,0.0,0.0,-1.5799,0.0,0.0,0.0,0.0,0.0,0.0,0.0,0.0,0.0,-2.2966,-2.1201,-2.3214,-2.5442,-2.7315,0.0,0.0,0.0,0.0,-2.8873,-2.8742,-2.8199,-2.7615,-2.6931,-2.6232,-2.5574,-2.5061,0.0,0.0,-2.1184,-2.2004,-2.2326,-2.0264,-2.1146,-2.2056,-2.1994,-2.0514,-1.9508,-1.9483,-1.9542,-1.9694,-1.9723,-2.0767,-2.2299,-2.3955,0.0,0.0,0.0,0.0,-2.0777,-2.1856,-2.3703,-2.3592,-2.306,-2.2301,-2.2301,0.0,0.0,0.0,0.0,0.0,0.0,-2.3487,-2.5742,-2.7088,-2.8442,-2.9802,-2.9817,-2.9925,-3.0079,-2.9525,-2.9248,-2.9171,-2.7904,-2.3394,-1.6085,0.0,0.0,0.0,0.0,-2.561,-2.7226,-3.0874,-3.2829,-3.2813,-3.3308,-3.3036,-3.1931,-3.1021,-3.0255,-2.9648,-2.8117,-2.6365,-2.4324,-2.1759,0.0,0.0,0.0,0.0,0.0,0.0,0.0,0.0,0.0,0.0,0.0,0.0,0.0,0.0,0.0,0.0,0.0,0.0,0.0,-1.3111,-1.5991,-1.7176,0.0,0.0,0.0,0.0,0.0,0.0,0.0,0.0,0.0,-2.5668,-2.7081,-2.8023,0.0,0.0,-2.9445,-2.8094,-2.8753,-2.9684,-3.0567,-3.1315,0.0,-3.0283,-2.8788,-2.7554,-2.699,-2.585,-2.4553,-2.3302,-2.348,-2.3584,-2.2919,-2.3191,-2.3501,-2.3407,-2.2393,-2.147,-2.1432,-2.155,-2.1747,-2.2097,-2.2627,-2.316,-2.6297,-2.4273,-2.3276,-2.3298,-2.4011,-2.373,-2.4766,-2.6637,-2.6484,-2.6061,-2.5438,-2.5453,-2.3923,-2.1301,-2.0506,0.0,0.0,0.0,-2.5569,-2.7941,-2.8372,-2.9218,-3.0356,-3.0402,-3.0525,-3.0766,-2.9997,-3.0181,-3.1182,-3.0135,-2.6603,-2.0868,0.0,-2.2132,-2.1193,-2.5081,-2.8027,-2.9797,-3.2428,-3.3829,-3.3858,-3.4289,-3.3908,-3.2732,-3.1959,-3.1247,-3.0495,-2.9693,-2.8445,-2.6598,-2.4626,-2.259,0.0,0.0,0.0,0.0,0.0,0.0,0.0,0.0,0.0,0.0,0.0,-0.8454,-0.9743,0.0,0.0,0.0,-1.6134,-1.6802,-1.7379,-1.9626,0.0,0.0,0.0,0.0,0.0,0.0,0.0,-2.4874,-2.6931,-2.8278,-2.8723,-2.9684,-3.0058,-2.925,-3.0163,-3.0477,-2.9295,0.0,-3.112,-3.1795,-3.2976,-3.335,-3.2079,-3.0702,-2.9287,-2.791,-2.638,-2.5254,-2.484,-2.4775,-2.4696,-2.4553,-2.4491,-2.4387,-2.4122,-2.3467,-2.2955,-2.2955,-2.3024,-2.3206,-2.3525,-2.3526,-2.3716,-2.8063,-2.7908,-2.6522,-2.6405,-2.7039,-2.6388,-2.7194,-2.8972,-2.8609,-2.868,-2.9015,-2.8987,-2.7545,-2.5107,-2.3348,0.0,-2.5875,-2.6701,-2.8344,-3.0555,-3.0555,-3.0555,-3.0571,-3.0617,-3.0936,-3.1455,-2.9643,-3.0074,-3.2259,-3.0027,-2.8504,-2.795,-2.728,-2.7449,-2.8381,-2.8719,-3.0397,-3.3429,-3.4212,-3.4597,-3.4659,-3.4613,-3.4274,-3.3583,-3.2808,-3.2096,-3.1469,-3.0643,-2.9894,-2.9229,-2.6743,-2.4737,-2.3462,0.0,0.0,0.0,0.0,0.0,0.0,0.0,0.0,0.0,0.0,0.0,0.0,0.0,0.0,-1.9546,-2.299,0.0,-2.5257,-2.4918,0.0,0.0,0.0,-2.1684,-2.1445,-2.3984,-2.5824,-2.5974,0.0,0.0,-3.0672,-3.1137,-3.1555,-3.1645,-3.163,-3.154,-3.1436,-3.2198,-3.2841,-3.2736,-3.3544,-3.3799,-3.2721,-3.1811,-3.0454,-2.8352,-2.6793,-2.6007,-2.5865,-2.5759,-2.5641,-2.5301,-2.5132,-2.4926,-2.4347,-2.4253,-2.4227,-2.4227,-2.4122,-2.4086,-2.4137,-2.4168,-2.4357,-3.0221,-3.0207,-2.9827,-2.9098,-2.8133,-2.7965,-2.8348,-2.9125,-2.9057,-2.9085,-2.914,-2.8779,-2.8262,-2.7655,-2.7983,-2.8652,-2.9546,-3.0208,-3.1025,-3.1878,-3.1921,-3.1921,-3.1951,-3.2444,-3.2505,-3.2167,-3.2213,-3.2552,-3.3121,-3.2521,-3.2413,-3.2795,-3.2628,-3.1151,-2.8627,-3.1474,-3.3442,-3.4243,-3.4936,-3.5521,-3.5984,-3.5537,-3.5198,-3.4999,-3.4337,-3.3877,-3.3708,-3.2415,-3.1613,-3.143,-2.9753,-2.8591,-2.8102,-2.2747,0.0,0.0,0.0,0.0,0.0,0.0,0.0,0.0,0.0,-0.9896,-1.4578,0.0,-2.0004,0.0,-2.7435,-2.7373,-2.3059,-2.4298,0.0,0.0,-2.3696,-2.3839,-2.7238,-2.7345,-2.769,-2.9175,-3.0464,-3.1451,-3.1988,-3.172,-3.1884,-3.2856,-3.2557,-3.1884,-3.0957,-3.2557,-3.3903,-3.3963,-3.4053,-3.3978,-3.3259,-3.1826,-3.0411,-2.9392,-2.8124,-2.7112,-2.6641,-2.614,-2.5767,-2.5662,-2.5623,-2.5563,-2.5388,-2.5375,-2.5362,-2.5323,-2.4696,-2.4245,-2.4664,-2.4776,-2.4948,-3.0999,-3.0999,-3.0999,-3.0587,-2.9939,-2.9695,-2.9753,-2.9981,-3.0024,-3.0009,-2.9981,-2.9753,-2.9624,-2.9682,-3.022,-3.0757,-3.1227,-3.1545,-3.1966,-3.2398,-3.2398,-3.2552,-3.2844,-3.3213,-3.3383,-3.3352,-3.3735,-3.3891,-3.3875,-3.3904,-3.4075,-3.452,-3.4813,-3.3827,-3.1751,-3.3827,-3.4643,-3.4014,-3.5306,-3.6107,-3.6476,-3.6412,-3.5481,-3.3794,-3.5068,-3.4879,-3.3142,-3.3111,-3.25,-3.1158,-2.9606,-2.8641,-2.8339,-2.4739,-2.3277,0.0,0.0,0.0,0.0,0.0,0.0,0.0,0.0,0.0,0.0,0.0,-2.6743,-2.5898,-2.8898,-2.9207,-2.5079,-2.6561,-2.7929,-2.8291,-2.731,-2.766,-3.0273,-2.9828,-2.9909,-3.1346,-3.175,-3.2183,-3.2856,-3.2647,-3.2662,-3.3395,-3.317,-3.2677,-3.2138,-3.3245,-3.4173,-3.4053,-3.3784,-3.3469,-3.311,-3.136,-2.9958,-2.9583,-2.8488,-2.749,-2.717,-2.6812,-2.655,-2.655,-2.6341,-2.6177,-2.6086,-2.591,-2.5793,-2.5702,-2.5297,-2.5043,-2.5289,-2.5351,-2.547,-3.1175,-3.116,-3.1204,-3.1408,-3.1752,-3.135,-3.1175,-3.116,-3.116,-3.1146,-3.1087,-3.1146,-3.1131,-3.1087,-3.116,-3.1393,-3.1781,-3.1781,-3.2007,-3.2398,-3.249,-3.2829,-3.3398,-3.3583,-3.3952,-3.4505,-3.4597,-3.4643,-3.4628,-3.4628,-3.4674,-3.4782,-3.526,-3.5429,-3.523,-3.5337,-3.4874,-3.3829,-3.5414,-3.623,-3.6184,-3.682,-3.5448,-3.2217,-3.5486,-3.5808,-3.2417,-3.3789,-3.3473,-3.0813,-2.9116,-2.8054,-2.7677,-2.6856,-2.6121,0.0,-2.5164,0.0,0.0,0.0,0.0,0.0,0.0,0.0,0.0,-3.1988,-3.2861,-2.6279,-2.9534,-3.1251,-2.9388,-3.0335,-3.1234,-3.1762,-3.1779,-3.1735,-3.1704,-3.1749,-3.2019,-3.2736,-3.2691,-3.2871,-3.338,-3.3499,-3.3499,-3.3499,-3.3469,-3.3455,-3.3619,-3.3948,-3.4143,-3.3754,-3.3275,-3.2946,-3.2467,-3.0915,-2.969,-2.9535,-2.8561,-2.7643,-2.767,-2.7537,-2.7464,-2.7425,-2.7092,-2.6739,-2.6556,-2.625,-2.6067,-2.6093,-2.6054,-2.5968,-2.5803,-2.5738,-2.578,-3.2132,-3.2148,-3.2132,-3.2203,-3.2259,-3.2176,-3.2132,-3.2148,-3.2148,-3.1923,-3.1581,-3.1979,-3.1923,-3.161,-3.1964,-3.2203,-3.2244,-3.2259,-3.2315,-3.2413,-3.2952,-3.3275,-3.3475,-3.4568,-3.4905,-3.4551,-3.5029,-3.5321,-3.5321,-3.5321,-3.5568,-3.6091,-3.5722,-3.4922,-3.3891,0.0,0.0,0.0,-3.5244,-3.4757,-3.4526,-3.5313,-3.5324,-3.4414,-3.6765,0.0,-3.7046,-3.6836,-3.6459,-3.5859,-3.4475,0.0,0.0,0.0,0.0,0.0,0.0,0.0,0.0,0.0,0.0,0.0,-2.3525,-2.2548,-2.8533,-3.4068,-3.5251,-3.0688,-3.3552,-3.5185,-3.3815,-3.3808,-3.3804,-3.3545,-3.3261,-3.3051,-3.2825,-3.2976,-3.3066,-3.2826,-3.311,-3.3365,-3.3514,-3.3499,-3.3529,-3.3574,-3.3514,-3.3724,-3.4233,-3.4384,-3.4608,-3.4936,-3.3992,-3.314,-3.2572,-3.1261,-3.0246,-3.0147,-2.9188,-2.8365,-2.8262,-2.7809,-2.749,-2.7503,-2.7411,-2.734,-2.7268,-2.7216,-2.7111,-2.7163,-2.715,-2.6889,-2.6002,-2.5793,-2.578,-3.3442,-3.3442,-3.3413,-3.3442,0.0,-3.3457,-3.3429,-3.3383,-3.269,-3.2244,-3.2064,-3.2272,-3.2259,-3.2064,-3.2287,-3.2398,-3.2398,-3.2398,-3.2398,-3.2413,-3.2736,-3.3075,-3.3429,-3.4137,-3.446,-3.4505,-3.4859,-3.5013,-3.5013,-3.5013,-3.5183,-3.5521,-3.5521,-3.5152,-3.4475,-3.5122,-3.5626,-3.5909,-3.5923,-3.581,-3.5637,-3.669,-3.641,-3.4774,-3.7587,0.0,0.0,0.0,0.0,0.0,0.0,0.0,0.0,-3.1707,0.0,-3.2342,-3.0902,-3.0124,-3.0468,-3.0275,-3.1147,-3.3364,-3.1477,-3.1489,-3.4648,-3.6702,-3.6898,-3.4728,-3.5671,-3.6098,-3.5423,-3.469,-3.4164,-3.3895,-3.3652,-3.3425,-3.3351,-3.3411,-3.3679,-3.4068,-3.4038,-3.4083,-3.4457,-3.4487,-3.4487,-3.4487,-3.4487,-3.4592,-3.4831,-3.4429,-3.4158,-3.4425,-3.3648,-3.2855,-3.2423,-3.1289,-3.0413,-3.0252,-2.9302,-2.8545,-2.8445,-2.794,-2.7503,-2.7503,-2.7503,-2.7503,-2.7503,-2.7503,-2.7503,-2.7503,-2.7503,-2.7346,-2.6733,-2.6641,-2.6628,-3.4489,-3.4489,-3.4489,-3.4489,-3.4489,-3.4489,-3.4489,-3.4428,-3.3244,0.0,0.0,-3.2767,-3.2795,-3.2752,-3.2644,-3.2567,-3.2567,-3.2444,-3.2398,-3.2398,-3.2644,-3.3059,-3.3583,-3.3706,-3.4104,-3.4659,-3.4674,-3.4674,-3.469,-3.4797,-3.4921,-3.5059,-3.5367,-3.5491,-3.5568,-3.6415,-3.65,-3.5903,-3.6653,-3.695,-3.6836,-3.8136,-3.7513,-3.4718,-3.8179,-3.8805,-3.6152,-3.7628,-3.7593,-3.56,-3.416,-3.3509,-3.3692,-3.3393,-3.42,-3.6364,-3.6584,-3.6633,-3.6774,-3.6669,-3.6629,-3.6663,-3.7817,-3.8965,-4.002,-3.8988,-3.8229,-3.8132,-3.7127,-3.6405,-3.6208,-3.5091,-3.4288,-3.4166,-3.3967,-3.3858,-3.3858,-3.3844,-3.4322,-3.522,-3.4966,-3.4878,-3.5355,-3.5429,-3.5489,-3.5489,-3.5385,-3.5489,-3.537,-3.4622,-3.4053,-3.4052,-3.3399,-3.2658,-3.2375,-3.1268,-3.0412,-3.0276,-2.9358,-2.8551,-2.8355,-2.7902,-2.7542,-2.7503,-2.7503,-2.7503,-2.7503,-2.7503,-2.7503,-2.7503,-2.7503,-2.7503,-2.7503,-2.749,-2.7438,-3.4505,-3.4489,-3.4489,-3.4489,-3.4489,-3.4489,-3.4489,-3.4489,-3.4305,-3.4212,-3.4183,-3.4212,-3.4212,-3.4181,-3.3537,-3.326,-3.3213,-3.2659,-3.2398,-3.2459,-3.3658,-3.4258,-3.4352,-3.4951,-3.5245,-3.5337,-3.5367,-3.5383,-3.5429,-3.5907,-3.6492,-3.6846,-3.6045,-3.5507,-3.5644,-3.7293,-3.8114,-3.7846,-3.6434,-3.5545,-3.5255,-3.6708,-3.7185,-3.6585,-3.8821,-3.9918,-3.9454,-3.964,-3.9682,-3.9317,-3.8484,-3.8048,-3.8063,-3.7424,-3.7283,-3.7663,-3.7696,-3.7949,-3.8546,-3.8143,-3.7896,-3.8061,-3.9132,-3.9919,-4.0054,-3.991,-3.9791,-3.9741,-3.8983,-3.8455,-3.7742,-3.6843,-3.603,-3.5498,-3.5304,-3.5205,-3.5145,-3.5145,-3.522,-3.5459,-3.5429,-3.534,-3.5459,-3.5489,-3.5489,-3.5489,-3.5489,-3.5489,-3.5394,-3.537,-3.5235,-3.5034,-3.4103,-3.3358,-3.2895,-3.1584,-3.0513,-3.0295,-2.9693,-2.9035,-2.8595,-2.8059,-2.7646,-2.7516,-2.7555,-2.7529,-2.7516,-2.7503,-2.7503,-2.7503,-2.7503,-2.7503,-2.7503,-2.7503,-2.7503,-3.5568,-3.5598,-3.5584,-3.5598,-3.5598,-3.5598,-3.5598,-3.5598,-3.5598,-3.5183,-3.452,-3.4489,-3.4489,-3.4474,-3.4166,-3.3998,-3.3967,-3.3704,-3.3521,-3.3596,-3.4197,-3.4489,-3.452,-3.4813,-3.4967,-3.4967,-3.4951,-3.4967,-3.4998,-3.529,-3.5598,-3.5861,-3.5938,-3.66,-3.7653,-3.8573,-3.9203,-3.9469,-3.8565,-3.8139,-3.8321,-3.899,-3.9295,-3.9191,-4.0206,-4.0476,-4.0113,-4.0113,-4.0299,-4.0663,-3.9969,-3.9791,-4.0155,-3.9495,-3.9073,-3.9089,-3.9089,-3.9249,-3.9563,-3.9707,-3.9642,-3.9339,-4.0277,-4.0697,-4.0249,-3.9841,-3.9618,-3.9575,-3.8767,-3.8067,-3.7677,-3.6981,-3.6337,-3.5926,-3.5718,-3.5572,-3.5537,-3.5489,-3.5489,-3.5489,-3.5489,-3.5489,-3.5489,-3.5489,-3.5489,-3.5489,-3.5504,-3.5359,-3.4953,-3.5246,-3.5326,-3.4876,-3.4195,-3.3464,-3.2778,-3.1597,-3.0783,-3.0648,-3.0145,-2.9666,-2.9327,-2.8821,-2.8386,-2.8059,-2.7994,-2.785,-2.7607,-2.7503,-2.7503,-2.7503,-2.7503,-2.7503,-2.7503,-2.7503,-2.7503,-3.6492,-3.6492,-3.6492,-3.6492,-3.6492,-3.6492,-3.6492,-3.6492,-3.6476,-3.5922,-3.5044,-3.4967,-3.4951,-3.4936,-3.4813,-3.472,-3.4705,-3.4566,-3.4489,-3.4505,-3.4659,-3.472,-3.472,-3.472,-3.4797,-3.4936,-3.4951,-3.5044,-3.5183,-3.5337,-3.5414,-3.5552,-3.6738,-3.8167,-3.9692,-4.0023,-4.0521,-4.1135,-4.1054,-4.1097,-4.123,-4.1362,-4.1457,-4.1457,-4.1441,-4.1187,-4.0654,-4.0603,-4.0874,-4.1356,-4.073,-4.0595,-4.1119,-4.0519,-4.018,-4.0333,-4.035,-4.0451,-4.062,-4.1119,-4.1187,-4.0671,-4.123,-4.1387,-4.0807,-3.9976,-3.9456,-3.9347,-3.857,-3.7907,-3.7756,-3.6971,-3.6362,-3.6186,-3.5874,-3.5653,-3.5522,-3.5489,-3.5489,-3.5489,-3.5489,-3.5489,-3.5489,-3.5489,-3.5489,-3.5504,-3.5359,-3.4953,-3.4495,-3.4691,-3.4505,-3.4056,-3.3713,-3.3269,-3.2232,-3.1466,-3.1033,-3.1024,-3.062,-3.0244,-3.0022,-2.9706,-2.9274,-2.8752,-2.8582,-2.8451,-2.8046,-2.7968,-2.8007,-2.8059,-2.8072,-2.7994,-2.7999,-2.8033,-2.7777,-3.6507,-3.6492,-3.6553,-3.6492,-3.6553,-3.6538,-3.6553,-3.6538,-3.6507,-3.6445,-3.6322,-3.6292,-3.6292,-3.623,-3.566,-3.5429,-3.5383,-3.4782,-3.4551,-3.4643,-3.5136,-3.5429,-3.546,-3.5444,-3.5737,-3.623,-3.6307,-3.6584,-3.7123,-3.7707,-3.8092,-3.8292,-3.9493,-4.0155,-4.0514,-4.158,-4.251,-4.3191,-4.3166,-4.2545,-4.1477,-4.19,-4.2202,-4.2185,-4.2202,-4.2168,-4.1999,-4.21,-4.2117,-4.2117,-4.1508,-4.1119,-4.1153,-4.0536,-4.0417,-4.1035,-4.1102,-4.1373,-4.1999,-4.2151,-4.2151,-4.2066,-4.183,-4.1855,-4.2111,-4.1034,-4.0251,-4.0079,-3.9573,-3.9031,-3.8968,-3.7836,-3.7016,-3.6741,-3.6189,-3.5638,-3.5537,-3.5489,-3.5489,-3.5489,-3.5489,-3.5489,-3.5489,-3.5489,-3.5457,-3.5359,-3.4905,-3.4394,-3.4041,-3.3506,-3.2938,-3.2541,-3.2448,-3.2497,-3.2015,-3.1468,-3.1048,-3.0973,-3.0947,-3.0686,-3.0296,-3.01,-2.9839,-2.9353,-2.9297,-2.9222,-2.9065,-2.9118,-2.9039,-2.8869,-2.8908,-2.9052,-2.914,-2.9013,-2.8673,-3.7692,-3.7692,-3.7692,-3.7677,-3.7677,-3.7677,-3.7677,-3.7677,-3.7692,-3.7692,-3.7677,-3.7692,-3.7261,-3.6476,-3.6215,-3.6076,-3.6045,-3.5814,-3.5891,-3.6215,-3.6153,-3.6507,-3.7184,-3.6846,-3.703,-3.7646,-3.7677,-3.7831,-3.8092,-3.8385,-3.8708,-3.9108,-3.9644,-4.0478,-4.1613,-4.2218,-4.2831,-4.3466,-4.3465,-4.2974,-4.2236,-4.2635,-4.2946,-4.2963,-4.2963,-4.2726,-4.2337,-4.2303,-4.2489,-4.2844,-4.2252,-4.2049,-4.2489,-4.1796,-4.1508,-4.183,-4.1847,-4.2185,-4.2895,-4.2963,-4.3149,-4.3616,-4.3498,-4.317,-4.2484,-4.1259,-4.0435,-4.0299,-3.9481,-3.8819,-3.8786,-3.8279,-3.7897,-3.7636,-3.7276,-3.664,-3.5597,-3.5848,-3.5968,-3.5594,-3.5489,-3.5504,-3.5489,-3.5489,-3.5279,-3.4938,-3.4461,-3.4027,-3.3199,-3.2712,-3.2273,-3.1653,-3.1542,-3.1542,-3.1468,-3.1222,-3.1024,-3.1024,-3.1024,-3.083,-3.0712,-3.0634,-3.0451,-2.9889,-3.0032,-2.9925,-2.9349,-2.9336,-2.931,-2.9353,-2.9301,-2.931,-2.931,-2.931,-2.9,-3.8508,-3.8508,-3.8508,-3.8508,-3.8508,-3.8508,-3.8508,-3.8508,-3.8508,-3.8508,-3.8508,-3.8508,-3.7969,-3.7138,-3.7046,-3.7046,-3.7061,-3.7046,-3.7307,-3.7692,-3.7261,-3.7584,-3.84,-3.8031,-3.8123,-3.8692,-3.8769,-3.8862,-3.8998,-3.9029,-3.929,-3.9705,-3.9767,-4.0591,-4.2061,-4.2221,-4.2649,-4.3448,-4.3509,-4.3295,-4.2935,-4.3418,-4.3631,-4.3474,-4.3412,-4.3244,-4.2963,-4.2912,-4.3166,-4.3673,-4.3014,-4.2844,-4.3335,-4.2709,-4.2371,-4.2608,-4.2811,-4.3149,-4.3707,-4.3741,-4.3978,-4.4502,-4.4281,-4.3426,-4.2109,-4.1057,-4.0558,-4.0416,-3.9616,-3.9108,-3.9062,-3.8893,-3.8719,-3.8568,-3.8245,-3.7401,-3.6304,-3.6477,-3.6567,-3.6103,-3.5968,-3.5684,-3.5549,-3.5457,-3.5246,-3.4514,-3.4095,-3.3581,-3.2398,-3.2101,-3.1776,-3.1136,-3.1024,-3.1024,-3.1024,-3.1024,-3.1024,-3.1024,-3.1024,-3.1024,-3.1024,-3.0973,-3.096,-3.0451,-3.0803,-3.0817,-3.0255,-2.9928,-2.9967,-2.998,-2.9993,-3.0006,-3.0215,-3.0045,-3.0032,-3.8508,-3.8539,-3.8523,-3.86,-3.8539,-3.8585,-3.8554,-3.8662,-3.8585,-3.8554,-3.8616,-3.86,-3.8492,-3.8431,-3.8415,-3.84,-3.8385,-3.8323,-3.8354,-3.8446,-3.8369,-3.8431,-3.8508,-3.8477,-3.8831,-3.9431,-3.9444,-3.9736,-4.029,-4.0336,-4.0413,-4.0428,-4.0382,-4.0774,-4.1541,-4.1655,-4.2252,-4.3396,-4.354,-4.3557,-4.3573,-4.4138,-4.4075,-4.3568,-4.3505,-4.3822,-4.4328,-4.4479,-4.4496,-4.453,-4.3775,-4.3375,-4.3341,-4.276,-4.2709,-4.3335,-4.4028,-4.4462,-4.4479,-4.4423,-4.4502,-4.444,-4.3439,-4.2078,-4.0972,-4.0612,-4.0489,-4.0489,-4.0336,-4.0259,-4.0197,-3.9702,-3.9392,-3.9225,-3.8503,-3.7884,-3.7428,-3.7315,-3.7375,-3.724,-3.6806,-3.6282,-3.5669,-3.5489,-3.5167,-3.4472,-3.3736,-3.3043,-3.2336,-3.1612,-3.1239,-3.1114,-3.1026,-3.1024,-3.1024,-3.1024,-3.1024,-3.1024,-3.1024,-3.1024,-3.1024,-3.0973,-3.0947,-3.0934,-3.096,-3.0986,-3.1013,-3.1169,-3.1354,-3.1432,-3.1419,-3.1445,-3.13,-3.1562,-3.151,-3.9767,-3.9767,-3.9767,-3.9801,-3.9767,-3.9751,-3.9751,-3.9767,-3.9801,-3.9767,-3.9782,-3.9767,-3.9767,-3.9767,-3.9767,-3.9323,-3.8569,-3.8508,-3.8739,-3.9046,-3.8723,-3.897,-3.969,-3.937,-3.9508,-4.0059,-4.012,-4.0243,-4.0459,-4.0489,-4.0489,-4.0489,-4.0489,-4.0836,-4.1472,-4.1966,-4.2497,-4.2936,-4.3347,-4.3412,-4.3019,-4.3136,-4.3307,-4.3529,-4.3972,-4.4338,-4.457,-4.4598,-4.4598,-4.4598,-4.4299,-4.4164,-4.413,-4.391,-4.3887,-4.4147,-4.4462,-4.4598,-4.4542,-4.4133,-4.4121,-4.444,-4.332,-4.1917,-4.0851,-4.0489,-4.0489,-4.0505,-4.0401,-4.0366,-4.0335,-4.0136,-3.9979,-3.9864,-3.9454,-3.9033,-3.8933,-3.8507,-3.8197,-3.8407,-3.7793,-3.6971,-3.6611,-3.6261,-3.5659,-3.4925,-3.4116,-3.3312,-3.2606,-3.1924,-3.1535,-3.147,-3.1235,-3.1024,-3.1024,-3.1024,-3.1024,-3.1024,-3.1024,-3.1024,-3.1024,-3.1065,-3.1065,-3.1026,-3.1063,-3.1287,-3.1405,-3.1575,-3.1928,-3.2359,-3.2398,-3.2398,-3.2372,-3.2398,-3.2398,-4.0489,-4.0489,-4.0489,-4.0489,-4.0489,-4.0489,-4.0489,-4.0489,-4.0489,-4.0489,-4.0489,-4.0489,-4.0489,-4.0489,-4.0489,-4.0043,-3.9198,-3.917,-3.9367,-3.9736,-3.9385,-3.9613,-4.029,-4.0013,-4.0059,-4.0428,-4.0489,-4.0489,-4.0489,-4.0489,-4.0489,-4.0489,-4.0705,-4.109,-4.1578,-4.2241,-4.2601,-4.2724,-4.3269,-4.329,-4.2734,-4.2976,-4.3121,-4.3276,-4.3885,-4.4367,-4.457,-4.4598,-4.4598,-4.4598,-4.4598,-4.4598,-4.4598,-4.4598,-4.4485,-4.4265,-4.4236,-4.415,-4.3902,-4.3469,-4.3393,-4.3827,-4.3078,-4.1917,-4.0681,-4.0385,-4.0366,-4.0366,-4.0296,-4.0191,-4.0172,-4.0156,-4.0121,-4.0137,-3.991,-3.9768,-3.996,-3.9219,-3.8891,-3.8775,-3.7961,-3.7307,-3.695,-3.6243,-3.548,-3.4799,-3.4159,-3.352,-3.2817,-3.2398,-3.2071,-3.2019,-3.164,-3.1378,-3.1261,-3.1196,-3.1039,-3.0999,-3.1024,-3.1024,-3.1039,-3.113,-3.1182,-3.1168,-3.1364,-3.1627,-3.1862,-3.1967,-3.2359,-3.2842,-3.2986,-3.2986,-3.2986,-3.2986,-3.2986,-4.0489,-4.0489,-4.0489,-4.0489,-4.0489,-4.0489,-4.0489,-4.0489,-4.0489,-4.0489,-4.0489,-4.0489,-4.0489,-4.0489,-4.0489,-4.0443,-4.032,-4.0274,-4.0305,-4.0382,-4.0366,-4.0366,-4.0489,-4.0428,-4.0397,-4.0489,-4.0489,-4.0489,-4.0489,-4.0489,-4.0489,-4.0612,-4.1201,-4.1483,-4.1591,-4.2248,-4.2613,-4.2746,-4.3251,-4.3263,-4.2845,-4.3796,-4.3826,-4.2867,-4.3303,-4.3943,-4.4497,-4.4525,-4.4497,-4.4598,-4.4598,-4.4598,-4.4497,-4.4497,-4.4253,-4.3617,-4.3512,-4.3166,-4.2676,-4.2583,-4.252,-4.2614,-4.2458,-4.1771,-4.0681,-4.0242,-4.0101,-4.0207,-4.0137,-3.9996,-3.996,-3.9839,-3.9803,-3.9925,-3.9803,-3.9768,-3.9818,-3.9625,-3.917,-3.8585,-3.7824,-3.6976,-3.631,-3.5685,-3.4974,-3.4405,-3.402,-3.3697,-3.3093,-3.2803,-3.2685,-3.2646,-3.2346,-3.2019,-3.1718,-3.1418,-3.1196,-3.1026,-3.0999,-3.1037,-3.1091,-3.1182,-3.1326,-3.1378,-3.2032,-3.2372,-3.2921,-3.3038,-3.3012,-3.3352,-3.3443,-3.3574,-3.3574,-3.3574,-3.3587,-4.0489,-4.0489,-4.0489,-4.0489,-4.0489,-4.0489,-4.0489,-4.0489,-4.0489,-4.0489,-4.0489,-4.0489,-4.0489,-4.0489,-4.0489,-4.0489,-4.0489,-4.0489,-4.0489,-4.0489,-4.0489,-4.0489,-4.0489,-4.0489,-4.0489,-4.0489,-4.0489,-4.0489,-4.0489,-4.0489,-4.0489,-4.0628,-4.1263,-4.1586,-4.1663,-4.2263,-4.2602,-4.2674,-4.3271,-4.3482,-4.3362,-4.4161,-4.4139,-4.3402,-4.3885,-4.4179,-4.3885,-4.3839,-4.4105,-4.457,-4.4598,-4.4367,-4.3972,-4.3839,-4.3512,-4.2923,-4.2784,-4.2753,-4.2489,-4.2094,-4.1901,-4.1917,-4.1541,-4.0938,-4.0385,-4.0101,-4.0011,-4.0081,-3.9925,-3.9803,-3.9768,-3.9625,-3.9589,-3.9768,-3.9625,-3.9517,-3.9604,-3.9496,-3.9334,-3.9062,-3.8377,-3.7818,-3.7376,-3.638,-3.5266,-3.4978,-3.4527,-3.4015,-3.3852,-3.3378,-3.3391,-3.3679,-3.3195,-3.2685,-3.2372,-3.2019,-3.1679,-3.1378,-3.1209,-3.105,-3.1091,-3.1431,-3.1548,-3.1967,-3.262,-3.3143,-3.3692,-3.3875,-3.3744,-3.3849,-3.4005,-3.4084,-3.4136,-3.4097,-3.4018,-4.0489,-4.0489,-4.0489,-4.0489,-4.0489,-4.0489,-4.0489,-4.0489,-4.0489,-4.0489,-4.0489,-4.0489,-4.0489,-4.0489,-4.0489,-4.0489,-4.0489,-4.0489,-4.0489,-4.0489,-4.0489,-4.0489,-4.0489,-4.0489,-4.0489,-4.0489,-4.0489,-4.0489,-4.0489,-4.0505,-4.0612,-4.0951,-4.1632,-4.1986,-4.2032,-4.2602,-4.2879,-4.2757,-4.3271,-4.3745,-4.3994,-4.4386,-4.4409,-4.4036,-4.411,-4.3943,-4.3512,-4.3257,-4.3588,-4.4338,-4.4367,-4.3856,-4.3227,-4.3106,-4.2814,-4.2284,-4.2109,-4.2013,-4.1771,-4.1343,-4.1192,-4.1241,-4.0817,-4.0436,-4.0226,-3.9996,-3.9798,-3.9854,-3.9696,-3.9589,-3.9553,-3.9496,-3.9445,-3.9553,-3.9481,-3.9388,-3.9388,-3.9388,-3.9388,-3.9147,-3.8368,-3.7857,-3.7386,-3.6294,-3.5305,-3.5114,-3.4758,-3.4397,-3.4319,-3.3992,-3.4149,-3.4214,-3.394,-3.347,-3.3064,-3.2646,-3.2176,-3.1823,-3.147,-3.1182,-3.1039,-3.1705,-3.2071,-3.2751,-3.3417,-3.3535,-3.4005,-3.4058,-3.4018,-3.4267,-3.4397,-3.4345,-3.428,-3.4319,-3.4267,-4.0489,-4.0489,-4.0489,-4.0489,-4.0489,-4.0489,-4.0489,-4.0489,-4.0489,-4.0489,-4.0489,-4.0489,-4.0489,-4.0489,-4.0489,-4.0489,-4.0489,-4.0489,-4.0489,-4.0489,-4.0489,-4.0489,-4.0489,-4.0489,-4.0489,-4.0489,-4.0489,-4.0489,-4.0489,-4.0505,-4.0828,-4.137,-4.1971,-4.2494,-4.2463,-4.314,-4.311,-4.2772,-4.3263,-4.3929,-4.4478,-4.4603,-4.4535,-4.4497,-4.3926,-4.3512,-4.3287,-4.2892,-4.3169,-4.415,-4.3752,-4.3136,-4.2583,-4.2458,-4.2125,-4.1509,-4.1426,-4.1176,-4.0715,-4.0646,-4.0627,-4.0627,-4.0593,-4.042,-4.0176,-3.9768,-3.9553,-3.9681,-3.9553,-3.9409,-3.9409,-3.9424,-3.9424,-3.9388,-3.9424,-3.9388,-3.9388,-3.9316,-3.9104,-3.8907,-3.7904,-3.6841,-3.6777,-3.5454,-3.4716,-3.4522,-3.4481,-3.4397,-3.4384,-3.428,-3.4358,-3.4332,-3.4241,-3.4058,-3.3587,-3.3156,-3.2764,-3.2555,-3.2084,-3.1627,-3.1352,-3.1954,-3.2594,-3.3313,-3.3888,-3.4018,-3.4123,-3.4175,-3.4241,-3.4345,-3.4397,-3.4397,-3.4397,-3.4397,-3.4356,-4.0489,-4.0489,-4.0489,-4.0489,-4.0489,-4.0489,-4.0489,-4.0489,-4.0489,-4.0489,-4.0489,-4.0489,-4.0489,-4.0489,-4.0489,-4.0489,-4.0489,-4.0489,-4.0489,-4.0489,-4.0489,-4.0489,-4.0489,-4.0489,-4.0489,-4.0489,-4.0489,-4.0489,-4.0489,-4.0489,-4.0628,-4.0797,-4.1571,-4.1909,-4.1971,-4.2586,-4.2771,-4.2709,-4.3241,-4.3689,-4.3965,-4.4364,-4.435,-4.3908,-4.3638,-4.3229,-4.2831,-4.2614,-4.2614,-4.297,-4.2909,-4.2442,-4.1868,-4.1771,-4.1477,-4.0956,-4.0783,-4.0715,-4.0558,-4.0489,-4.0489,-4.0489,-4.0489,-4.0436,-4.0261,-3.9732,-3.9553,-3.9625,-3.9532,-3.9388,-3.9388,-3.9388,-3.9388,-3.9388,-3.9388,-3.9388,-3.9265,-3.8671,-3.8144,-3.7994,-3.6869,-3.6241,-3.5843,-3.5182,-3.4397,-3.4397,-3.4397,-3.4397,-3.4397,-3.4397,-3.4397,-3.4397,-3.4345,-3.4306,-3.4097,-3.3666,-3.3352,-3.3247,-3.2816,-3.2241,-3.2084,-3.228,-3.2881,-3.3496,-3.4005,-3.4241,-3.4293,-3.4345,-3.4397,-3.4397,-3.4397,-3.4397,-3.4397,-3.4397,-3.4285,-4.0489,-4.0489,-4.0489,-4.0489,-4.0489,-4.0489,-4.0489,-4.0489,-4.0489,-4.0489,-4.0489,-4.0489,-4.0489,-4.0489,-4.0489,-4.0489,-4.0489,-4.0489,-4.0489,-4.0489,-4.0489,-4.0489,-4.0489,-4.0489,-4.0489,-4.0489,-4.0489,-4.0489,-4.0489,-4.0489,-4.0659,-4.1047,-4.1386,-4.1724,-4.2109,-4.2371,-4.2756,-4.3017,-4.3424,-4.3728,-4.4066,-4.4113,-4.4006,-4.359,-4.3301,-4.2769,-4.2173,-4.2078,-4.2078,-4.2078,-4.2046,-4.1755,-4.1176,-4.1091,-4.0888,-4.0505,-4.0489,-4.0489,-4.0489,-4.0489,-4.0489,-4.0489,-4.0489,-4.0366,-4.0172,-3.9818,-3.9711,-3.9553,-3.946,-3.9424,-3.9388,-3.9388,-3.9388,-3.9388,-3.9388,-3.9388,-3.9388,-3.8435,-3.7563,-3.6972,-3.6281,-3.5709,-3.5669,-3.4909,-3.4509,-3.4397,-3.4397,-3.4397,-3.4397,-3.4397,-3.4397,-3.4397,-3.4397,-3.4358,-3.4345,-3.4018,-3.3849,-3.3757,-3.3443,-3.2881,-3.2816,-3.2816,-3.3247,-3.3783,-3.4162,-3.4397,-3.4397,-3.4397,-3.4397,-3.4397,-3.4397,-3.4356,-3.4314,-3.4272,-3.416,-4.0489,-4.0489,-4.0489,-4.0489,-4.0489,-4.0489,-4.0489,-4.0489,-4.0489,-4.0489,-4.0489,-4.0489,-4.0489,-4.0489,-4.0489,-4.0489,-4.0489,-4.0489,-4.0489,-4.0536,-4.0612,-4.0705,-4.072,-4.0536,-4.0505,-4.0489,-4.0489,-4.0489,-4.0489,-4.0489,-4.0812,-4.1217,-4.1463,-4.1894,-4.2263,-4.2602,-4.3033,-4.3454,-4.3716,-4.3944,-4.4196,-4.3924,-4.3635,-4.3347,-4.2703,-4.2078,-4.1591,-4.1409,-4.1409,-4.1409,-4.1409,-4.1109,-4.0593,-4.0539,-4.0539,-4.0539,-4.0489,-4.0489,-4.0489,-4.0489,-4.0489,-4.0489,-4.0489,-4.0366,-4.0137,-3.9925,-3.9711,-3.9532,-3.9409,-3.9388,-3.9388,-3.9388,-3.9388,-3.9352,-3.9352,-3.9228,-3.9031,-3.8271,-3.7179,-3.6096,-3.5669,-3.5588,-3.5345,-3.495,-3.4397,-3.4397,-3.4397,-3.4397,-3.4397,-3.4397,-3.4397,-3.4397,-3.4397,-3.4397,-3.4397,-3.4345,-3.4293,-3.4214,-3.3927,-3.3561,-3.3522,-3.3587,-3.3835,-3.4149,-3.4319,-3.4397,-3.4397,-3.4397,-3.4356,-3.4314,-3.4272,-3.4202,-3.4118,-3.4063,-3.3979,-4.0489,-4.0489,-4.0489,-4.0489,-4.0489,-4.0489,-4.0489,-4.0489,-4.0489,-4.0489,-4.0489,-4.0489,-4.0489,-4.0489,-4.0489,-4.0489,-4.0489,-4.0489,-4.0489,-4.0566,-4.1155,-4.134,-4.1247,-4.0843,-4.0551,-4.0582,-4.052,-4.052,-4.0551,-4.0674,-4.0597,-4.0843,-4.1509,-4.1694,-4.1986,-4.291,-4.3439,-4.3685,-4.4086,-4.4068,-4.3785,-4.3643,-4.3213,-4.2787,-4.2104,-4.1407,-4.087,-4.0715,-4.0715,-4.0715,-4.0734,-4.0681,-4.0524,-4.0489,-4.0489,-4.0489,-4.0489,-4.0489,-4.0489,-4.0489,-4.0489,-4.0489,-4.0505,-4.0436,-4.0242,-3.9768,-3.9625,-3.9553,-3.9496,-3.9424,-3.9388,-3.9388,-3.9388,-3.9316,-3.8885,-3.8375,-3.8032,-3.7486,-3.6425,-3.5305,-3.4799,-3.4716,-3.4716,-3.4634,-3.4397,-3.4397,-3.4397,-3.4397,-3.4397,-3.4397,-3.4397,-3.4397,-3.4397,-3.4397,-3.4397,-3.4397,-3.4397,-3.4397,-3.4201,-3.4058,-3.4018,-3.3966,-3.4071,-3.4201,-3.4358,-3.4397,-3.4397,-3.4176,-3.4079,-3.4092,-3.4008,-3.3615,-3.336,-3.3543,-3.3543,-4.0489,-4.0489,-4.0489,-4.0489,-4.0489,-4.0489,-4.0489,-4.0489,-4.0489,-4.0489,-4.0489,-4.0489,-4.0489,-4.0489,-4.0489,-4.0489,-4.0489,-4.0489,-4.0489,-4.0659,-4.1232,-4.1571,-4.1663,-4.1586,-4.1458,-4.1427,-4.117,-4.1186,-4.1401,-4.1463,-4.1586,-4.1474,-4.1894,-4.2309,-4.2494,-4.3254,-4.3747,-4.4009,-4.4055,-4.3824,-4.3235,-4.2807,-4.2318,-4.171,-4.1226,-4.0802,-4.0558,-4.0524,-4.0489,-4.0489,-4.0489,-4.0489,-4.0489,-4.0489,-4.0489,-4.0489,-4.0489,-4.0489,-4.0489,-4.0489,-4.0489,-4.0489,-4.0489,-4.0366,-4.0121,-3.9661,-3.9481,-3.9517,-3.9445,-3.9388,-3.9388,-3.9388,-3.9388,-3.9265,-3.8649,-3.7872,-3.7102,-3.6596,-3.5883,-3.4758,-3.4439,-3.4439,-3.4397,-3.4397,-3.4397,-3.4397,-3.4397,-3.4397,-3.4397,-3.4397,-3.4397,-3.4397,-3.4397,-3.4397,-3.4397,-3.4397,-3.4397,-3.4397,-3.4345,-3.428,-3.4254,-3.4175,-3.411,-3.4212,-3.4314,-3.4397,-3.4356,-3.4079,-3.3547,-3.3292,-3.2993,-3.2636,-3.242,-3.2432,-3.2444,-4.0489,-4.0489,-4.0489,-4.0489,-4.0489,-4.0489,-4.0489,-4.0489,-4.0489,-4.0489,-4.0489,-4.0489,-4.0489,-4.0489,-4.0489,-4.0489,-4.0536,-4.0705,-4.0782,-4.0909,-4.174,-4.2063,-4.2171,-4.2448,-4.274,-4.2771,-4.2109,-4.2078,-4.2355,-4.2602,-4.234,-4.254,-4.2725,-4.2925,-4.3454,-4.3747,-4.3932,-4.4194,-4.387,-4.3254,-4.254,-4.198,-4.141,-4.0809,-4.0639,-4.0593,-4.0505,-4.0489,-4.0489,-4.0489,-4.0489,-4.0489,-4.0489,-4.0489,-4.0489,-4.0489,-4.0489,-4.0489,-4.0489,-4.0489,-4.0489,-4.0489,-4.0489,-4.0331,-4.0031,-3.9661,-3.946,-3.9424,-3.9388,-3.9388,-3.9388,-3.9171,-3.9156,-3.8958,-3.8389,-3.7337,-3.6348,-3.5749,-3.5114,-3.4634,-3.4397,-3.4397,-3.4397,-3.4397,-3.4397,-3.4397,-3.4397,-3.4397,-3.4397,-3.4397,-3.4397,-3.4397,-3.4397,-3.4397,-3.4397,-3.4397,-3.4397,-3.4314,-3.4356,-3.4272,-3.4314,-3.4249,-3.4129,-3.4181,-3.4272,-3.4176,-3.3771,-3.3096,-3.2611,-3.2321,-3.1916,-3.1521,-3.1356,-3.1279,-3.1335,-4.0489,-4.0489,-4.0489,-4.0489,-4.0489,-4.0489,-4.0489,-4.0489,-4.0489,-4.0489,-4.0489,-4.0489,-4.0489,-4.0489,-4.0489,-4.0489,-4.0612,-4.0966,-4.1324,-4.1571,-4.2463,-4.31,-4.3116,-4.3316,-4.3701,-4.3802,-4.3156,-4.2648,-4.2694,-4.2602,-4.2833,-4.2802,-4.3208,-4.3578,-4.3778,-4.4071,-4.4071,-4.387,-4.3531,-4.2869,-4.2048,-4.1586,-4.1217,-4.0566,-4.0489,-4.0489,-4.0489,-4.0489,-4.0489,-4.0489,-4.0489,-4.0489,-4.0489,-4.0489,-4.0489,-4.0489,-4.0489,-4.0489,-4.0489,-4.0489,-4.0489,-4.0489,-4.0489,-4.0331,-3.9996,-3.964,-3.9424,-3.9388,-3.9388,-3.9388,-3.9373,-3.8848,-3.8464,-3.8075,-3.7208,-3.6229,-3.579,-3.5196,-3.4716,-3.4439,-3.4397,-3.4397,-3.4397,-3.4397,-3.4397,-3.4397,-3.4397,-3.4397,-3.4397,-3.4397,-3.4397,-3.4397,-3.4397,-3.4397,-3.4397,-3.4397,-3.4397,-3.423,-3.4189,-3.405,-3.4063,-3.416,-3.4118,-3.3602,-3.3475,-3.3475,-3.2895,-3.2209,-3.1872,-3.1665,-3.1078,-3.0395,-3.0237,-3.0068,-3.0351,-4.0489,-4.0489,-4.0489,-4.0489,-4.0489,-4.0489,-4.0489,-4.0489,-4.0489,-4.0489,-4.0489,-4.0489,-4.0489,-4.0489,-4.0489,-4.0489,-4.0705,-4.1263,-4.1571,-4.1894,-4.2931,-4.3608,-4.3716,-4.3932,-4.4271,-4.4341,-4.3895,-4.3587,-4.3633,-4.3664,-4.3556,-4.371,-4.4024,-4.4117,-4.4071,-4.404,-4.3947,-4.3516,-4.2946,-4.2294,-4.1586,-4.1294,-4.0797,-4.0612,-4.0489,-4.0489,-4.0489,-4.0489,-4.0489,-4.0489,-4.0489,-4.0489,-4.0489,-4.0489,-4.0489,-4.0489,-4.0489,-4.0489,-4.0505,-4.047,-4.0401,-4.0385,-4.0455,-4.0281,-3.991,-3.9604,-3.9424,-3.9388,-3.9388,-3.9228,-3.8775,-3.8389,-3.8023,-3.7438,-3.6413,-3.579,-3.5507,-3.4881,-3.4564,-3.4397,-3.4397,-3.4397,-3.4397,-3.4397,-3.4397,-3.4397,-3.4397,-3.4397,-3.4397,-3.4397,-3.4397,-3.4397,-3.4397,-3.4397,-3.4356,-3.4272,-3.4092,-3.3966,-3.3742,-3.3573,-3.3262,-3.3036,-3.2667,-3.2209,-3.2265,-3.242,-3.2463,-3.1928,-3.1444,-3.0777,-2.9784,-2.8969,-2.8934,-2.8945,-2.9268,-4.0489,-4.0489,-4.0489,-4.0489,-4.0489,-4.0489,-4.0489,-4.0489,-4.0489,-4.0489,-4.0489,-4.0489,-4.0489,-4.0551,-4.0659,-4.0751,-4.0816,-4.1617,-4.2078,-4.2355,-4.33,-4.384,-4.3994,-4.4271,-4.4579,-4.4548,-4.4502,-4.461,-4.444,-4.4402,-4.4548,-4.4471,-4.4548,-4.4502,-4.4286,-4.3886,-4.3593,-4.29,-4.2248,-4.1601,-4.1263,-4.0828,-4.0489,-4.0489,-4.0489,-4.0489,-4.0489,-4.0489,-4.0489,-4.0489,-4.0489,-4.0489,-4.0489,-4.0489,-4.0489,-4.0489,-4.0489,-4.0505,-4.0436,-4.0366,-4.0312,-4.0242,-4.0331,-4.0106,-3.9824,-3.9568,-3.9388,-3.9388,-3.9388,-3.9083,-3.8478,-3.8023,-3.7501,-3.6752,-3.5976,-3.5386,-3.5196,-3.484,-3.4522,-3.4397,-3.4397,-3.4397,-3.4397,-3.4397,-3.4397,-3.4397,-3.4397,-3.4397,-3.4397,-3.4397,-3.4397,-3.4397,-3.4397,-3.4397,-3.4314,-3.4105,-3.3742,-3.3348,-3.295,-3.2593,-3.2103,-3.1565,-3.1288,-3.1086,-3.0843,-3.1,-3.1267,-3.1178,-3.0147,-2.9165,-2.8117,-2.7762,-2.7987,-2.8175,-2.8351,-4.0489,-4.0489,-4.0489,-4.0489,-4.0489,-4.0489,-4.0489,-4.0489,-4.0489,-4.0489,-4.0489,-4.0505,-4.0505,-4.0659,-4.1155,-4.1386,-4.1817,-4.2607,-4.3131,-4.3254,-4.4055,-4.4456,-4.4456,-4.4533,-4.4648,-4.467,-4.4632,-4.461,-4.461,-4.461,-4.4564,-4.4548,-4.4456,-4.4317,-4.3732,-4.3439,-4.3008,-4.2048,-4.1678,-4.1278,-4.0766,-4.0566,-4.0505,-4.0489,-4.0489,-4.0489,-4.0489,-4.0489,-4.0489,-4.0489,-4.0489,-4.0489,-4.0489,-4.0489,-4.0489,-4.0489,-4.0505,-4.047,-4.0381,-4.0277,-4.0207,-4.0117,-4.0066,-3.991,-3.9696,-3.9532,-3.9388,-3.9388,-3.9388,-3.8922,-3.815,-3.7486,-3.6738,-3.5963,-3.5223,-3.4799,-3.4592,-3.4758,-3.4439,-3.4397,-3.4397,-3.4397,-3.4397,-3.4397,-3.4397,-3.4397,-3.4397,-3.4397,-3.4397,-3.4397,-3.4397,-3.4397,-3.4397,-3.4356,-3.4285,-3.4063,-3.3543,-3.2963,-3.2289,-3.1753,-3.1089,-3.0598,-3.0395,-3.0214,-2.9829,-2.9658,-2.9966,-2.9567,-2.8538,-2.8128,-2.7857,-2.7584,-2.7404,-2.7489,-2.7668,-4.0489,-4.0489,-4.0489,-4.0489,-4.0489,-4.0489,-4.0489,-4.0489,-4.0489,-4.0489,-4.0489,-4.0489,-4.0705,-4.1063,-4.1124,-4.1432,-4.2202,-4.3208,-4.3593,-4.3901,-4.4579,-4.491,-4.477,-4.4955,-4.5104,-4.4761,-4.4933,-4.4918,-4.4783,-4.4548,-4.4486,-4.4086,-4.4024,-4.3648,-4.3033,-4.2633,-4.2171,-4.1632,-4.1201,-4.0847,-4.0566,-4.0489,-4.0489,-4.0489,-4.0489,-4.0489,-4.0489,-4.0489,-4.0489,-4.0489,-4.0489,-4.0489,-4.0489,-4.0489,-4.0489,-4.0489,-4.0489,-4.047,-4.0401,-4.0242,-4.0101,-3.996,-3.9818,-3.9589,-3.9517,-3.9445,-3.9388,-3.9388,-3.9388,-3.8797,-3.782,-3.7141,-3.6162,-3.5345,-3.4675,-3.4564,-3.4397,-3.4397,-3.4397,-3.4397,-3.4397,-3.4397,-3.4397,-3.4397,-3.4397,-3.4397,-3.4397,-3.4397,-3.4397,-3.4397,-3.4397,-3.4397,-3.4356,-3.4343,-3.423,-3.4034,-3.3513,-3.2846,-3.1853,-3.119,-3.0215,-2.9715,-2.9429,-2.8969,-2.8445,-2.8398,-2.8702,-2.8481,-2.7904,-2.7904,-2.7951,-2.7584,-2.732,-2.732,-2.7452,-4.0489,-4.0489,-4.0489,-4.0489,-4.0489,-4.0489,-4.0489,-4.0489,-4.0489,-4.0489,-4.0551,-4.0689,-4.114,-4.1555,-4.1555,-4.2186,-4.314,-4.3602,-4.391,-4.4425,-4.4779,-4.4964,-4.4847,-4.5067,-4.5067,-4.461,-4.4971,-4.4868,-4.4483,-4.4286,-4.404,-4.3608,-4.3716,-4.3125,-4.2432,-4.1971,-4.1586,-4.1232,-4.0782,-4.0551,-4.0489,-4.0489,-4.0489,-4.0489,-4.0489,-4.0489,-4.0489,-4.0489,-4.0489,-4.0489,-4.0489,-4.0489,-4.0489,-4.0489,-4.0489,-4.0489,-4.0455,-4.0436,-4.0331,-4.0191,-4.0011,-3.9783,-3.9625,-3.946,-3.9424,-3.9388,-3.9388,-3.9388,-3.9083,-3.8285,-3.7295,-3.6752,-3.5816,-3.5073,-3.4439,-3.4397,-3.4397,-3.4397,-3.4397,-3.4397,-3.4397,-3.4397,-3.4397,-3.4397,-3.4397,-3.4397,-3.4397,-3.4397,-3.4356,-3.4356,-3.4327,-3.4285,-3.4272,-3.4189,-3.4021,-3.3781,-3.33,-3.2643,-3.1601,-3.0609,-2.9635,-2.8724,-2.8164,-2.7668,-2.732,-2.7499,-2.8034,-2.7715,-2.7489,-2.7584,-2.7631,-2.7499,-2.732,-2.732,-2.732,-4.0489,-4.0489,-4.0489,-4.0489,-4.0489,-4.0489,-4.0489,-4.0558,-4.0524,-4.0589,-4.0813,-4.117,-4.1529,-4.1883,-4.2705,-4.3424,-4.4372,-4.4517,-4.4733,-4.4895,-4.501,-4.4787,-4.4754,-4.4761,-4.4768,-4.4571,-4.4763,-4.4431,-4.3809,-4.3685,-4.3639,-4.3593,-4.327,-4.2633,-4.2017,-4.1494,-4.117,-4.0843,-4.0536,-4.0505,-4.0489,-4.0489,-4.0489,-4.0489,-4.0489,-4.0489,-4.0489,-4.0489,-4.0489,-4.0489,-4.0489,-4.0489,-4.0489,-4.0489,-4.0489,-4.0455,-4.0401,-4.0347,-4.0191,-4.0051,-3.9818,-3.9568,-3.9424,-3.9388,-3.9388,-3.9373,-3.9373,-3.9192,-3.8649,-3.7857,-3.6947,-3.6201,-3.5507,-3.484,-3.4397,-3.4397,-3.4397,-3.4397,-3.4397,-3.4397,-3.4397,-3.4397,-3.4397,-3.4397,-3.4397,-3.4397,-3.4314,-3.4285,-3.4285,-3.4285,-3.416,-3.4118,-3.4118,-3.3992,-3.3713,-3.3386,-3.3,-3.2152,-3.1113,-3.0079,-2.9037,-2.8175,-2.7441,-2.7404,-2.732,-2.732,-2.732,-2.7357,-2.7357,-2.7357,-2.7309,-2.7309,-2.732,-2.732,-2.732,-4.0489,-4.0489,-4.0489,-4.0489,-4.0489,-4.0489,-4.0627,-4.0833,-4.0867,-4.1302,-4.1797,-4.1937,-4.2388,-4.3024,-4.3066,-4.3793,-4.4502,-4.461,-4.4841,-4.5041,-4.5018,-4.4926,-4.4924,-4.4803,-4.4902,-4.4273,-4.4318,-4.4008,-4.3085,-4.2987,-4.2648,-4.2509,-4.2432,-4.1801,-4.1181,-4.0966,-4.0751,-4.0643,-4.0489,-4.0489,-4.0489,-4.0489,-4.0489,-4.0489,-4.0489,-4.0489,-4.0489,-4.0489,-4.0489,-4.0489,-4.0489,-4.0489,-4.0489,-4.0489,-4.047,-4.0401,-4.0296,-4.0172,-3.998,-3.9874,-3.9661,-3.9496,-3.9388,-3.9352,-3.9228,-3.8958,-3.8723,-3.8427,-3.791,-3.7078,-3.6294,-3.5856,-3.5426,-3.4716,-3.4397,-3.4397,-3.4397,-3.4397,-3.4397,-3.4397,-3.4397,-3.4397,-3.4397,-3.4397,-3.4397,-3.4397,-3.4285,-3.4202,-3.4202,-3.4118,-3.3992,-3.3907,-3.3865,-3.3611,-3.333,-3.3043,-3.2754,-3.1669,-3.0576,-2.9715,-2.8724,-2.794,-2.7347,-2.7309,-2.732,-2.732,-2.732,-2.732,-2.7309,-2.7309,-2.7309,-2.732,-2.732,-2.732,-2.732,-4.0489,-4.0489,-4.0489,-4.0489,-4.0524,-4.0627,-4.0817,-4.107,-4.1104,-4.1544,-4.2406,-4.2575,-4.3156,-4.377,-4.4101,-4.4186,-4.4863,-4.4941,-4.4949,-4.5041,-4.508,-4.5026,-4.4876,-4.467,-4.4365,-4.383,-4.3635,-4.336,-4.2361,-4.2309,-4.1925,-4.1524,-4.1263,-4.092,-4.072,-4.0489,-4.0489,-4.0489,-4.0489,-4.0489,-4.0489,-4.0489,-4.0489,-4.0489,-4.0489,-4.0489,-4.0489,-4.0489,-4.0489,-4.0489,-4.0489,-4.0489,-4.0489,-4.0455,-4.0401,-4.0296,-4.0156,-3.998,-3.9788,-3.961,-3.9553,-3.9409,-3.9388,-3.9156,-3.8671,-3.8248,-3.8098,-3.7744,-3.7063,-3.632,-3.5629,-3.5426,-3.5114,-3.4439,-3.4397,-3.4397,-3.4397,-3.4397,-3.4397,-3.4397,-3.4397,-3.4397,-3.4397,-3.4397,-3.4397,-3.4356,-3.4243,-3.416,-3.4118,-3.3992,-3.3768,-3.3696,-3.3654,-3.33,-3.2914,-3.2469,-3.1989,-3.1069,-3.0125,-2.9486,-2.8631,-2.7809,-2.7309,-2.7309,-2.732,-2.732,-2.732,-2.732,-2.732,-2.732,-2.732,-2.732,-2.732,-2.732,-2.732,-4.0489,-4.0489,-4.0524,-4.0524,-4.0574,-4.0919,-4.1104,-4.1187,-4.1232,-4.1548,-4.2233,-4.3354,-4.3956,-4.4118,-4.483,-4.5187,-4.5287,-4.5387,-4.5326,-4.5218,-4.4895,-4.4664,-4.4363,-4.4136,-4.3778,-4.3491,-4.3055,-4.2427,-4.1617,-4.1601,-4.1186,-4.0843,-4.0705,-4.0628,-4.0505,-4.0489,-4.0489,-4.0489,-4.0489,-4.0489,-4.0489,-4.0489,-4.0489,-4.0489,-4.0489,-4.0489,-4.0489,-4.0489,-4.0489,-4.0489,-4.0489,-4.0489,-4.0489,-4.0366,-4.0312,-4.0261,-3.9945,-3.9753,-3.9681,-3.9517,-3.9409,-3.9409,-3.9388,-3.8833,-3.7639,-3.7295,-3.7386,-3.6947,-3.6188,-3.5776,-3.5345,-3.4991,-3.4634,-3.4481,-3.4397,-3.4397,-3.4397,-3.4397,-3.4397,-3.4397,-3.4397,-3.4397,-3.4397,-3.4397,-3.4356,-3.4314,-3.4202,-3.4076,-3.3949,-3.3738,-3.3471,-3.3074,-3.2945,-3.2457,-3.2008,-3.1801,-3.1258,-3.0351,-2.9624,-2.9037,-2.8445,-2.7762,-2.7394,-2.7357,-2.732,-2.732,-2.732,-2.732,-2.732,-2.732,-2.732,-2.732,-2.732,-2.732,-2.732,-4.0489,-4.0524,-4.0799,-4.073,-4.0593,-4.0935,-4.1239,-4.1517,-4.1958,-4.2692,-4.3596,-4.4398,-4.4956,-4.5254,-4.5206,-4.5448,-4.5503,-4.5018,-4.4926,-4.4895,-4.4656,-4.4317,-4.3978,-4.3624,-4.3131,-4.2432,-4.194,-4.1586,-4.0893,-4.0955,-4.0812,-4.052,-4.0489,-4.0505,-4.0489,-4.0489,-4.0489,-4.0489,-4.0489,-4.0489,-4.0489,-4.0489,-4.0489,-4.0489,-4.0489,-4.0489,-4.0489,-4.0489,-4.0489,-4.0489,-4.0489,-4.0489,-4.0455,-4.0366,-4.0242,-4.0101,-3.9803,-3.961,-3.9553,-3.9424,-3.9424,-3.9388,-3.9301,-3.8634,-3.7228,-3.6699,-3.6464,-3.6082,-3.5413,-3.5032,-3.4675,-3.4634,-3.4439,-3.4439,-3.4397,-3.4397,-3.4397,-3.4397,-3.4397,-3.4397,-3.4397,-3.4397,-3.4397,-3.4285,-3.4243,-3.4021,-3.3852,-3.3641,-3.3526,-3.327,-3.3013,-3.2382,-3.1977,-3.148,-3.1069,-3.08,-3.026,-2.9349,-2.8899,-2.8538,-2.7987,-2.7536,-2.7452,-2.732,-2.732,-2.732,-2.732,-2.732,-2.732,-2.732,-2.732,-2.732,-2.732,-2.732,-2.732,-4.0574,-4.0715,-4.1003,-4.1021,-4.0935,-4.1156,-4.1516,-4.2094,-4.2966,-4.3876,-4.4476,-4.498,-4.5243,-4.5559,-4.5709,-4.5299,-4.5318,-4.511,-4.4702,-4.4625,-4.4332,-4.4024,-4.3655,-4.3116,-4.2402,-4.1663,-4.1294,-4.0955,-4.0582,-4.052,-4.0505,-4.0505,-4.0489,-4.0489,-4.0489,-4.0489,-4.0489,-4.0489,-4.0489,-4.0489,-4.0489,-4.0489,-4.0489,-4.0489,-4.0489,-4.0489,-4.0489,-4.0489,-4.0489,-4.0489,-4.0489,-4.0505,-4.0436,-4.0261,-4.0101,-3.9925,-3.9696,-3.9538,-3.9445,-3.9424,-3.9388,-3.9388,-3.9388,-3.8234,-3.6621,-3.5682,-3.5454,-3.5114,-3.4675,-3.4522,-3.4439,-3.4397,-3.4397,-3.4397,-3.4397,-3.4397,-3.4397,-3.4397,-3.4397,-3.4397,-3.4397,-3.4397,-3.4356,-3.4202,-3.4118,-3.3768,-3.3471,-3.3215,-3.2902,-3.2513,-3.2164,-3.1536,-3.0991,-3.0576,-3.0125,-2.9761,-2.9119,-2.8351,-2.8128,-2.7998,-2.7773,-2.7404,-2.7357,-2.732,-2.732,-2.732,-2.732,-2.732,-2.732,-2.732,-2.732,-2.732,-2.732,-2.732,-2.732,-4.0749,-4.107,-4.1138,-4.129,-4.1538,-4.1631,-4.2076,-4.2823,-4.4069,-4.4456,-4.4356,-4.5675,-4.5768,-4.5118,-4.595,-4.585,-4.5026,-4.5249,-4.4933,-4.4502,-4.3994,-4.367,-4.3069,-4.2325,-4.1786,-4.1386,-4.0981,-4.0689,-4.0489,-4.0489,-4.0489,-4.0489,-4.0489,-4.0489,-4.0489,-4.0489,-4.0489,-4.0489,-4.0489,-4.0489,-4.0489,-4.0489,-4.0489,-4.0489,-4.0489,-4.0489,-4.0489,-4.0489,-4.0489,-4.0489,-4.0489,-4.0436,-4.0312,-4.0117,-3.9925,-3.9696,-3.9517,-3.9445,-3.9373,-3.9352,-3.9352,-3.9352,-3.9388,-3.7501,-3.5936,-3.5019,-3.4758,-3.4675,-3.4481,-3.4439,-3.4397,-3.4397,-3.4397,-3.4397,-3.4397,-3.4397,-3.4397,-3.4397,-3.4397,-3.4397,-3.4397,-3.4356,-3.4327,-3.416,-3.3907,-3.3471,-3.3031,-3.2227,-3.1833,-3.1247,-3.0857,-3.0453,-2.9943,-2.9624,-2.9211,-2.8806,-2.8491,-2.7809,-2.7678,-2.7547,-2.7367,-2.732,-2.732,-2.732,-2.732,-2.732,-2.732,-2.732,-2.732,-2.732,-2.732,-2.732,-2.732,-2.732,-2.732,-4.0987,-4.1138,-4.1621,-4.1588,-4.1413,-4.2272,-4.2944,-4.35,-4.4354,-4.4739,-4.496,-4.6133,-4.6062,-4.5434,-4.6005,-4.5835,-4.5426,-4.4926,-4.444,-4.3994,-4.3578,-4.2977,-4.234,-4.1771,-4.1309,-4.092,-4.0612,-4.0489,-4.0489,-4.0489,-4.0489,-4.0489,-4.0489,-4.0489,-4.0489,-4.0489,-4.0489,-4.0489,-4.0489,-4.0489,-4.0489,-4.0489,-4.0489,-4.0489,-4.0489,-4.0489,-4.0489,-4.0489,-4.0489,-4.0489,-4.0401,-4.0347,-4.0312,-3.9996,-3.9696,-3.9517,-3.9409,-3.9388,-3.9301,-3.8885,-3.8723,-3.9104,-3.9228,-3.8345,-3.6582,-3.5101,-3.4439,-3.4397,-3.4397,-3.4397,-3.4397,-3.4397,-3.4397,-3.4397,-3.4397,-3.4397,-3.4397,-3.4397,-3.4397,-3.4356,-3.4356,-3.4272,-3.4202,-3.3979,-3.3641,-3.3202,-3.2587,-3.1657,-3.089,-3.0351,-2.9681,-2.9314,-2.9037,-2.8771,-2.8269,-2.7857,-2.7678,-2.7404,-2.7357,-2.732,-2.732,-2.732,-2.732,-2.732,-2.732,-2.732,-2.732,-2.732,-2.732,-2.732,-2.732,-2.732,-2.732,-2.732,-2.732,-4.1205,-4.1357,-4.1883,-4.2026,-4.214,-4.3081,-4.3782,-4.418,-4.4685,-4.5217,-4.5886,-4.6667,-4.6467,-4.5789,-4.6253,-4.6151,-4.5118,-4.4433,-4.3978,-4.3716,-4.3116,-4.2386,-4.1755,-4.1309,-4.094,-4.0597,-4.0489,-4.0489,-4.0489,-4.0489,-4.0489,-4.0489,-4.0489,-4.0489,-4.0489,-4.0489,-4.0489,-4.0489,-4.0489,-4.0489,-4.0489,-4.0489,-4.0489,-4.0489,-4.0489,-4.0489,-4.0489,-4.0489,-4.0489,-4.0505,-4.0366,-4.0242,-4.0137,-3.9803,-3.9589,-3.9409,-3.9424,-3.9388,-3.928,-3.8664,-3.8449,-3.836,-3.8397,-3.7372,-3.6267,-3.4827,-3.4509,-3.4397,-3.4397,-3.4397,-3.4397,-3.4397,-3.4397,-3.4397,-3.4397,-3.4397,-3.4397,-3.4397,-3.4356,-3.4285,-3.423,-3.4105,-3.3979,-3.3713,-3.3416,-3.3031,-3.2183,-3.1024,-3.0351,-2.9806,-2.8991,-2.8315,-2.8128,-2.7951,-2.7499,-2.732,-2.7309,-2.7357,-2.7309,-2.732,-2.732,-2.732,-2.732,-2.732,-2.732,-2.732,-2.732,-2.732,-2.732,-2.732,-2.732,-2.732,-2.732,-2.732,-2.732,-4.1339,-4.167,-4.2044,-4.267,-4.3391,-4.4061,-4.4575,-4.4942,-4.5368,-4.5892,-4.6707,-4.715,-4.6733,-4.6083,-4.6585,-4.5941,-4.4862,-4.3994,-4.3516,-4.3424,-4.2386,-4.1663,-4.1294,-4.0893,-4.0659,-4.0536,-4.0489,-4.0489,-4.0489,-4.0489,-4.0489,-4.0489,-4.0489,-4.0489,-4.0489,-4.0489,-4.0489,-4.0489,-4.0489,-4.0489,-4.0489,-4.0489,-4.0489,-4.0489,-4.0489,-4.0489,-4.0489,-4.0489,-4.0489,-4.047,-4.0331,-4.0187,-3.9889,-3.964,-3.9445,-3.9409,-3.9388,-3.9388,-3.9119,-3.8449,-3.7706,-3.7256,-3.6777,-3.6042,-3.5142,-3.4675,-3.4439,-3.4397,-3.4397,-3.4397,-3.4397,-3.4397,-3.4397,-3.4397,-3.4397,-3.4397,-3.4397,-3.4314,-3.4189,-3.4118,-3.4063,-3.3937,-3.3641,-3.3373,-3.2846,-3.263,-3.1833,-3.0531,-2.9818,-2.9268,-2.8538,-2.7678,-2.7631,-2.7584,-2.7452,-2.732,-2.732,-2.732,-2.732,-2.732,-2.732,-2.732,-2.732,-2.732,-2.732,-2.732,-2.732,-2.732,-2.732,-2.732,-2.732,-2.732,-2.732,-2.732,-2.732,-4.1687,-4.2044,-4.2669,-4.3506,-4.4428,-4.487,-4.569,-4.665,-4.6821,-4.6861,-4.6913,-4.7338,-4.7087,-4.6266,-4.6554,-4.5794,-4.4198,-4.3485,-4.2925,-4.2417,-4.1648,-4.1232,-4.0874,-4.0643,-4.0489,-4.0489,-4.0489,-4.0489,-4.0489,-4.0489,-4.0489,-4.0489,-4.0489,-4.0489,-4.0489,-4.0489,-4.0489,-4.0489,-4.0489,-4.0489,-4.0489,-4.0489,-4.0489,-4.0489,-4.0489,-4.0489,-4.0489,-4.0489,-4.0489,-4.047,-4.0207,-3.994,-3.9568,-3.946,-3.9424,-3.9388,-3.9388,-3.9352,-3.8922,-3.8159,-3.7295,-3.6582,-3.5949,-3.5101,-3.4564,-3.4439,-3.4397,-3.4397,-3.4397,-3.4397,-3.4397,-3.4397,-3.4397,-3.4397,-3.4397,-3.4397,-3.4397,-3.4189,-3.3992,-3.3937,-3.3852,-3.3598,-3.3288,-3.2846,-3.237,-3.1745,-3.0979,-3.0079,-2.936,-2.8771,-2.8315,-2.7584,-2.7452,-2.7357,-2.732,-2.732,-2.732,-2.732,-2.732,-2.732,-2.732,-2.732,-2.732,-2.732,-2.732,-2.732,-2.732,-2.732,-2.732,-2.732,-2.732,-2.732,-2.732,-2.732,-2.732,-4.1785,-4.2205,-4.3041,-4.4154,-4.519,-4.5592,-4.6381,-4.7269,-4.7829,-4.7829,-4.7622,-4.7834,-4.7397,-4.6291,-4.6339,-4.5389,-4.3658,-4.2931,-4.2355,-4.174,-4.1232,-4.0909,-4.0612,-4.0489,-4.0489,-4.0489,-4.0489,-4.0489,-4.0489,-4.0489,-4.0489,-4.0489,-4.0489,-4.0489,-4.0489,-4.0489,-4.0489,-4.0489,-4.0489,-4.0489,-4.0489,-4.0489,-4.0489,-4.0489,-4.0489,-4.0489,-4.0489,-4.0489,-4.0489,-4.0401,-4.0207,-3.9818,-3.9532,-3.9424,-3.9388,-3.9388,-3.9352,-3.9228,-3.8634,-3.7805,-3.6894,-3.6346,-3.5372,-3.4551,-3.4481,-3.4397,-3.4397,-3.4397,-3.4397,-3.4397,-3.4397,-3.4397,-3.4397,-3.4397,-3.4356,-3.4356,-3.423,-3.4021,-3.381,-3.3641,-3.333,-3.2673,-3.2283,-3.1601,-3.1158,-3.089,-3.0125,-2.9589,-2.891,-2.8362,-2.7904,-2.7536,-2.7404,-2.732,-2.732,-2.732,-2.732,-2.732,-2.732,-2.732,-2.732,-2.732,-2.732,-2.732,-2.732,-2.732,-2.732,-2.732,-2.732,-2.732,-2.732,-2.732,-2.732,-2.732,-2.732,-4.1931,-4.243,-4.3525,-4.4641,-4.5738,-4.6317,-4.6893,-4.7531,-4.8358,-4.8602,-4.8201,-4.8062,-4.7257,-4.6465,-4.5678,-4.4522,-4.3437,-4.2412,-4.1724,-4.1278,-4.0812,-4.0643,-4.0566,-4.0489,-4.0489,-4.0489,-4.0489,-4.0489,-4.0489,-4.0489,-4.0489,-4.0489,-4.0489,-4.0489,-4.0489,-4.0489,-4.0489,-4.0489,-4.0489,-4.0489,-4.0489,-4.0489,-4.0489,-4.0489,-4.0489,-4.0489,-4.0489,-4.0489,-4.0489,-4.0366,-4.0156,-3.9803,-3.9532,-3.9388,-3.9388,-3.9388,-3.9119,-3.8811,-3.8225,-3.7295,-3.6869,-3.6346,-3.5101,-3.4468,-3.4397,-3.4397,-3.4397,-3.4397,-3.4397,-3.4397,-3.4397,-3.4397,-3.4397,-3.4397,-3.4356,-3.4301,-3.4105,-3.381,-3.3513,-3.33,-3.2643,-3.1933,-3.1214,-3.0576,-3.0079,-2.9806,-2.9395,-2.891,-2.8409,-2.7998,-2.7584,-2.7452,-2.7357,-2.732,-2.732,-2.732,-2.732,-2.732,-2.732,-2.732,-2.732,-2.732,-2.732,-2.732,-2.732,-2.732,-2.732,-2.732,-2.732,-2.732,-2.732,-2.732,-2.732,-2.732,-2.732,-4.2542,-4.3509,-4.4835,-4.5429,-4.5658,-4.6988,-4.7706,-4.7797,-4.8307,-4.8318,-4.7717,-4.6745,-4.6029,-4.5793,-4.4877,-4.3702,-4.2402,-4.1617,-4.117,-4.0674,-4.0597,-4.0536,-4.0489,-4.0489,-4.0489,-4.0489,-4.0489,-4.0489,-4.0489,-4.0489,-4.0489,-4.0489,-4.0489,-4.0489,-4.0489,-4.0489,-4.0489,-4.0489,-4.0489,-4.0489,-4.0489,-4.0489,-4.0489,-4.0489,-4.0489,-4.0489,-4.0489,-4.0489,-4.0489,-4.0401,-4.0156,-3.9818,-3.9568,-3.9388,-3.9352,-3.9083,-3.8848,-3.8315,-3.763,-3.6727,-3.632,-3.6016,-3.4991,-3.4439,-3.4397,-3.4397,-3.4397,-3.4397,-3.4397,-3.4397,-3.4397,-3.4397,-3.4397,-3.4397,-3.4397,-3.423,-3.4063,-3.3513,-3.3099,-3.2599,-3.1977,-3.1214,-3.0441,-2.9761,-2.9084,-2.8771,-2.8362,-2.7914,-2.7867,-2.7547,-2.732,-2.732,-2.732,-2.732,-2.732,-2.732,-2.732,-2.732,-2.732,-2.732,-2.732,-2.732,-2.732,-2.732,-2.732,-2.732,-2.732,-2.732,-2.732,-2.732,-2.732,-2.732,-2.732,-2.7272,-2.7177]},{"header":{"parameterUnit":"m.s-1","parameterCategory":1,"la1":31.0,"la2":29.5877,"lo1":-88.7671,"lo2":-86.6584,"dx":0.0162,"dy":0.0185,"nx":115,"ny":88,"refTime":"2023-01-06T18:00:00:Z","depth":0,"parameterNumber":3,"parameterNumberName":"V-component_of_WINDS"},"data":[0.0,0.0,0.0,0.0,0.0,0.0,0.0,0.0,0.0,0.0,0.0,0.0,0.0,0.0,0.0,0.0,0.0,0.0,0.0,0.0,0.0,0.0,0.0,0.0,0.0,0.0,0.0,0.0,0.0,0.0,0.0,0.0,0.0,0.0,0.0,0.0,0.0,0.0,0.0,0.0,0.0,0.0,0.0,0.0,0.0,0.0,0.0,0.0,0.0,0.0,0.0,0.0,0.0,0.0,0.0,0.0,0.0,0.0,0.0,0.0,0.0,0.0,0.0,0.0,0.0,0.0,0.0,0.0,0.0,0.0,0.0,0.0,0.0,0.0,0.0,0.0,0.0,0.0,0.0,0.0,0.0,0.0,0.0,0.0,0.0,0.0,0.0,0.0,0.0,0.0,0.0,0.0,0.0,0.0,0.0,0.0,0.0,0.0,0.0,0.0,0.0,0.0,0.0,0.0,0.0,0.0,0.0,0.0,0.0,0.0,0.0,0.0,0.0,0.0,0.0,0.0,0.0,0.0,0.0,0.0,0.0,0.0,0.0,0.0,0.0,0.0,0.0,0.0,0.0,0.0,0.0,0.0,0.0,0.0,0.0,0.0,0.0,0.0,0.0,0.0,0.0,0.0,0.0,0.0,0.0,0.0,0.0,0.0,0.0,0.0,0.0,0.0,0.0,0.0,0.0,0.0,0.0,0.0,0.0,0.0,0.0,0.0,0.0,0.0,0.0,0.0,0.0,0.0,0.0,0.0,0.0,0.0,0.0,0.0,0.0,0.0,0.0,0.0,0.0,0.0,0.0,0.0,0.0,0.0,0.0,0.0,0.0,0.0,0.0,0.0,0.0,0.0,0.0,0.0,0.0,0.0,0.0,0.0,0.0,0.0,0.0,0.0,0.0,0.0,0.0,0.0,0.0,0.0,0.0,0.0,0.0,0.0,0.0,0.0,0.0,0.0,0.0,0.0,0.0,0.0,0.0,0.0,0.0,0.0,0.0,0.0,0.0,0.0,0.0,0.0,0.0,0.0,0.0,0.0,0.0,0.0,0.0,0.0,0.0,0.0,0.0,0.0,0.0,0.0,0.0,0.0,0.0,0.0,0.0,0.0,0.0,0.0,0.0,0.0,0.0,0.0,0.0,0.0,0.0,0.0,0.0,0.0,0.0,0.0,0.0,0.0,0.0,0.0,0.0,0.0,0.0,0.0,0.0,0.0,0.0,0.0,0.0,0.0,0.0,0.0,0.0,0.0,0.0,0.0,0.0,0.0,0.0,0.0,0.0,0.0,0.0,0.0,0.0,0.0,0.0,0.0,0.0,0.0,0.0,0.0,0.0,0.0,0.0,0.0,0.0,0.0,0.0,0.0,0.0,0.0,0.0,0.0,0.0,0.0,0.0,0.0,0.0,0.0,0.0,0.0,0.0,0.0,0.0,0.0,0.0,0.0,0.0,0.0,0.0,0.0,0.0,0.0,0.0,0.0,0.0,0.0,0.0,0.0,0.0,0.0,0.0,0.0,0.0,0.0,0.0,0.0,0.0,0.0,0.0,0.0,0.0,0.0,0.0,0.0,0.0,0.0,0.0,0.0,0.0,0.0,0.0,0.0,0.0,0.0,0.0,0.0,0.0,0.0,0.0,0.0,0.0,0.0,0.0,0.0,0.0,0.0,0.0,0.0,0.0,0.0,0.0,0.0,0.0,0.0,0.0,0.0,0.0,0.0,0.0,0.0,0.0,0.0,0.0,0.0,0.0,0.0,0.0,0.0,0.0,0.0,0.0,0.0,0.0,0.0,0.0,0.0,0.0,0.0,0.0,0.0,0.0,0.0,0.0,0.0,0.0,0.0,0.0,0.0,0.0,0.0,0.0,0.0,0.0,0.0,0.0,0.0,0.0,0.0,0.0,0.0,0.0,0.0,0.0,0.0,0.0,0.0,0.0,0.0,0.0,0.0,0.0,0.0,0.0,0.0,0.0,0.0,0.0,0.0,0.0,0.0,0.0,0.0,0.0,0.0,0.0,0.0,0.0,0.0,0.0,0.0,0.0,0.0,0.0,0.0,0.0,0.0,0.0,0.0,0.0,0.0,0.0,0.0,0.0,0.0,0.0,0.0,0.0,0.0,0.0,0.0,0.0,0.0,0.0,0.0,0.0,0.0,0.0,0.0,0.0,0.0,0.0,0.0,0.0,0.0,0.0,0.0,0.0,0.0,0.0,0.0,0.0,0.0,0.0,0.0,0.0,0.0,0.0,0.0,0.0,0.0,0.0,0.0,0.0,0.0,0.0,0.0,0.0,0.0,0.0,0.0,0.0,0.0,0.0,0.0,0.0,0.0,0.0,0.0,0.0,0.0,0.0,0.0,0.0,0.0,0.0,0.0,0.0,0.0,0.0,0.0,0.0,0.0,0.0,0.0,0.0,0.0,0.0,0.0,0.0,0.0,0.0,0.0,0.0,0.0,0.0,0.0,0.0,0.0,0.0,0.0,0.0,0.0,0.0,0.0,0.0,0.0,0.0,0.0,0.0,0.0,0.0,0.0,0.0,0.0,0.0,0.0,0.0,0.0,0.0,0.0,0.0,0.0,0.0,0.0,0.0,0.0,0.0,0.0,0.0,0.0,0.0,0.0,0.0,0.0,0.0,0.0,0.0,0.0,0.0,0.0,0.0,0.0,0.0,0.0,0.0,0.0,0.0,0.0,0.0,0.0,0.0,0.0,0.0,0.0,0.0,0.0,0.0,0.0,0.0,0.0,0.0,0.0,0.0,0.0,0.0,0.0,0.0,0.0,0.0,0.0,0.0,0.0,0.0,0.0,0.0,0.0,0.0,0.0,0.0,0.0,0.0,0.0,0.0,0.0,0.0,0.0,0.0,0.0,0.0,0.0,0.0,0.0,0.0,0.0,0.0,0.0,0.0,0.0,0.0,0.0,0.0,0.0,0.0,0.0,0.0,0.0,0.0,0.0,0.0,0.0,0.0,0.0,0.0,0.0,0.0,0.0,0.0,0.0,0.0,0.0,0.0,0.0,0.0,0.0,0.0,0.0,0.0,0.0,0.0,0.0,0.0,0.0,0.0,0.0,0.0,0.0,0.0,0.0,0.0,0.0,0.0,0.0,0.0,0.0,0.0,0.0,0.0,0.0,0.0,0.0,0.0,0.0,0.0,0.0,0.0,0.0,0.0,0.0,0.0,0.0,0.0,0.0,0.0,0.0,0.0,0.0,0.0,0.0,0.0,0.0,0.0,0.0,0.0,0.0,0.0,0.0,0.0,0.0,0.0,0.0,0.0,0.0,0.0,0.0,0.0,0.0,0.0,0.0,0.0,0.0,0.0,0.0,0.0,0.0,0.0,0.0,0.0,0.0,0.0,0.0,0.0,0.0,0.0,0.0,0.0,0.0,0.0,0.0,0.0,0.0,0.0,0.0,0.0,0.0,0.0,0.0,0.0,0.0,0.0,0.0,0.0,0.0,0.0,0.0,0.0,0.0,0.0,0.0,0.0,0.0,0.0,0.0,0.0,0.0,0.0,0.0,0.0,0.0,0.0,0.0,0.0,0.0,0.0,0.0,0.0,0.0,0.0,0.0,0.0,0.0,0.0,0.0,0.0,0.0,0.0,0.0,0.0,0.0,0.0,0.0,0.0,0.0,0.0,0.0,0.0,0.0,0.0,0.0,0.0,0.0,0.0,0.0,0.0,0.0,0.0,0.0,0.0,0.0,0.0,0.0,0.0,0.0,0.0,0.0,0.0,0.0,0.0,0.0,0.0,0.0,0.0,0.0,0.0,0.0,0.0,0.0,0.0,0.0,0.0,0.0,0.0,0.0,0.0,0.0,0.0,0.0,0.0,0.0,0.0,0.0,0.0,0.0,0.0,0.0,0.0,0.0,0.0,0.0,0.0,0.0,0.0,0.0,0.0,0.0,0.0,0.0,0.0,0.0,0.0,0.0,0.0,0.0,0.0,0.0,0.0,0.0,0.0,0.0,0.0,0.0,0.0,0.0,0.0,0.0,0.0,0.0,0.0,0.0,0.0,0.0,0.0,0.0,0.0,0.0,0.0,0.0,0.0,0.0,0.0,0.0,0.0,0.0,0.0,0.0,0.0,0.0,0.0,0.0,0.0,0.0,0.0,0.0,0.0,0.0,0.0,0.0,0.0,0.0,0.0,0.0,0.0,0.0,0.0,0.0,0.0,0.0,0.0,0.0,0.0,0.0,0.0,0.0,0.0,0.0,0.0,0.0,0.0,0.0,0.0,0.0,0.0,0.0,0.8954,0.0,0.0,0.0,0.8779,0.0,0.0,0.0,0.0,0.0,0.0,0.0,0.0,0.0,0.0,0.0,0.0,0.0,0.0,0.0,0.0,0.0,0.0,0.0,0.0,0.0,0.0,0.0,0.0,0.0,0.0,0.0,0.0,0.0,0.0,0.0,0.0,0.0,0.0,0.0,0.0,0.0,0.0,0.0,0.0,0.0,0.0,0.0,0.0,0.0,0.0,0.0,0.0,0.0,0.0,0.0,0.0,0.0,0.0,0.0,0.0,0.0,0.0,0.0,0.0,0.0,0.0,0.0,0.0,0.0,0.0,0.0,0.0,0.0,0.0,0.0,0.0,0.0,0.0,0.0,0.0,0.0,0.0,0.0,0.0,0.0,0.0,0.0,0.0,0.0,0.0,0.0,0.0,0.0,0.0,0.0,0.0,0.0,0.0,0.0,0.0,0.0,0.0,0.0,0.0,0.0,0.0,0.0,0.0,0.0,0.0,0.0,0.0,0.0,0.0,0.9018,0.8216,0.9824,1.0037,0.868,0.0,0.0,0.0,0.0,0.0,0.0,0.0,0.0,0.0,0.0,0.0,0.0,0.0,0.0,0.0,0.0,0.0,0.0,0.0,0.0,0.0,0.0,0.0,0.0,0.0,0.0,0.0,0.0,0.0,0.0,0.0,0.0,0.0,0.0,0.0,0.0,0.0,0.0,0.0,0.0,0.0,0.0,0.0,0.0,0.0,0.0,0.0,0.0,0.0,0.0,0.0,0.0,0.0,0.0,0.0,0.0,0.0,0.0,0.0,0.0,0.0,0.0,0.0,0.0,0.0,0.0,0.0,0.0,0.0,0.0,0.0,0.0,0.0,0.0,0.0,0.0,0.0,0.0,0.0,0.0,0.0,0.0,0.0,0.0,0.0,0.0,0.0,0.0,0.0,0.0,0.0,0.0,0.0,0.0,0.0,0.0,0.0,0.0,0.0,0.0,0.0,0.0,0.0,0.0,0.0,0.0,0.0,0.0,0.0,0.0,0.0,0.0,1.0522,1.0838,0.9576,0.0,0.0,0.0,0.0,0.0,0.0,0.0,0.0,0.0,0.0,0.0,0.0,0.0,0.0,0.0,0.0,0.0,0.0,0.0,0.0,0.0,0.0,0.0,0.0,0.0,0.0,0.0,0.0,0.0,0.0,0.0,0.0,0.0,0.0,0.0,0.0,0.0,0.0,0.0,0.0,0.0,0.0,0.0,0.0,0.0,0.0,0.0,0.0,0.0,0.0,0.0,0.0,0.0,0.0,0.0,0.0,0.0,0.0,0.0,0.0,0.0,0.0,0.0,0.0,0.0,0.0,0.0,0.0,0.0,0.0,0.0,0.0,0.0,0.0,0.0,0.0,0.0,0.0,0.0,0.0,0.0,0.0,0.0,0.0,0.0,0.0,0.0,0.0,0.0,0.0,0.0,0.0,0.0,0.0,0.0,0.0,0.0,0.0,0.0,0.0,0.0,0.0,0.0,0.0,0.0,0.0,0.0,0.0,0.0,0.0,0.9252,1.0443,1.142,0.0,1.206,0.0,0.0,0.0,0.0,0.0,0.0,0.0,0.0,0.0,0.0,0.0,0.0,0.0,0.0,0.0,0.0,0.0,0.0,0.0,0.0,0.0,0.0,0.0,0.0,0.0,0.0,0.0,0.0,0.0,0.0,0.0,0.0,0.0,0.0,0.0,0.0,0.0,0.0,0.0,0.0,0.0,0.0,0.0,0.0,0.0,0.0,0.0,0.0,0.0,0.0,0.0,0.0,0.0,0.0,0.0,0.0,0.0,0.0,0.0,0.0,0.0,0.0,0.0,0.0,0.0,0.0,0.0,0.0,0.0,0.0,0.0,0.0,0.0,0.0,0.0,0.0,0.0,0.0,0.0,0.0,0.0,0.0,0.0,0.0,0.0,0.0,0.0,0.0,0.0,0.0,0.0,0.0,0.0,0.0,0.0,0.0,0.0,0.0,0.0,0.0,0.0,0.0,0.0,0.0,0.0,0.0,0.0,0.0,0.0,0.0,0.946,1.0898,1.164,1.1821,0.0,0.0,0.0,0.0,0.0,0.0,0.0,0.0,0.0,0.0,0.0,0.0,0.0,0.0,0.0,0.0,0.0,0.0,0.0,0.0,0.0,0.0,0.0,0.0,0.0,0.0,0.0,0.0,0.0,0.0,0.0,0.0,0.0,0.0,0.0,0.0,0.0,0.0,0.0,0.0,0.0,0.0,0.0,0.0,0.0,0.0,0.0,0.0,0.0,0.0,0.0,0.0,0.0,0.0,0.0,0.0,0.0,0.0,0.0,0.0,0.0,0.0,0.0,0.0,0.0,0.0,0.0,0.0,0.0,0.0,0.0,0.0,0.0,0.0,0.0,0.0,0.0,0.0,0.0,0.0,0.0,0.0,0.0,0.0,0.0,0.0,0.0,0.0,0.0,0.0,0.0,0.0,0.0,0.0,0.0,0.0,0.0,0.0,0.0,0.0,0.0,0.0,0.0,0.0,0.0,0.0,0.0,0.0,0.0,0.0,0.9489,1.041,1.2019,1.2118,1.181,1.1182,0.0,0.0,0.0,0.0,0.0,0.0,0.0,0.0,0.0,0.0,0.0,0.0,0.0,0.0,0.0,0.0,0.0,0.0,0.0,0.0,0.0,0.0,0.0,0.0,0.0,0.0,0.0,0.0,0.0,0.0,0.0,0.0,0.0,0.0,0.0,0.0,0.0,0.0,0.0,0.0,0.0,0.0,0.0,0.0,0.0,0.0,0.0,0.0,0.0,0.0,0.0,0.0,0.0,0.0,0.0,0.0,0.0,0.0,0.0,0.0,0.0,0.0,0.0,0.0,0.0,0.0,0.0,0.0,0.0,0.0,0.0,0.0,0.0,0.0,0.0,0.0,0.0,0.0,0.0,0.0,0.0,0.0,0.0,0.0,0.0,0.0,0.0,0.0,0.0,0.0,0.0,0.0,0.0,0.0,0.0,0.0,0.0,0.0,0.0,0.0,0.0,0.0,0.0,0.0,0.0,0.0,0.0,0.0,1.1892,1.1585,1.2436,1.455,1.3215,1.2375,0.0,0.0,0.0,0.0,0.0,0.0,0.0,0.0,0.0,0.0,0.0,0.0,0.0,0.0,0.0,0.0,0.0,0.0,0.0,0.0,0.0,0.0,0.0,0.0,0.0,0.0,0.0,0.0,0.0,0.0,0.0,0.0,0.0,0.0,0.0,0.0,0.0,0.0,0.0,0.0,0.0,0.0,0.0,0.0,0.0,0.0,0.0,0.0,0.0,0.0,0.0,0.0,0.0,0.0,0.0,0.0,0.0,0.0,0.0,0.0,0.0,0.0,0.0,0.0,0.0,0.0,0.0,0.0,0.0,0.0,0.0,0.0,0.0,0.0,0.0,0.0,0.0,0.0,0.0,0.0,0.0,0.0,0.0,0.0,0.0,0.0,0.0,0.0,0.0,0.0,0.0,0.0,0.0,0.0,0.0,0.0,0.0,0.0,0.0,0.0,0.0,0.0,0.0,0.0,0.0,0.0,0.0,0.0,0.0,0.9911,1.1156,1.251,1.3901,1.2962,1.2563,0.0,0.0,0.0,0.0,0.0,0.0,0.0,0.0,0.0,0.0,0.0,0.0,0.0,0.0,0.0,0.0,0.0,0.0,0.0,0.0,0.0,0.0,0.0,0.0,0.0,0.0,0.0,0.0,0.0,0.0,0.0,0.0,0.0,0.0,0.0,0.0,0.0,0.0,0.0,0.0,0.0,0.0,0.0,0.0,0.0,0.0,0.0,0.0,0.0,0.0,0.0,0.0,0.0,0.0,0.0,0.0,0.0,0.0,0.0,0.0,0.0,0.0,0.0,0.0,0.0,0.0,0.0,0.0,0.0,0.0,0.0,0.0,0.0,0.0,0.0,0.0,0.0,0.0,0.0,0.0,0.0,0.0,0.0,0.0,0.0,0.0,0.0,0.0,0.0,0.0,0.0,0.0,0.0,0.0,0.0,0.0,0.0,0.0,0.0,0.0,0.0,0.0,0.0,0.0,0.0,0.0,0.0,0.0,0.0,1.0468,1.2437,1.3629,1.3875,1.3119,1.25,0.0,0.0,0.0,0.0,0.0,0.0,0.0,0.0,0.0,0.0,0.0,0.0,0.0,0.0,0.0,0.0,0.0,0.0,0.0,0.0,0.0,0.0,0.0,0.0,0.0,0.0,0.0,0.0,0.0,0.0,0.0,0.0,0.0,0.0,0.0,0.0,0.0,0.0,0.0,0.0,0.0,0.0,0.0,0.0,0.0,0.0,0.0,0.0,0.0,0.0,0.0,0.0,0.0,0.0,0.0,0.0,0.0,0.0,0.0,0.0,0.0,0.0,0.0,0.0,0.0,0.0,0.0,0.0,0.0,0.0,0.0,0.0,0.0,0.0,0.0,0.0,0.0,0.0,0.0,0.0,0.0,0.0,0.0,0.0,0.0,0.0,0.0,0.0,0.0,0.0,0.0,0.0,0.0,0.0,0.0,0.0,0.0,0.0,0.0,0.0,0.0,0.0,0.0,0.0,0.0,0.0,0.0,0.0,1.0496,1.4082,1.5584,1.5782,1.4915,1.3742,1.2187,0.0,0.0,0.0,0.0,0.0,0.0,0.0,0.0,0.0,0.0,0.0,0.0,0.0,0.0,0.0,0.0,0.0,0.0,0.0,0.0,0.0,0.0,0.0,0.0,0.0,0.0,0.0,0.0,0.0,0.0,0.0,0.0,0.0,0.0,0.0,0.0,0.0,0.0,0.0,0.0,0.0,0.0,0.0,0.0,0.0,0.0,0.0,0.0,0.0,0.0,0.0,0.0,0.0,0.0,0.0,0.0,0.0,0.0,0.0,0.0,0.0,0.0,0.0,0.0,0.0,0.0,0.0,0.0,0.0,0.0,0.0,0.0,0.0,0.0,0.0,0.0,0.0,0.0,0.0,0.0,0.0,0.0,0.0,0.0,0.0,0.0,0.0,0.0,0.0,0.0,0.0,0.0,0.0,0.0,0.0,0.0,0.0,0.0,0.0,0.0,0.0,0.0,0.0,0.0,0.0,0.0,0.0,0.0,0.0,1.1103,1.3889,1.5251,1.4871,1.3486,1.2948,0.0,0.0,0.0,0.0,0.0,0.0,0.0,0.0,0.0,0.0,0.0,0.0,0.0,0.0,0.0,0.0,0.0,0.0,0.0,0.0,0.0,0.0,0.0,0.0,0.0,0.0,0.0,0.0,0.0,0.0,0.0,0.0,0.0,0.0,0.0,0.0,0.0,0.0,0.0,0.0,0.0,0.0,0.0,0.0,0.0,0.0,0.0,0.0,0.0,0.0,0.0,0.0,0.0,0.0,0.0,0.0,0.0,0.0,0.0,0.0,0.0,0.0,0.0,0.0,0.0,0.0,0.0,0.0,0.0,0.0,0.0,0.0,0.0,0.0,0.0,0.0,0.0,0.0,0.0,0.0,0.0,0.0,0.0,0.0,0.0,0.0,0.0,0.0,0.0,0.0,0.0,0.0,0.0,0.0,0.0,0.0,0.0,0.0,0.0,0.0,0.0,0.0,0.0,0.0,0.0,0.0,0.0,0.0,0.0,1.1745,1.4944,1.6443,1.5839,1.426,1.3631,1.3986,0.0,0.0,0.0,0.0,0.0,0.0,0.0,0.0,0.0,0.0,0.0,0.0,0.0,0.0,0.0,0.0,0.0,0.0,0.0,0.0,0.0,0.0,0.0,0.0,0.0,0.0,0.0,0.0,0.0,0.0,0.0,0.0,0.0,0.0,0.0,0.0,0.0,0.0,0.0,0.0,0.0,0.0,0.0,0.0,0.0,0.0,0.0,0.0,0.0,0.0,0.0,0.0,0.0,0.0,0.0,0.0,0.0,0.0,0.0,0.0,0.0,0.0,0.0,0.0,0.0,0.0,0.0,0.0,0.0,0.0,0.0,0.0,0.0,0.0,0.0,0.0,0.0,0.0,0.0,0.0,0.0,0.0,0.0,0.0,0.0,0.0,0.0,0.0,0.0,0.0,0.0,0.0,0.0,0.0,0.0,0.0,0.0,0.0,0.0,0.0,0.0,0.0,0.0,0.0,0.0,0.0,0.0,0.0,1.5041,1.8188,1.9056,1.7478,1.584,1.4301,0.0,0.0,0.0,0.0,0.0,0.0,0.0,0.0,0.0,0.0,0.0,0.0,0.0,0.0,0.0,0.0,0.0,0.0,0.0,0.0,0.0,0.0,0.0,0.0,0.0,0.0,0.0,0.0,0.0,0.0,0.0,0.0,0.0,0.0,0.0,0.0,0.0,0.0,0.0,0.0,0.0,0.0,0.0,0.0,0.0,0.0,0.0,0.0,0.0,0.0,0.0,0.0,0.0,0.0,0.0,0.0,0.0,0.0,0.0,0.0,0.0,0.0,0.0,0.0,0.0,0.0,0.0,0.0,0.0,0.0,0.0,0.0,0.0,0.0,0.0,0.0,0.0,0.0,0.0,0.0,0.0,0.0,0.0,0.0,0.0,0.0,0.0,0.0,0.0,0.0,0.0,0.0,0.0,0.0,0.0,0.0,0.0,0.0,0.0,0.0,0.0,0.0,0.0,0.0,0.0,0.0,0.0,0.0,0.0,1.6779,1.9238,1.9749,1.8105,1.6236,1.5283,0.0,0.0,0.0,0.0,0.0,0.0,0.0,0.0,0.0,0.0,0.0,0.0,0.0,0.0,0.0,0.0,0.0,0.0,0.0,0.0,0.0,0.0,0.0,0.0,0.0,0.0,0.0,0.0,0.0,0.0,0.0,0.0,0.0,0.0,0.0,0.0,0.0,0.0,0.0,0.0,0.0,0.0,0.0,0.0,0.0,0.0,0.0,0.0,0.0,0.0,0.0,0.0,0.0,0.0,0.0,0.0,0.0,0.0,0.0,0.0,0.0,0.0,0.0,0.0,0.0,0.0,0.0,0.0,0.0,0.0,0.0,0.0,0.0,0.0,0.0,0.0,0.0,0.0,0.0,0.0,0.0,0.0,0.0,0.0,0.0,0.0,0.0,0.0,0.0,0.0,0.0,0.0,0.0,0.0,0.0,0.0,0.0,0.0,0.0,0.0,0.0,0.0,0.0,0.0,0.0,0.0,0.0,0.0,1.604,1.8342,2.0051,2.051,1.9741,1.7976,1.681,0.0,0.0,0.0,0.0,0.0,0.0,0.0,0.0,0.0,0.0,0.0,0.0,0.0,0.0,0.0,0.0,0.0,0.0,0.0,0.0,0.0,0.0,0.0,0.0,0.0,0.0,0.0,0.0,0.0,0.0,0.0,0.0,0.0,0.0,0.0,0.0,0.0,0.0,0.0,0.0,0.0,0.0,0.0,0.0,0.0,0.0,0.0,0.0,0.0,0.0,0.0,0.0,0.0,0.0,0.0,0.0,0.0,0.0,0.0,0.0,0.0,0.0,0.0,0.0,0.0,0.0,0.0,0.0,0.0,0.0,0.0,0.0,0.0,0.0,0.0,0.0,0.0,0.0,0.0,0.0,0.0,0.0,0.0,0.0,0.0,0.0,0.0,0.0,0.0,0.0,0.0,0.0,0.0,0.0,0.0,0.0,0.0,0.0,0.0,0.0,0.0,0.0,0.0,0.0,0.0,0.0,0.0,0.0,1.6669,1.971,2.0633,2.1283,2.1631,2.0222,1.8509,0.0,0.0,0.0,0.0,0.0,0.0,0.0,0.0,0.0,0.0,0.0,0.0,0.0,0.0,0.0,0.0,0.0,0.0,0.0,0.0,0.0,0.0,0.0,0.0,0.0,0.0,0.0,0.0,0.0,0.0,0.0,0.0,0.0,0.0,0.0,0.0,0.0,0.0,0.0,0.0,0.0,0.0,0.0,0.0,0.0,0.0,0.0,0.0,0.0,0.0,0.0,0.0,0.0,0.0,0.0,0.0,0.0,0.0,0.0,0.0,0.0,0.0,0.0,0.0,0.0,0.0,0.0,0.0,0.0,0.0,0.0,0.0,0.0,0.0,0.0,0.0,0.0,0.0,0.0,0.0,0.0,0.0,0.0,0.0,0.0,0.0,0.0,0.0,0.0,0.0,0.0,0.0,0.0,0.0,0.0,0.0,0.0,0.0,0.0,0.0,0.0,0.0,0.0,0.0,0.0,0.0,0.0,0.0,1.7838,1.9749,2.0953,2.1592,2.1697,2.0308,1.8884,0.0,0.0,0.0,0.0,0.0,0.0,0.0,0.0,0.0,0.0,0.0,0.0,0.0,0.0,0.0,0.0,0.0,0.0,0.0,0.0,0.0,0.0,0.0,0.0,0.0,0.0,0.0,0.0,0.0,0.0,0.0,0.0,0.0,0.0,0.0,0.0,0.0,0.0,0.0,0.0,0.0,0.0,0.0,0.0,0.0,0.0,0.0,0.0,1.5157,0.0,0.0,0.0,0.0,0.0,0.0,0.0,0.0,0.0,0.0,0.0,0.0,0.0,0.0,0.0,0.0,0.0,0.0,0.0,0.0,0.0,0.0,0.0,0.0,0.0,0.0,0.0,0.0,0.0,0.0,0.0,0.0,0.0,0.0,0.0,0.0,0.0,0.0,0.0,0.0,0.0,0.0,0.0,0.0,0.0,0.0,0.0,0.0,0.0,0.0,0.0,0.0,0.0,0.0,0.0,0.0,0.0,0.0,0.0,1.8555,2.0202,2.1772,2.2432,2.2138,2.1991,2.0602,0.0,0.0,0.0,0.0,0.0,0.0,0.0,0.0,0.0,0.0,0.0,0.0,0.0,0.0,0.0,0.0,0.0,0.0,0.0,0.0,0.0,0.0,0.0,0.0,0.0,0.0,0.0,0.0,0.0,0.0,0.0,0.0,0.0,0.0,0.0,0.0,0.0,0.0,0.0,0.0,0.0,0.0,0.0,0.0,0.0,0.0,0.0,0.0,0.0,0.0,0.0,0.0,0.0,0.0,0.0,0.0,0.0,0.0,0.0,0.0,0.0,0.0,0.0,0.0,0.0,0.0,0.0,0.0,0.0,0.0,0.0,0.0,0.0,0.0,0.0,0.0,0.0,0.0,0.0,0.0,0.0,0.0,0.0,0.0,0.0,0.0,0.0,0.0,0.0,0.0,0.0,0.0,0.0,0.0,0.0,0.0,0.0,0.0,0.0,0.0,0.0,0.0,0.0,0.0,0.0,0.0,0.0,1.7021,1.9095,2.0917,2.2681,2.3365,2.2939,2.3985,2.2497,1.8072,0.0,0.0,0.0,0.0,0.0,0.0,0.0,0.0,0.0,0.0,0.0,0.0,0.0,0.0,0.0,0.0,0.0,0.0,0.0,0.0,0.0,0.0,0.0,0.0,0.0,0.0,0.0,0.0,0.0,0.0,0.0,0.0,0.0,0.0,0.0,0.0,0.0,0.0,1.2746,1.4358,0.0,0.0,0.0,0.0,0.0,0.0,0.0,0.0,1.5391,0.0,0.0,0.0,0.0,0.0,0.0,0.0,0.0,0.0,0.0,0.0,0.0,0.0,0.0,0.0,0.0,0.0,0.0,0.0,0.0,0.0,0.0,0.0,0.0,0.0,0.0,0.0,0.0,0.0,0.0,0.0,0.0,0.0,0.0,0.0,0.0,0.0,0.0,0.0,0.0,0.0,0.0,0.0,0.0,0.0,0.0,0.0,0.0,0.0,0.0,0.0,0.0,0.0,0.0,0.0,0.0,1.7451,1.7978,1.9482,2.2059,2.3106,2.3777,2.4166,2.4458,2.2691,1.8807,0.0,0.0,0.0,0.0,0.0,0.0,0.0,0.0,0.0,0.0,0.0,0.0,0.0,0.0,0.0,0.0,0.0,0.0,0.0,0.0,0.0,0.0,0.0,0.0,0.0,0.0,0.0,0.0,0.0,0.0,0.0,0.0,0.0,0.0,0.0,0.0,0.0,0.0,0.0,1.8018,1.867,0.0,0.0,0.0,0.0,0.0,0.0,0.0,0.0,1.5944,0.0,0.0,0.0,0.0,0.0,0.0,0.0,0.0,0.0,0.0,0.0,0.0,0.0,0.0,0.0,0.0,0.0,0.0,0.0,0.0,0.0,0.0,0.0,0.0,0.0,0.0,0.0,0.0,0.0,0.0,0.0,0.0,0.0,0.0,0.0,0.0,0.0,0.0,0.0,0.0,0.0,0.0,0.0,0.0,0.0,0.0,0.0,0.0,0.0,0.0,0.0,0.0,0.0,0.0,0.0,1.681,1.8882,2.0858,2.2769,2.3879,2.4602,2.4912,2.5316,2.3367,0.0,0.0,0.0,0.0,0.0,0.0,0.0,0.0,0.0,0.0,0.0,0.0,0.0,0.0,0.0,0.0,0.0,0.0,0.0,0.0,0.0,0.0,0.0,0.0,0.0,0.0,0.0,0.0,0.0,0.0,0.0,0.0,0.0,0.0,0.0,0.0,0.0,0.0,0.0,0.0,1.8229,1.8968,1.9678,0.0,0.0,0.0,0.0,0.0,0.0,1.6981,1.598,0.0,0.0,0.0,0.0,0.0,0.0,0.0,0.0,0.0,0.0,0.0,0.0,0.0,0.0,0.0,0.0,0.0,0.0,0.0,0.0,0.0,0.0,0.0,0.0,0.0,0.0,0.0,0.0,0.0,0.0,0.0,0.0,0.0,0.0,0.0,0.0,0.0,0.0,0.0,0.0,0.0,0.0,0.0,0.0,0.0,0.0,0.0,0.0,0.0,0.0,0.0,0.0,0.0,0.0,0.0,1.5894,1.9359,2.1946,2.3499,2.4651,2.5341,2.5647,2.6107,2.3993,0.0,0.0,0.0,0.0,0.0,0.0,0.0,0.0,0.0,0.0,0.0,0.0,0.0,0.0,0.0,0.0,0.0,0.0,0.0,0.0,0.0,0.0,0.0,0.0,0.0,0.0,0.0,0.0,0.0,0.0,0.0,0.0,0.0,0.0,0.0,0.0,0.0,0.0,0.0,0.0,0.0,1.8858,1.9888,1.9501,0.0,0.0,0.0,0.0,1.9431,1.7961,0.0,0.0,0.0,0.0,0.0,0.0,0.0,0.0,0.0,0.0,0.0,0.0,0.0,0.0,0.0,0.0,0.0,0.0,0.0,0.0,0.0,0.0,0.0,0.0,0.0,0.0,0.0,0.0,0.0,0.0,0.0,0.0,0.0,0.0,0.0,0.0,0.0,0.0,0.0,0.0,0.0,0.0,0.0,0.0,0.0,0.0,0.0,0.0,0.0,0.0,0.0,0.0,0.0,0.0,0.0,0.0,1.635,1.8769,2.1559,2.4608,2.5064,2.57,2.6742,2.6432,2.4087,0.0,0.0,0.0,0.0,0.0,0.0,0.0,0.0,0.0,0.0,0.0,0.0,0.0,0.0,0.0,0.0,0.0,0.0,0.0,0.0,0.0,0.0,0.0,0.0,0.0,0.0,0.0,0.0,0.0,0.0,0.0,0.0,0.0,0.0,0.0,0.0,0.0,0.0,0.0,0.0,0.0,1.9669,1.9586,1.9372,1.9072,0.0,0.0,2.0058,2.1216,2.1254,0.0,0.0,0.0,0.0,0.0,0.0,0.0,0.0,0.0,0.0,0.0,0.0,0.0,0.0,0.0,0.0,0.0,0.0,0.0,0.0,0.0,0.0,0.0,0.0,0.0,0.0,0.0,0.0,0.0,0.0,0.0,0.0,0.0,0.0,0.0,0.0,0.0,0.0,0.0,0.0,0.0,0.0,0.0,0.0,0.0,0.0,0.0,0.0,0.0,0.0,0.0,0.0,0.0,0.0,0.0,1.4001,1.634,1.9366,2.2201,2.4728,2.4867,2.5591,2.6963,2.6777,2.4399,0.0,0.0,0.0,0.0,0.0,0.0,0.0,0.0,0.0,0.0,0.0,0.0,0.0,0.0,0.0,0.0,0.0,0.0,0.0,0.0,0.0,0.0,0.0,0.0,0.0,0.0,0.0,0.0,0.0,0.0,0.0,0.0,0.0,0.0,0.0,0.0,0.0,0.0,0.0,0.0,0.0,0.0,2.04,2.0,0.0,0.0,0.0,2.0944,2.1497,0.0,0.0,0.0,0.0,0.0,0.0,0.0,0.0,0.0,0.0,0.0,0.0,0.0,0.0,0.0,0.0,0.0,0.0,0.0,0.0,0.0,0.0,0.0,0.0,0.0,0.0,0.0,0.0,0.0,0.0,0.0,0.0,0.0,0.0,0.0,0.0,0.0,0.0,0.0,0.0,0.0,0.0,0.0,0.0,0.0,0.0,0.0,0.0,0.0,0.0,0.0,0.0,0.0,0.0,0.0,0.0,0.0,1.6225,2.0045,2.2833,2.4427,2.4456,2.5134,2.6433,2.6633,0.0,0.0,0.0,0.0,0.0,0.0,0.0,0.0,0.0,0.0,0.0,0.0,0.0,0.0,0.0,0.0,0.0,0.0,0.0,0.0,0.0,0.0,0.0,0.0,0.0,0.0,0.0,0.8978,0.0,0.0,0.0,0.0,0.0,0.0,0.0,0.0,0.0,0.0,0.0,0.0,0.0,0.0,1.8465,2.0762,2.06,2.0677,0.0,0.0,2.1606,2.2,2.1941,2.1285,0.0,0.0,0.0,0.0,0.0,0.0,0.0,0.0,0.0,0.0,0.0,0.0,0.0,0.0,0.0,0.0,0.0,0.0,0.0,0.0,0.0,0.0,0.0,0.0,0.0,0.0,0.0,0.0,0.0,0.0,0.0,0.0,0.0,0.0,0.0,0.0,0.0,0.0,0.0,0.0,0.0,0.0,0.0,0.0,0.0,0.0,0.0,0.0,0.0,0.0,0.0,0.0,0.0,0.0,1.5097,1.6286,2.0441,2.3027,2.3816,2.3846,2.4266,2.5105,2.5688,2.36,0.0,0.0,0.0,0.0,0.0,0.0,0.0,0.0,0.0,0.0,0.0,0.0,0.0,0.0,0.0,0.0,0.0,0.0,0.0,0.0,0.0,0.0,0.0,0.0,0.0,0.0,0.0,0.0,0.0,0.0,0.0,0.0,0.0,0.0,0.0,0.0,0.0,0.0,0.0,0.0,0.0,1.833,2.003,2.0769,2.1274,0.0,2.2011,2.2519,2.3417,2.3989,2.3073,1.9296,0.0,0.0,0.0,0.0,0.0,0.0,0.0,0.0,0.0,0.0,0.0,0.0,0.0,0.0,0.0,0.0,0.0,0.0,0.0,0.0,0.0,0.0,0.0,0.0,0.0,0.0,0.0,0.0,0.0,0.0,0.0,0.0,0.0,0.0,0.0,0.0,0.0,0.0,0.0,0.0,0.0,0.0,0.0,0.0,0.0,0.0,0.0,0.0,0.0,0.0,0.0,0.0,0.0,1.4931,1.5983,2.02,2.2805,2.3636,2.3653,2.4092,2.4979,2.5578,2.4212,0.0,0.0,0.0,0.0,0.0,0.0,0.0,0.0,0.0,0.0,0.0,0.0,0.0,0.0,0.0,0.0,0.0,0.0,0.0,0.0,0.0,0.0,0.0,0.0,0.0,0.0,0.0,0.0,1.3468,1.5615,1.9295,0.0,0.0,0.0,0.0,0.0,0.0,0.0,0.0,0.0,0.0,1.9534,2.1094,2.1145,0.0,0.0,2.3241,2.3807,2.4241,2.3731,2.2672,2.0846,1.9502,0.0,0.0,0.0,0.0,0.0,0.0,0.0,0.0,0.0,0.0,0.0,0.0,0.0,0.0,0.0,0.0,0.0,0.0,0.0,0.0,0.0,0.0,0.0,0.0,0.0,0.0,0.0,0.0,0.0,0.0,0.0,0.0,0.0,0.0,0.0,0.0,0.0,0.0,0.0,0.0,0.0,0.0,0.0,0.0,0.0,0.0,0.0,0.0,0.0,0.0,0.0,0.0,1.4955,1.5826,2.0189,2.2775,2.3485,2.3546,2.388,2.4588,2.5264,2.4298,0.0,0.0,0.0,0.0,0.0,0.0,0.0,0.0,0.0,0.0,0.0,0.0,0.0,0.0,0.0,0.0,0.0,0.0,0.0,0.0,0.0,0.0,0.0,0.0,0.0,0.0,0.0,0.0,1.3587,1.5236,1.9128,0.0,0.0,0.0,0.0,0.0,0.0,0.0,0.0,0.0,0.0,2.0614,2.2117,2.1875,2.183,2.2571,2.291,2.3155,2.3346,2.2886,2.223,2.1317,0.0,0.0,0.0,0.0,0.0,0.0,0.0,0.0,0.0,0.0,0.0,0.0,0.0,0.0,0.0,0.0,0.0,0.0,0.0,0.0,0.0,0.0,0.0,0.0,0.0,0.0,0.0,0.9509,0.0,0.0,0.951,0.0,0.0,0.0,0.0,0.0,0.0,0.0,0.0,0.0,0.0,0.0,0.0,0.0,0.0,0.0,0.0,0.0,0.0,0.0,0.0,0.0,0.0,1.5305,1.5852,2.0538,2.3083,2.323,2.3401,2.359,2.3766,2.4515,2.3464,2.0373,0.0,0.0,0.0,0.0,0.0,0.0,0.0,0.0,0.0,0.0,0.0,0.0,0.0,0.0,0.0,0.0,0.0,0.0,0.0,0.0,0.0,0.0,0.0,0.0,0.0,0.0,0.895,0.834,0.9753,0.0,0.0,0.0,0.0,0.0,0.0,0.0,0.0,0.0,1.9171,2.0289,2.1282,2.2832,2.3045,2.259,2.1504,2.0586,2.0092,2.0457,2.1653,2.1921,0.0,0.0,0.0,0.0,0.0,0.0,0.0,0.0,0.0,0.0,0.0,0.0,0.0,0.0,0.0,0.0,0.0,0.0,0.0,0.0,0.0,0.0,0.0,0.0,0.0,0.0,0.0,1.2282,1.1656,0.0,0.0,0.0,0.0,0.0,0.0,0.0,0.0,0.0,0.0,0.0,1.5862,1.6895,0.0,0.0,0.0,0.0,0.0,0.0,0.0,0.0,0.0,0.0,0.0,0.0,1.5454,1.6511,2.1079,2.3594,2.3713,2.3811,2.3908,2.4025,2.446,2.3282,2.0323,0.0,0.0,0.0,0.0,0.0,0.0,0.0,0.0,0.0,0.0,0.0,0.0,0.0,0.0,0.0,0.0,0.0,0.0,0.0,0.0,0.0,0.0,0.0,0.0,0.0,1.149,0.0,0.0,0.0,0.0,0.0,0.0,0.0,0.0,0.0,0.0,1.5965,1.8366,1.9635,2.1255,2.2481,2.3032,2.3095,2.3088,0.0,0.0,0.0,0.0,0.0,0.0,0.0,0.0,0.0,0.0,0.0,0.0,0.0,0.0,2.07,1.6456,1.5132,1.4657,1.4657,0.0,0.0,0.0,0.0,0.0,0.0,0.0,0.0,0.0,0.0,0.0,0.0,0.0,0.0,1.4578,1.3824,1.3768,0.0,0.0,0.0,0.0,0.0,0.0,0.0,0.0,1.7063,1.8024,1.8072,1.9107,1.9143,1.8326,1.7748,1.6606,0.0,0.0,0.0,0.0,0.0,0.0,0.0,0.0,1.6367,1.8085,2.1981,2.4092,2.4147,2.4259,2.4326,2.4401,2.4318,2.3385,2.1458,2.0546,1.931,0.0,0.0,0.0,0.0,0.0,0.0,0.0,0.0,0.0,0.0,0.0,0.0,0.0,0.0,0.0,0.0,0.0,0.0,0.0,0.0,0.0,0.0,0.0,1.2601,0.0,0.0,0.0,0.0,0.0,0.0,0.0,0.0,0.0,1.4732,1.7827,2.0313,2.0891,2.2368,2.3409,2.3409,0.0,0.0,0.0,0.0,0.0,0.0,0.0,2.1821,2.2773,2.1336,2.0149,2.0511,2.2212,2.3245,2.2337,0.0,0.0,1.9682,1.8369,1.7897,1.7897,1.8147,1.827,1.7849,1.8618,1.9059,0.0,0.0,0.0,0.0,1.4581,0.0,0.0,0.0,1.6514,1.6445,0.0,1.5977,0.0,0.0,0.0,0.0,1.3304,1.5556,0.0,0.0,2.1067,2.2185,2.2185,2.2185,2.2474,2.2895,2.1392,2.067,2.0454,1.7063,0.0,0.0,0.0,0.0,0.0,0.0,1.8013,2.0555,2.3207,2.4544,2.459,2.4786,2.4842,2.4803,2.4156,2.3734,2.3642,2.1309,1.9673,1.9033,1.5159,0.0,0.0,0.0,0.0,0.0,0.0,0.0,0.0,0.0,0.0,0.0,0.0,0.0,0.0,0.0,0.0,0.0,0.0,0.0,0.0,1.3198,0.0,0.0,0.0,0.0,0.0,0.0,0.0,0.0,0.0,1.9271,1.779,1.9522,2.1395,2.2869,0.0,0.0,0.0,0.0,2.4173,2.4117,2.3609,2.312,2.2598,2.2904,2.3434,2.4096,0.0,0.0,2.3424,2.4708,2.518,2.2754,2.4007,2.5261,2.5134,2.3392,2.2196,2.2167,2.2088,2.2162,2.2293,2.3064,2.4018,2.1381,0.0,0.0,0.0,0.0,1.8342,1.9125,2.0244,2.0373,1.9914,1.9089,1.9089,0.0,0.0,0.0,0.0,0.0,0.0,1.8977,2.0157,2.1163,2.2221,2.3336,2.3348,2.3433,2.3553,2.3119,2.2903,2.2843,2.1801,1.8277,1.2595,0.0,0.0,0.0,0.0,2.0009,2.1272,2.4121,2.5648,2.5636,2.6082,2.5985,2.5399,2.4786,2.4336,2.4062,2.3127,2.1782,2.0051,1.8218,0.0,0.0,0.0,0.0,0.0,0.0,0.0,0.0,0.0,0.0,0.0,0.0,0.0,0.0,0.0,0.0,0.0,0.0,0.0,1.0499,1.3241,1.4412,0.0,0.0,0.0,0.0,0.0,0.0,0.0,0.0,0.0,2.149,2.2723,2.3514,0.0,0.0,2.4707,2.3521,2.4073,2.4908,2.5649,2.6276,0.0,2.541,2.4425,2.427,2.5724,2.6652,2.6854,2.5879,2.6192,2.6308,2.5567,2.5926,2.6331,2.6283,2.5199,2.4268,2.4171,2.4145,2.3941,2.3592,2.3844,2.3983,2.4523,2.234,2.1143,2.0886,2.129,2.1602,2.2349,2.336,2.3534,2.3158,2.2358,2.2371,2.1212,1.9222,1.8586,0.0,0.0,0.0,2.0844,2.1879,2.2216,2.2879,2.377,2.3806,2.3902,2.4037,2.3436,2.358,2.4362,2.3544,2.0832,1.634,0.0,1.7291,1.6558,1.964,2.1897,2.328,2.5336,2.643,2.6393,2.6729,2.6551,2.5804,2.5364,2.491,2.4475,2.4099,2.3189,2.1683,2.03,1.8746,0.0,0.0,0.0,0.0,0.0,0.0,0.0,0.0,0.0,0.0,0.0,0.7062,0.8139,0.0,0.0,0.0,1.2436,1.301,1.4136,1.6323,0.0,0.0,0.0,0.0,0.0,0.0,0.0,2.0826,2.2598,2.3728,2.4048,2.4908,2.5222,2.4544,2.531,2.5573,2.4582,0.0,2.6113,2.6738,2.767,2.7984,2.6977,2.5762,2.5403,2.6485,2.7497,2.7985,2.7648,2.7576,2.7488,2.7329,2.72,2.7084,2.6849,2.6177,2.5719,2.5719,2.5683,2.5492,2.5118,2.5063,2.4883,2.6806,2.6658,2.4625,2.3827,2.4027,2.4769,2.5193,2.5408,2.5816,2.5767,2.5389,2.5421,2.4369,2.2408,2.0976,0.0,2.2002,2.2355,2.3004,2.3926,2.3926,2.3926,2.3938,2.3974,2.4169,2.452,2.3159,2.3496,2.5204,2.346,2.227,2.1837,2.1361,2.1494,2.2173,2.2438,2.3749,2.6117,2.6669,2.697,2.7018,2.6982,2.6717,2.6238,2.5864,2.5473,2.4976,2.4539,2.41,2.3617,2.1753,2.0256,1.9255,0.0,0.0,0.0,0.0,0.0,0.0,0.0,0.0,0.0,0.0,0.0,0.0,0.0,0.0,1.4563,1.7522,0.0,2.1099,2.0955,0.0,0.0,0.0,1.8155,1.7955,2.0125,2.1669,2.1794,0.0,0.0,2.5737,2.6185,2.6537,2.6612,2.66,2.6524,2.6436,2.7077,2.7618,2.7469,2.8147,2.836,2.7517,2.687,2.6532,2.6671,2.7805,2.8568,2.8538,2.8608,2.8477,2.81,2.7911,2.7623,2.7041,2.6994,2.6965,2.6965,2.6849,2.675,2.6573,2.6491,2.6291,2.6973,2.6901,2.6388,2.5914,2.5498,2.5682,2.5581,2.5262,2.537,2.5339,2.5275,2.5686,2.5559,2.5065,2.4758,2.4525,2.4464,2.5012,2.5124,2.4962,2.4939,2.4939,2.4963,2.5348,2.5396,2.5131,2.5168,2.5432,2.5877,2.5408,2.5324,2.5565,2.5492,2.4338,2.2366,2.459,2.6069,2.6693,2.7234,2.769,2.8114,2.7702,2.7438,2.7344,2.6827,2.6527,2.6395,2.5669,2.5203,2.5056,2.3932,2.3256,2.3114,1.871,0.0,0.0,0.0,0.0,0.0,0.0,0.0,0.0,0.0,0.7889,1.0836,0.0,1.4501,0.0,2.0254,2.1338,1.9221,2.0388,0.0,0.0,1.9708,1.9871,2.2504,2.2742,2.3183,2.4481,2.5619,2.6449,2.6841,2.6675,2.6813,2.757,2.7379,2.6813,2.6034,2.7379,2.8448,2.8499,2.8574,2.8511,2.797,2.7544,2.7083,2.6639,2.7697,2.8446,2.7951,2.834,2.868,2.8564,2.852,2.839,2.8258,2.8244,2.8229,2.8186,2.7488,2.6633,2.6218,2.6166,2.5948,2.7007,2.7007,2.7007,2.6647,2.6083,2.633,2.6265,2.6005,2.5985,2.5972,2.6005,2.6324,2.644,2.6434,2.6503,2.6211,2.5741,2.6061,2.5886,2.5312,2.5312,2.5432,2.5661,2.5949,2.6081,2.6057,2.6297,2.6478,2.6466,2.6429,2.6622,2.691,2.7138,2.6369,2.4807,2.6369,2.7006,2.6574,2.7522,2.821,2.8498,2.7814,2.7103,2.6284,2.6127,2.5692,2.4918,2.5121,2.4602,2.3267,2.3079,2.2884,2.2542,1.9944,1.9018,0.0,0.0,0.0,0.0,0.0,0.0,0.0,0.0,0.0,0.0,0.0,1.7701,1.7101,2.0565,2.2059,2.0083,2.1944,2.3384,2.3529,2.2815,2.3158,2.5178,2.4918,2.5096,2.6361,2.67,2.7065,2.757,2.7394,2.7406,2.8021,2.7833,2.7419,2.6967,2.7896,2.8674,2.8574,2.8348,2.8084,2.7783,2.7867,2.7814,2.7586,2.855,2.9351,2.9009,2.9261,2.9552,2.9552,2.9319,2.9073,2.8971,2.884,2.8709,2.8607,2.8157,2.757,2.7238,2.7127,2.7016,2.6803,2.679,2.6769,2.653,2.6117,2.6598,2.6803,2.679,2.679,2.6837,2.6905,2.6837,2.6824,2.6905,2.679,2.6517,2.6082,2.6082,2.5804,2.5312,2.5384,2.5648,2.6093,2.6238,2.6526,2.6898,2.697,2.7006,2.6994,2.6994,2.703,2.7114,2.7486,2.7618,2.7524,2.7546,2.7186,2.643,2.7669,2.8242,2.8079,2.737,2.6171,2.4554,2.4847,2.4381,2.2963,2.4101,2.3602,2.1029,2.1496,2.1478,2.0714,2.0794,2.0592,0.0,1.966,0.0,0.0,0.0,0.0,0.0,0.0,0.0,0.0,2.0526,1.994,1.6621,2.0062,2.2446,2.2499,2.4455,2.5977,2.6534,2.6666,2.6688,2.6603,2.664,2.6927,2.753,2.7492,2.7582,2.8009,2.8109,2.8109,2.8109,2.8084,2.8072,2.821,2.8486,2.8649,2.8323,2.7921,2.7706,2.7485,2.7897,2.8298,2.846,2.9383,3.0433,3.0329,3.045,3.0569,3.0525,3.0089,2.9697,2.9493,2.9217,2.9014,2.9043,2.8999,2.884,2.8594,2.8522,2.8694,2.5616,2.5629,2.5616,2.5558,2.5488,2.5594,2.5616,2.5629,2.5629,2.5908,2.6324,2.5838,2.5908,2.6289,2.5826,2.5558,2.5476,2.5488,2.5418,2.5324,2.5745,2.5997,2.6154,2.7007,2.721,2.6934,2.7368,2.7534,2.7534,2.7534,2.7789,2.8198,2.7846,2.7284,2.6478,0.0,0.0,0.0,2.7474,2.6731,2.584,2.5893,2.5313,2.4097,2.5091,0.0,2.5165,2.5022,2.4708,2.4131,2.3528,0.0,0.0,0.0,0.0,0.0,0.0,0.0,0.0,0.0,0.0,0.0,1.7329,1.6876,1.9656,2.1185,2.1233,1.9551,2.1633,2.3733,2.5193,2.5883,2.6589,2.7225,2.7602,2.761,2.7179,2.7487,2.7745,2.7605,2.7783,2.7996,2.8122,2.8109,2.8134,2.8172,2.8122,2.8298,2.8725,2.8787,2.8976,2.9315,2.8586,2.7869,2.7392,2.7597,2.802,2.7868,2.8871,2.9761,2.9913,3.0282,3.0598,3.0612,3.051,3.0364,3.0351,3.0292,3.0176,3.0234,3.022,2.9929,2.8941,2.8709,2.8694,2.6069,2.6069,2.6105,2.6069,0.0,2.6081,2.6117,2.6081,2.554,2.5476,2.5734,2.5441,2.5488,2.5734,2.5453,2.5312,2.5312,2.5312,2.5312,2.5324,2.5576,2.5841,2.6117,2.6671,2.6923,2.6898,2.7174,2.7294,2.7294,2.7294,2.7426,2.769,2.769,2.7402,2.6935,2.744,2.7523,2.7121,2.707,2.6437,2.5244,2.5098,2.4501,2.34,2.4061,0.0,0.0,0.0,0.0,0.0,0.0,0.0,0.0,2.0887,0.0,2.1661,2.0405,1.9704,1.9928,2.0325,2.1058,2.2241,2.1232,2.0793,2.1546,2.189,2.1789,2.1229,2.2889,2.4406,2.5442,2.6498,2.7297,2.7631,2.7926,2.7985,2.7738,2.7911,2.826,2.8586,2.8561,2.8599,2.8913,2.8938,2.8938,2.8938,2.8938,2.9026,2.9227,2.8825,2.8662,2.895,2.8929,2.8623,2.8434,2.905,2.9434,2.9599,3.0079,3.0477,3.0571,3.0558,3.0612,3.0612,3.0612,3.0612,3.0612,3.0612,3.0612,3.0612,3.0612,3.0438,2.9755,2.9653,2.9639,2.6885,2.6885,2.6885,2.6885,2.6885,2.6885,2.6885,2.6837,2.5973,0.0,0.0,2.56,2.5565,2.5588,2.5504,2.5444,2.5444,2.5348,2.5312,2.5312,2.5504,2.5829,2.6238,2.6334,2.6585,2.7018,2.703,2.703,2.7042,2.7126,2.7222,2.733,2.757,2.7729,2.7726,2.8132,2.7505,2.5846,2.6508,2.6295,2.5022,2.4471,2.3669,2.2492,2.2884,2.263,2.1669,2.2889,2.2644,2.0605,2.1036,2.1193,2.09,2.112,2.1998,2.3615,2.3815,2.3847,2.3881,2.4041,2.4244,2.444,2.3918,2.3471,2.3105,2.251,2.2183,2.235,2.3766,2.4788,2.5177,2.6744,2.789,2.804,2.825,2.8411,2.8411,2.8398,2.88,2.9553,2.934,2.9201,2.9666,2.9729,2.9779,2.9779,2.9691,2.9779,2.9679,2.9051,2.8574,2.8636,2.9098,2.9405,2.9601,3.046,3.1424,3.1283,3.1482,3.164,3.1422,3.0988,3.0656,3.0612,3.0612,3.0612,3.0612,3.0612,3.0612,3.0612,3.0612,3.0612,3.0612,3.0598,3.0539,2.6898,2.6885,2.6885,2.6885,2.6885,2.6885,2.6885,2.6885,2.6741,2.6669,2.6707,2.6669,2.6669,2.6645,2.6202,2.5985,2.5949,2.5516,2.5312,2.536,2.6237,2.6705,2.6839,2.7246,2.7536,2.7609,2.757,2.7582,2.7618,2.8053,2.851,2.8787,2.8098,2.7741,2.7723,2.7848,2.7186,2.5829,2.5808,2.5237,2.4117,2.3442,2.2565,2.1551,2.2526,2.3047,2.2836,2.3059,2.3026,2.2643,2.2443,2.23,2.2197,2.1935,2.1906,2.2185,2.2205,2.2353,2.2762,2.3432,2.4375,2.5371,2.4098,2.3163,2.3125,2.2984,2.2916,2.3002,2.4006,2.4914,2.5879,2.7076,2.8213,2.9003,2.9362,2.9541,2.949,2.949,2.9553,2.9754,2.9729,2.9654,2.9754,2.9779,2.9779,2.9779,2.9779,2.9779,2.9831,2.9679,2.9566,2.9593,2.9776,2.997,3.0275,3.0835,3.1597,3.1509,3.2051,3.2176,3.1758,3.1163,3.0772,3.0627,3.067,3.0641,3.0627,3.0612,3.0612,3.0612,3.0612,3.0612,3.0612,3.0612,3.0612,2.7789,2.775,2.7801,2.775,2.775,2.775,2.775,2.775,2.775,2.7426,2.691,2.6885,2.6885,2.6873,2.6633,2.6562,2.6538,2.6273,2.619,2.6189,2.6657,2.6885,2.691,2.7138,2.7258,2.7258,2.7246,2.7258,2.7282,2.751,2.775,2.8017,2.8077,2.8148,2.8181,2.8218,2.7642,2.6497,2.5707,2.4827,2.3887,2.3543,2.3146,2.2627,2.3213,2.3369,2.3101,2.3101,2.3208,2.3477,2.3076,2.2916,2.3184,2.2803,2.2559,2.2568,2.2568,2.2604,2.2842,2.3448,2.3937,2.4284,2.3903,2.4152,2.5334,2.4474,2.3864,2.3897,2.5115,2.6163,2.6689,2.7678,2.8581,2.9157,2.9443,2.965,2.9753,2.9779,2.9779,2.9779,2.9779,2.9779,2.9779,2.9779,2.9779,2.9779,2.9792,2.9934,3.0317,3.0037,2.9972,3.0317,3.0587,3.107,3.1653,3.2506,3.3011,3.3083,3.3042,3.2948,3.2571,3.208,3.1526,3.1163,3.109,3.093,3.0728,3.0612,3.0612,3.0612,3.0612,3.0612,3.0612,3.0612,3.0612,2.851,2.851,2.851,2.851,2.851,2.851,2.851,2.851,2.8498,2.8002,2.7318,2.7258,2.7246,2.7234,2.7138,2.7066,2.7054,2.6946,2.6885,2.6898,2.7018,2.7066,2.7066,2.7066,2.7126,2.7234,2.7246,2.7318,2.7426,2.7546,2.7606,2.7714,2.8703,2.9089,2.8772,2.868,2.811,2.7097,2.5778,2.4816,2.4286,2.4061,2.3935,2.3935,2.3926,2.3779,2.3413,2.3383,2.3539,2.3877,2.3516,2.3437,2.374,2.3335,2.314,2.3227,2.3237,2.3296,2.3393,2.374,2.3779,2.3422,2.3744,2.5052,2.7202,2.6335,2.5379,2.5369,2.657,2.7541,2.7747,2.8433,2.9053,2.9303,2.9376,2.9521,2.974,2.9779,2.9779,2.9779,2.9779,2.9779,2.9779,2.9779,2.9779,2.9792,2.9934,3.0317,3.072,3.0558,3.0797,3.1206,3.1576,3.1988,3.3087,3.3817,3.424,3.438,3.4008,3.3663,3.3416,3.2991,3.2513,3.1932,3.1743,3.1598,3.1148,3.1061,3.1105,3.1163,3.1177,3.109,3.1164,3.1134,3.0917,2.8522,2.851,2.8558,2.851,2.8558,2.8546,2.8558,2.8546,2.8522,2.8474,2.8378,2.8354,2.8354,2.8306,2.7861,2.7618,2.7582,2.7114,2.6934,2.7006,2.739,2.7618,2.7705,2.763,2.7858,2.8306,2.8366,2.8582,2.9003,2.946,2.9761,2.9917,3.0855,3.0604,2.9435,2.8913,2.8204,2.7186,2.5809,2.5249,2.5542,2.4804,2.4365,2.4355,2.4365,2.4346,2.4248,2.4307,2.4316,2.4316,2.3965,2.374,2.376,2.3344,2.3276,2.3691,2.373,2.3887,2.4248,2.4336,2.4336,2.4287,2.415,2.5336,2.8204,2.8466,2.8053,2.7546,2.8032,2.8618,2.8901,2.9295,2.9642,2.9952,2.97,2.9509,2.9753,2.9779,2.9779,2.9779,2.9779,2.9779,2.9779,2.9779,2.9818,2.9934,3.0343,3.0833,3.1193,3.1796,3.2439,3.2755,3.2875,3.2854,3.3297,3.3894,3.4332,3.4399,3.437,3.408,3.3721,3.3503,3.3213,3.26,3.2466,3.2454,3.228,3.2338,3.2251,3.2063,3.2106,3.2266,3.2292,3.2222,3.1845,2.9448,2.9448,2.9448,2.9436,2.9436,2.9436,2.9436,2.9436,2.9448,2.9448,2.9436,2.9448,2.9112,2.8498,2.823,2.8186,2.8162,2.7918,2.8041,2.8294,2.8246,2.8522,2.9051,2.8787,2.8931,2.9412,2.9436,2.9556,2.9761,2.9989,3.0242,3.0555,3.1043,3.0502,2.907,2.8813,2.8215,2.7226,2.6635,2.6723,2.7232,2.5744,2.4795,2.4805,2.4805,2.4668,2.4443,2.4424,2.4531,2.4736,2.4394,2.4277,2.4531,2.4131,2.3965,2.415,2.416,2.4355,2.4766,2.4805,2.4912,2.5118,2.505,2.6067,2.8454,2.9771,3.0332,3.0024,2.9683,2.9586,2.9694,2.9839,3.001,3.0274,3.0253,3.0136,2.9803,3.008,3.0181,2.9867,2.9779,2.9792,2.9779,2.9779,2.9998,3.0305,3.0758,3.118,3.206,3.264,3.3129,3.3722,3.3825,3.3825,3.3894,3.4147,3.438,3.438,3.438,3.424,3.4109,3.4022,3.3819,3.3195,3.3354,3.3162,3.2524,3.251,3.2481,3.26,3.2542,3.2481,3.2481,3.2481,3.2208,3.0086,3.0086,3.0086,3.0086,3.0086,3.0086,3.0086,3.0086,3.0086,3.0086,3.0086,3.0086,2.9665,2.9015,2.8943,2.8943,2.8955,2.8943,2.9148,2.9448,2.9112,2.9364,3.0001,2.9713,2.9785,3.023,3.029,3.0362,3.0537,3.0561,3.0766,3.1091,3.1139,3.0449,2.9247,2.9085,2.8699,2.7947,2.7852,2.8183,2.8553,2.6934,2.5829,2.5672,2.57,2.5409,2.4805,2.4775,2.4922,2.5215,2.4834,2.4736,2.5019,2.4658,2.4463,2.46,2.4717,2.4912,2.5234,2.5254,2.5391,2.5693,2.6149,2.74,2.928,3.0869,3.1617,3.1577,3.0951,3.0555,3.0518,3.0386,3.0387,3.0609,3.0763,3.0626,3.0328,3.0608,3.0683,3.0294,3.0181,2.9942,2.9829,2.9818,3.0037,3.067,3.1106,3.1659,3.2897,3.3241,3.3632,3.4278,3.438,3.438,3.438,3.438,3.438,3.438,3.438,3.438,3.438,3.4399,3.4385,3.3819,3.4211,3.4225,3.3601,3.3238,3.3282,3.3296,3.3311,3.3325,3.3558,3.3369,3.3354,3.0086,3.011,3.0098,3.0158,3.011,3.0146,3.0122,3.0206,3.0146,3.0122,3.017,3.0158,3.0074,3.0025,3.0013,3.0001,2.9989,2.9941,2.9965,3.0037,2.9977,3.0025,3.0086,3.0062,3.0338,3.0807,3.0886,3.1115,3.1548,3.1585,3.1645,3.1657,3.1621,3.1146,3.0181,3.0057,2.986,2.9409,2.9299,2.9379,2.9321,2.8391,2.7541,2.7026,2.7053,2.6461,2.5722,2.5615,2.5625,2.5645,2.5273,2.5106,2.5086,2.4687,2.4658,2.5019,2.542,2.5606,2.5615,2.5712,2.5693,2.5917,2.7342,2.9326,3.1015,3.1516,3.1705,3.1705,3.1585,3.1524,3.1476,3.1158,3.0984,3.1132,3.0971,3.1022,3.1267,3.1311,3.1361,3.1248,3.0884,3.0444,2.993,2.9779,3.0369,3.1039,3.1666,3.2472,3.3339,3.3974,3.4317,3.4404,3.4457,3.438,3.438,3.438,3.438,3.438,3.438,3.438,3.438,3.4399,3.437,3.4356,3.4385,3.4414,3.4443,3.4617,3.4898,3.4985,3.4971,3.5,3.4762,3.5131,3.5072,3.1139,3.1139,3.1139,3.1096,3.1139,3.1127,3.1127,3.1139,3.1096,3.1139,3.1151,3.1139,3.1139,3.1139,3.1139,3.0723,3.0134,3.0086,3.0266,3.0506,3.0254,3.0446,3.1079,3.0759,3.0867,3.1368,3.1416,3.1512,3.1681,3.1705,3.1705,3.1705,3.1705,3.1193,3.0408,3.056,3.0593,3.0415,2.9861,2.9766,3.0263,2.9164,2.8057,2.72,2.6552,2.6052,2.5732,2.5684,2.5684,2.5684,2.5576,2.5498,2.5478,2.5352,2.5274,2.5488,2.5606,2.5684,2.5781,2.6322,2.638,2.5917,2.7531,2.9555,3.1205,3.1705,3.1705,3.1717,3.1849,3.1893,3.1869,3.1712,3.1659,3.1709,3.1878,3.1962,3.2022,3.1955,3.2051,3.2227,3.1712,3.1022,3.0994,3.1313,3.1967,3.2711,3.3526,3.427,3.4889,3.5146,3.5024,3.4951,3.469,3.438,3.438,3.438,3.438,3.438,3.438,3.438,3.438,3.4501,3.4501,3.4457,3.4424,3.4748,3.4878,3.5067,3.5537,3.5938,3.5981,3.5981,3.5952,3.5981,3.5981,3.1705,3.1705,3.1705,3.1705,3.1705,3.1705,3.1705,3.1705,3.1705,3.1705,3.1705,3.1705,3.1705,3.1705,3.1705,3.1356,3.0694,3.0603,3.0826,3.1115,3.0771,3.1019,3.1548,3.1332,3.1368,3.1657,3.1705,3.1705,3.1705,3.1705,3.1705,3.1705,3.1874,3.16,3.1118,3.1471,3.1739,3.1542,3.0721,3.0523,3.0764,2.933,2.8271,2.7636,2.6696,2.6004,2.5732,2.5684,2.5684,2.5684,2.5684,2.5684,2.5684,2.5684,2.5878,2.6139,2.6187,2.6332,2.6706,2.7295,2.7379,2.6791,2.7908,2.9555,3.1427,3.1837,3.1893,3.1893,3.1981,3.2113,3.2169,3.2157,3.2201,3.2213,3.2463,3.2636,3.2431,3.2473,3.2561,3.2608,3.2422,3.2075,3.1979,3.2633,3.3376,3.4197,3.4836,3.5478,3.605,3.5981,3.5697,3.5639,3.514,3.4849,3.4719,3.4646,3.4472,3.4428,3.438,3.438,3.4472,3.4574,3.4632,3.454,3.4757,3.5125,3.5386,3.5581,3.5938,3.6475,3.6635,3.6635,3.6635,3.6635,3.6635,3.1705,3.1705,3.1705,3.1705,3.1705,3.1705,3.1705,3.1705,3.1705,3.1705,3.1705,3.1705,3.1705,3.1705,3.1705,3.1669,3.1573,3.1536,3.156,3.1621,3.1609,3.1609,3.1705,3.1657,3.1633,3.1705,3.1705,3.1705,3.1705,3.1705,3.1705,3.1801,3.219,3.2337,3.2421,3.2785,3.3143,3.2875,3.2077,3.1433,3.0844,2.9057,2.819,2.8373,2.7521,2.66,2.582,2.5771,2.582,2.5684,2.5684,2.5684,2.582,2.582,2.6197,2.7057,2.7189,2.7699,2.8448,2.8588,2.868,2.8541,2.8773,2.9795,3.1427,3.2081,3.2257,3.2125,3.2213,3.2388,3.2431,3.255,3.2593,3.2475,3.2593,3.2636,3.2605,3.281,3.2867,3.2592,3.288,3.322,3.3054,3.3642,3.4519,3.5087,3.546,3.5821,3.6433,3.6431,3.6301,3.6257,3.5923,3.5561,3.5227,3.4893,3.4646,3.4457,3.4428,3.4395,3.453,3.4632,3.4791,3.4849,3.5575,3.5952,3.6562,3.6693,3.6664,3.7041,3.7143,3.7288,3.7288,3.7288,3.7302,3.1705,3.1705,3.1705,3.1705,3.1705,3.1705,3.1705,3.1705,3.1705,3.1705,3.1705,3.1705,3.1705,3.1705,3.1705,3.1705,3.1705,3.1705,3.1705,3.1705,3.1705,3.1705,3.1705,3.1705,3.1705,3.1705,3.1705,3.1705,3.1705,3.1705,3.1705,3.1813,3.2238,3.2491,3.2551,3.302,3.3284,3.3191,3.2312,3.123,3.0011,2.8679,2.7917,2.7584,2.6696,2.6284,2.6696,2.6733,2.637,2.5732,2.5684,2.6004,2.6552,2.6733,2.7189,2.8075,2.8251,2.8297,2.8727,2.9338,2.9612,2.9624,3.0181,3.1059,3.1837,3.2257,3.24,3.2313,3.2475,3.2593,3.2636,3.281,3.2853,3.2636,3.281,3.2939,3.2865,3.2995,3.3006,3.2995,3.3582,3.3977,3.4174,3.4979,3.5966,3.63,3.6783,3.7284,3.7432,3.707,3.7085,3.7404,3.6867,3.6301,3.5952,3.5561,3.5183,3.4849,3.4661,3.4409,3.453,3.4907,3.5038,3.5503,3.6228,3.6809,3.7418,3.7622,3.7476,3.7593,3.7767,3.7854,3.7912,3.7868,3.7781,3.1705,3.1705,3.1705,3.1705,3.1705,3.1705,3.1705,3.1705,3.1705,3.1705,3.1705,3.1705,3.1705,3.1705,3.1705,3.1705,3.1705,3.1705,3.1705,3.1705,3.1705,3.1705,3.1705,3.1705,3.1705,3.1705,3.1705,3.1705,3.1705,3.1717,3.1801,3.2066,3.2527,3.2803,3.2839,3.3284,3.3501,3.318,3.2312,3.1131,2.9814,2.8619,2.7817,2.7383,2.6701,2.66,2.7189,2.7558,2.7105,2.6052,2.6004,2.6744,2.7605,2.7793,2.8204,2.8993,2.928,2.9418,2.9795,3.0453,3.0689,3.0656,3.125,3.1805,3.2069,3.2388,3.2661,3.2562,3.2723,3.2853,3.2896,3.2995,3.3025,3.2896,3.2982,3.3124,3.3124,3.3124,3.3124,3.3288,3.4095,3.469,3.5169,3.6294,3.7285,3.7491,3.7848,3.8202,3.8115,3.7752,3.7926,3.7999,3.7694,3.7172,3.6722,3.6257,3.5813,3.5343,3.4951,3.4632,3.4472,3.5212,3.5619,3.6373,3.7114,3.7244,3.7767,3.7825,3.7781,3.8057,3.8202,3.8144,3.8072,3.8115,3.8057,3.1705,3.1705,3.1705,3.1705,3.1705,3.1705,3.1705,3.1705,3.1705,3.1705,3.1705,3.1705,3.1705,3.1705,3.1705,3.1705,3.1705,3.1705,3.1705,3.1705,3.1705,3.1705,3.1705,3.1705,3.1705,3.1705,3.1705,3.1705,3.1705,3.1717,3.197,3.2322,3.2791,3.32,3.3176,3.3705,3.3681,3.3192,3.2453,3.1479,3.0284,2.8966,2.8168,2.8008,2.7448,2.7189,2.751,2.8121,2.7767,2.6332,2.6877,2.7746,2.8588,2.8773,2.9223,3.0158,3.0306,3.0678,3.1383,3.1472,3.1528,3.1528,3.1572,3.1793,3.2101,3.2636,3.2896,3.2711,3.2896,3.3068,3.3068,3.3081,3.3081,3.3124,3.3081,3.3124,3.3124,3.321,3.3398,3.3598,3.4581,3.5655,3.5749,3.7116,3.7886,3.8089,3.8127,3.8202,3.8188,3.8072,3.8159,3.813,3.8028,3.7825,3.7302,3.6823,3.6388,3.6156,3.5633,3.5125,3.482,3.5488,3.6199,3.6997,3.7636,3.7781,3.7897,3.7955,3.8028,3.8144,3.8202,3.8202,3.8202,3.8202,3.824,3.1705,3.1705,3.1705,3.1705,3.1705,3.1705,3.1705,3.1705,3.1705,3.1705,3.1705,3.1705,3.1705,3.1705,3.1705,3.1705,3.1705,3.1705,3.1705,3.1705,3.1705,3.1705,3.1705,3.1705,3.1705,3.1705,3.1705,3.1705,3.1705,3.1705,3.1813,3.1946,3.2478,3.2743,3.2791,3.3272,3.3416,3.3368,3.3481,3.2698,3.136,3.0277,2.9494,2.8993,2.7867,2.7673,2.8215,2.8541,2.8541,2.8038,2.8132,2.8762,2.9658,2.9795,3.0204,3.1003,3.1294,3.1383,3.1617,3.1705,3.1705,3.1705,3.1705,3.1805,3.2025,3.268,3.2896,3.281,3.2952,3.3124,3.3124,3.3124,3.3124,3.3124,3.3124,3.3124,3.324,3.3839,3.4345,3.4511,3.5682,3.632,3.6713,3.74,3.8202,3.8202,3.8202,3.8202,3.8202,3.8202,3.8202,3.8202,3.8144,3.8101,3.7868,3.7389,3.7041,3.6925,3.6446,3.5807,3.5633,3.5851,3.6519,3.7201,3.7767,3.8028,3.8086,3.8144,3.8202,3.8202,3.8202,3.8202,3.8202,3.8202,3.8329,3.1705,3.1705,3.1705,3.1705,3.1705,3.1705,3.1705,3.1705,3.1705,3.1705,3.1705,3.1705,3.1705,3.1705,3.1705,3.1705,3.1705,3.1705,3.1705,3.1705,3.1705,3.1705,3.1705,3.1705,3.1705,3.1705,3.1705,3.1705,3.1705,3.1705,3.1837,3.207,3.2334,3.2599,3.2899,3.3104,3.3404,3.3609,3.385,3.3327,3.2089,3.1321,3.0315,2.954,2.8389,2.8308,2.9189,2.9326,2.9326,2.9326,2.9372,2.9784,3.0678,3.0824,3.1092,3.1717,3.1705,3.1705,3.1705,3.1705,3.1705,3.1705,3.1705,3.1893,3.2169,3.2605,3.2736,3.2896,3.3038,3.3081,3.3124,3.3124,3.3124,3.3124,3.3124,3.3124,3.3124,3.4079,3.4951,3.5548,3.6281,3.6897,3.6936,3.7682,3.8075,3.8202,3.8202,3.8202,3.8202,3.8202,3.8202,3.8202,3.8202,3.8159,3.8144,3.7781,3.7593,3.7491,3.7143,3.6519,3.6446,3.6446,3.6925,3.752,3.7941,3.8202,3.8202,3.8202,3.8202,3.8202,3.8202,3.824,3.8277,3.8315,3.8441,3.1705,3.1705,3.1705,3.1705,3.1705,3.1705,3.1705,3.1705,3.1705,3.1705,3.1705,3.1705,3.1705,3.1705,3.1705,3.1705,3.1705,3.1705,3.1705,3.1741,3.1801,3.1874,3.1886,3.1741,3.1717,3.1705,3.1705,3.1705,3.1705,3.1705,3.1958,3.2202,3.2394,3.2731,3.302,3.3284,3.3621,3.3874,3.4078,3.372,3.2704,3.1986,3.0981,2.9861,2.9212,2.9395,3.0079,3.0362,3.0362,3.0362,3.0362,3.0767,3.1572,3.1673,3.1673,3.1673,3.1705,3.1705,3.1705,3.1705,3.1705,3.1705,3.1705,3.1893,3.2213,3.2475,3.2736,3.2952,3.3068,3.3124,3.3124,3.3124,3.3124,3.3167,3.3167,3.3283,3.3484,3.4233,3.5359,3.6492,3.6936,3.7014,3.7246,3.7644,3.8202,3.8202,3.8202,3.8202,3.8202,3.8202,3.8202,3.8202,3.8202,3.8202,3.8202,3.8144,3.8086,3.7999,3.768,3.7273,3.723,3.7302,3.7578,3.7926,3.8115,3.8202,3.8202,3.8202,3.824,3.8277,3.8315,3.8404,3.8478,3.8501,3.8575,3.1705,3.1705,3.1705,3.1705,3.1705,3.1705,3.1705,3.1705,3.1705,3.1705,3.1705,3.1705,3.1705,3.1705,3.1705,3.1705,3.1705,3.1705,3.1705,3.1765,3.2154,3.2298,3.2226,3.1982,3.1753,3.1777,3.1729,3.1729,3.1753,3.1849,3.1789,3.1982,3.243,3.2575,3.2803,3.3525,3.3862,3.4054,3.4366,3.4198,3.3446,3.2368,3.1468,3.059,3.0102,3.0431,3.1149,3.1383,3.1383,3.1383,3.1327,3.1427,3.1661,3.1705,3.1705,3.1705,3.1705,3.1705,3.1705,3.1705,3.1705,3.1705,3.1717,3.1805,3.2081,3.2636,3.281,3.2896,3.2995,3.3081,3.3124,3.3124,3.3124,3.321,3.3654,3.4176,3.447,3.5033,3.6108,3.7285,3.781,3.7886,3.7886,3.7962,3.8202,3.8202,3.8202,3.8202,3.8202,3.8202,3.8202,3.8202,3.8202,3.8202,3.8202,3.8202,3.8202,3.8202,3.7984,3.7825,3.7781,3.7723,3.7839,3.7984,3.8159,3.8202,3.8202,3.8375,3.8435,3.8449,3.8523,3.8841,3.906,3.8929,3.8929,3.1705,3.1705,3.1705,3.1705,3.1705,3.1705,3.1705,3.1705,3.1705,3.1705,3.1705,3.1705,3.1705,3.1705,3.1705,3.1705,3.1705,3.1705,3.1705,3.1837,3.2214,3.2478,3.2551,3.2491,3.2464,3.244,3.2166,3.2178,3.2346,3.2394,3.2491,3.2476,3.2731,3.3056,3.32,3.3718,3.4102,3.4306,3.4342,3.4162,3.3552,3.2699,3.1889,3.1431,3.1066,3.1238,3.1617,3.1661,3.1705,3.1705,3.1705,3.1705,3.1705,3.1705,3.1705,3.1705,3.1705,3.1705,3.1705,3.1705,3.1705,3.1705,3.1705,3.1893,3.2201,3.2766,3.2982,3.2939,3.3025,3.3124,3.3124,3.3124,3.3124,3.324,3.3894,3.4703,3.544,3.5963,3.6674,3.7848,3.8165,3.8165,3.8202,3.8202,3.8202,3.8202,3.8202,3.8202,3.8202,3.8202,3.8202,3.8202,3.8202,3.8202,3.8202,3.8202,3.8202,3.8202,3.8144,3.8072,3.8043,3.7955,3.7883,3.808,3.8277,3.8202,3.824,3.8435,3.8848,3.9066,3.932,3.9591,3.9768,3.9783,3.9799,3.1705,3.1705,3.1705,3.1705,3.1705,3.1705,3.1705,3.1705,3.1705,3.1705,3.1705,3.1705,3.1705,3.1705,3.1705,3.1705,3.1741,3.1874,3.1934,3.1961,3.2611,3.2863,3.2947,3.3164,3.3392,3.3416,3.2899,3.2875,3.3092,3.3284,3.308,3.3236,3.338,3.3537,3.3874,3.4102,3.4246,3.445,3.4198,3.3718,3.3236,3.2652,3.2208,3.174,3.1608,3.1572,3.1717,3.1705,3.1705,3.1705,3.1705,3.1705,3.1705,3.1705,3.1705,3.1705,3.1705,3.1705,3.1705,3.1705,3.1705,3.1705,3.1705,3.1937,3.2344,3.2766,3.3038,3.3081,3.3124,3.3124,3.3124,3.3381,3.3368,3.3569,3.4189,3.5277,3.6269,3.6858,3.7491,3.7962,3.8202,3.8202,3.8202,3.8202,3.8202,3.8202,3.8202,3.8202,3.8202,3.8202,3.8202,3.8202,3.8202,3.8202,3.8202,3.8202,3.8202,3.8277,3.824,3.8315,3.8277,3.8204,3.8154,3.8213,3.8315,3.8375,3.8679,3.9182,3.9561,3.9824,4.0124,4.0435,4.0588,4.0672,4.0653,3.1705,3.1705,3.1705,3.1705,3.1705,3.1705,3.1705,3.1705,3.1705,3.1705,3.1705,3.1705,3.1705,3.1705,3.1705,3.1705,3.1801,3.2078,3.2286,3.2478,3.3176,3.3598,3.361,3.3766,3.4066,3.4222,3.3717,3.332,3.3356,3.3284,3.3464,3.344,3.3682,3.397,3.4126,3.4354,3.4354,3.4198,3.3934,3.3418,3.2851,3.2491,3.2202,3.1765,3.1705,3.1705,3.1705,3.1705,3.1705,3.1705,3.1705,3.1705,3.1705,3.1705,3.1705,3.1705,3.1705,3.1705,3.1705,3.1705,3.1705,3.1705,3.1705,3.1937,3.2388,3.2822,3.3081,3.3124,3.3124,3.3124,3.3111,3.3696,3.4105,3.4509,3.5386,3.6387,3.6819,3.7414,3.7886,3.8165,3.8202,3.8202,3.8202,3.8202,3.8202,3.8202,3.8202,3.8202,3.8202,3.8202,3.8202,3.8202,3.8202,3.8202,3.8202,3.8202,3.8202,3.8352,3.8389,3.8486,3.8501,3.8441,3.8478,3.8826,3.8936,3.8936,3.9376,3.9864,4.0159,4.0347,4.0777,4.1264,4.1428,4.1575,4.1393,3.1705,3.1705,3.1705,3.1705,3.1705,3.1705,3.1705,3.1705,3.1705,3.1705,3.1705,3.1705,3.1705,3.1705,3.1705,3.1705,3.1874,3.2238,3.2478,3.2731,3.3466,3.3994,3.4078,3.4246,3.451,3.4643,3.4294,3.4054,3.409,3.4114,3.403,3.415,3.4318,3.439,3.4354,3.433,3.4258,3.3922,3.3478,3.3044,3.2491,3.2262,3.1946,3.1801,3.1705,3.1705,3.1705,3.1705,3.1705,3.1705,3.1705,3.1705,3.1705,3.1705,3.1705,3.1705,3.1705,3.1705,3.1717,3.1761,3.1849,3.1837,3.1749,3.1969,3.2463,3.2865,3.3081,3.3124,3.3124,3.3283,3.3781,3.4189,3.4538,3.5142,3.6175,3.6819,3.7092,3.7734,3.8052,3.8202,3.8202,3.8202,3.8202,3.8202,3.8202,3.8202,3.8202,3.8202,3.8202,3.8202,3.8202,3.8202,3.8202,3.8202,3.824,3.8315,3.8449,3.856,3.873,3.8877,3.9118,3.9284,3.954,3.9864,3.9844,3.9768,3.9733,4.0139,4.0519,4.1028,4.1755,4.2348,4.2396,4.2412,4.219,3.1705,3.1705,3.1705,3.1705,3.1705,3.1705,3.1705,3.1705,3.1705,3.1705,3.1705,3.1705,3.1705,3.1753,3.1837,3.191,3.1889,3.2515,3.2875,3.3092,3.3754,3.4174,3.4294,3.451,3.4751,3.4727,3.4691,3.4775,3.4643,3.4691,3.4727,3.4667,3.4727,3.4691,3.4522,3.421,3.3982,3.3442,3.3008,3.2503,3.2238,3.197,3.1705,3.1705,3.1705,3.1705,3.1705,3.1705,3.1705,3.1705,3.1705,3.1705,3.1705,3.1705,3.1705,3.1705,3.1705,3.1717,3.1805,3.1893,3.1994,3.2081,3.1937,3.2189,3.2537,3.2909,3.3124,3.3124,3.3124,3.3454,3.4118,3.4538,3.5047,3.5803,3.661,3.7208,3.7414,3.7772,3.8089,3.8202,3.8202,3.8202,3.8202,3.8202,3.8202,3.8202,3.8202,3.8202,3.8202,3.8202,3.8202,3.8202,3.8202,3.8202,3.8277,3.8464,3.873,3.9045,3.9356,3.9626,3.9999,4.0401,4.0591,4.0696,4.093,4.086,4.0656,4.0724,4.1494,4.2237,4.2988,4.3265,4.3096,4.2974,4.2834,3.1705,3.1705,3.1705,3.1705,3.1705,3.1705,3.1705,3.1705,3.1705,3.1705,3.1705,3.1717,3.1717,3.1837,3.2154,3.2334,3.2671,3.3214,3.3622,3.3718,3.4342,3.4655,3.4655,3.4715,3.4726,3.4665,3.4714,3.4775,3.4775,3.4775,3.4739,3.4727,3.4655,3.4546,3.409,3.3862,3.3526,3.2851,3.2563,3.225,3.1922,3.1765,3.1717,3.1705,3.1705,3.1705,3.1705,3.1705,3.1705,3.1705,3.1705,3.1705,3.1705,3.1705,3.1705,3.1705,3.1717,3.1761,3.1906,3.2038,3.2125,3.2269,3.23,3.2463,3.2723,3.2952,3.3124,3.3124,3.3124,3.3611,3.4426,3.5033,3.5789,3.6596,3.7362,3.781,3.8,3.7848,3.8165,3.8202,3.8202,3.8202,3.8202,3.8202,3.8202,3.8202,3.8202,3.8202,3.8202,3.8202,3.8202,3.8202,3.8202,3.824,3.8329,3.8501,3.8929,3.937,3.9874,4.0278,4.0792,4.1162,4.1264,4.1396,4.1723,4.1868,4.1625,4.1933,4.271,4.3005,4.3204,4.3402,4.3539,4.3462,4.3325,3.1705,3.1705,3.1705,3.1705,3.1705,3.1705,3.1705,3.1705,3.1705,3.1705,3.1705,3.1705,3.1874,3.2082,3.213,3.237,3.2971,3.3682,3.3982,3.4222,3.4751,3.5088,3.4664,3.4262,3.4066,3.458,3.4323,3.4311,3.4519,3.4727,3.4679,3.4366,3.4318,3.4102,3.3621,3.3308,3.2947,3.2527,3.219,3.1913,3.1765,3.1705,3.1705,3.1705,3.1705,3.1705,3.1705,3.1705,3.1705,3.1705,3.1705,3.1705,3.1705,3.1705,3.1705,3.1705,3.1705,3.1761,3.1849,3.2081,3.2257,3.2431,3.2605,3.2853,3.2939,3.3025,3.3124,3.3124,3.3124,3.3725,3.4731,3.54,3.6399,3.7246,3.7924,3.8052,3.8202,3.8202,3.8202,3.8202,3.8202,3.8202,3.8202,3.8202,3.8202,3.8202,3.8202,3.8202,3.8202,3.8202,3.8202,3.8202,3.824,3.8225,3.8352,3.8553,3.898,3.9493,4.0224,4.074,4.1492,4.1852,4.2029,4.2348,4.2772,4.2803,4.2553,4.2725,4.3174,4.3174,4.3143,4.3402,4.3615,4.3615,4.3509,3.1705,3.1705,3.1705,3.1705,3.1705,3.1705,3.1705,3.1705,3.1705,3.1705,3.1753,3.1862,3.2142,3.2466,3.2466,3.2959,3.3705,3.4066,3.4306,3.4631,3.4907,3.5051,3.4724,3.4115,3.4115,3.4775,3.4274,3.4119,3.4365,3.4522,3.433,3.3994,3.4078,3.3693,3.3152,3.2791,3.2491,3.2214,3.1934,3.1753,3.1705,3.1705,3.1705,3.1705,3.1705,3.1705,3.1705,3.1705,3.1705,3.1705,3.1705,3.1705,3.1705,3.1705,3.1705,3.1705,3.1749,3.1805,3.1937,3.2113,3.24,3.2649,3.281,3.3038,3.3081,3.3124,3.3124,3.3124,3.3454,3.4246,3.5237,3.5803,3.6766,3.7529,3.8165,3.8202,3.8202,3.8202,3.8202,3.8202,3.8202,3.8202,3.8202,3.8202,3.8202,3.8202,3.8202,3.8202,3.824,3.824,3.8292,3.8329,3.8315,3.8389,3.8538,3.8775,3.9162,3.9687,4.0447,4.1178,4.1933,4.2585,4.2958,4.3325,4.3615,4.3479,4.3066,4.3295,4.3462,4.3402,4.3372,4.3479,4.3615,4.3615,4.3615,3.1705,3.1705,3.1705,3.1705,3.1705,3.1705,3.1705,3.1617,3.1661,3.1641,3.1672,3.2166,3.2373,3.2649,3.3215,3.385,3.4667,3.4703,3.4871,3.5076,3.5087,3.4992,3.4652,3.458,3.4507,3.4666,3.4193,3.4016,3.415,3.4054,3.4018,3.3982,3.373,3.3308,3.2827,3.2418,3.2166,3.1982,3.1741,3.1717,3.1705,3.1705,3.1705,3.1705,3.1705,3.1705,3.1705,3.1705,3.1705,3.1705,3.1705,3.1705,3.1705,3.1705,3.1705,3.1749,3.1849,3.195,3.2113,3.2288,3.2605,3.2909,3.3081,3.3124,3.3124,3.3111,3.3111,3.3326,3.3894,3.469,3.5602,3.636,3.7092,3.7772,3.8202,3.8202,3.8202,3.8202,3.8202,3.8202,3.8202,3.8202,3.8202,3.8202,3.8202,3.8202,3.8277,3.8329,3.8329,3.8329,3.8441,3.8478,3.8478,3.859,3.8782,3.909,3.9415,4.006,4.0823,4.1591,4.2349,4.2974,4.3492,4.3539,4.3615,4.3615,4.3615,4.3568,4.3568,4.3568,4.3598,4.3598,4.3615,4.3615,4.3615,3.1705,3.1705,3.1705,3.1705,3.1705,3.1705,3.1528,3.1261,3.1217,3.1194,3.1282,3.1746,3.2379,3.2865,3.2971,3.3756,3.4691,3.4775,3.4955,3.5111,3.5172,3.51,3.4784,3.4301,3.3913,3.4125,3.3777,3.354,3.3586,3.3585,3.332,3.3212,3.3152,3.2659,3.2247,3.2078,3.191,3.1825,3.1705,3.1705,3.1705,3.1705,3.1705,3.1705,3.1705,3.1705,3.1705,3.1705,3.1705,3.1705,3.1705,3.1705,3.1705,3.1705,3.1761,3.1849,3.1981,3.2169,3.2376,3.2506,3.2766,3.2995,3.3124,3.3167,3.3283,3.3569,3.381,3.4147,3.4662,3.5494,3.6294,3.6727,3.7169,3.7886,3.8202,3.8202,3.8202,3.8202,3.8202,3.8202,3.8202,3.8202,3.8202,3.8202,3.8202,3.8202,3.8329,3.8404,3.8404,3.8478,3.859,3.8664,3.8701,3.8922,3.9111,3.9379,3.9646,4.0443,4.1227,4.1852,4.2585,4.3127,4.3552,4.3598,4.3615,4.3615,4.3615,4.3615,4.3598,4.3598,4.3598,4.3615,4.3615,4.3615,4.3615,3.1705,3.1705,3.1705,3.1705,3.1661,3.1528,3.125,3.0949,3.0904,3.1164,3.1379,3.1937,3.2594,3.3208,3.3611,3.3982,3.4894,3.5112,3.5039,3.5111,3.522,3.5099,3.459,3.4122,3.3812,3.3708,3.3256,3.2972,3.3021,3.3056,3.2755,3.2442,3.2238,3.2042,3.1886,3.1705,3.1705,3.1705,3.1705,3.1705,3.1705,3.1705,3.1705,3.1705,3.1705,3.1705,3.1705,3.1705,3.1705,3.1705,3.1705,3.1705,3.1705,3.1749,3.1849,3.1981,3.2157,3.2376,3.2581,3.2797,3.2896,3.3068,3.3124,3.3368,3.3839,3.4288,3.4454,3.4814,3.548,3.6241,3.6975,3.7169,3.7491,3.8165,3.8202,3.8202,3.8202,3.8202,3.8202,3.8202,3.8202,3.8202,3.8202,3.8202,3.8202,3.824,3.8366,3.8441,3.8478,3.859,3.876,3.8848,3.8885,3.9162,3.9487,3.9829,4.0216,4.0857,4.1558,4.2013,4.2648,4.3235,4.3598,4.3598,4.3615,4.3615,4.3615,4.3615,4.3615,4.3615,4.3615,4.3615,4.3615,4.3615,4.3615,3.1705,3.1705,3.1661,3.1661,3.1629,3.1116,3.0904,3.0826,3.0929,3.1451,3.226,3.2818,3.335,3.4006,3.4555,3.4987,3.5303,3.5461,3.5412,3.5328,3.5076,3.4895,3.4583,3.4174,3.3744,3.3827,3.3337,3.2777,3.2515,3.2503,3.2178,3.1982,3.1874,3.1813,3.1717,3.1705,3.1705,3.1705,3.1705,3.1705,3.1705,3.1705,3.1705,3.1705,3.1705,3.1705,3.1705,3.1705,3.1705,3.1705,3.1705,3.1705,3.1705,3.1893,3.1994,3.2025,3.2419,3.2624,3.2711,3.2939,3.3068,3.3068,3.3124,3.3683,3.4869,3.5237,3.5169,3.5602,3.6346,3.6805,3.7246,3.7606,3.7962,3.8127,3.8202,3.8202,3.8202,3.8202,3.8202,3.8202,3.8202,3.8202,3.8202,3.8202,3.824,3.8277,3.8404,3.8516,3.8627,3.8811,3.9017,3.9328,3.9436,3.9814,4.015,4.0339,4.0737,4.1393,4.1917,4.2349,4.2772,4.3265,4.3522,4.3568,4.3615,4.3615,4.3615,4.3615,4.3615,4.3615,4.3615,4.3615,4.3615,4.3615,4.3615,3.1705,3.1661,3.1306,3.1395,3.1572,3.1128,3.0724,3.0512,3.0835,3.1518,3.2333,3.2628,3.3417,3.4256,3.461,3.5032,3.5471,3.5172,3.51,3.5076,3.4811,3.4546,3.4282,3.4006,3.3622,3.3152,3.2767,3.2491,3.1949,3.1997,3.1958,3.1729,3.1705,3.1717,3.1705,3.1705,3.1705,3.1705,3.1705,3.1705,3.1705,3.1705,3.1705,3.1705,3.1705,3.1705,3.1705,3.1705,3.1705,3.1705,3.1705,3.1705,3.1749,3.1893,3.2081,3.2257,3.2593,3.2797,3.2896,3.3081,3.3081,3.3124,3.3197,3.3882,3.5251,3.5829,3.6068,3.6478,3.7155,3.7567,3.7924,3.7962,3.8165,3.8165,3.8202,3.8202,3.8202,3.8202,3.8202,3.8202,3.8202,3.8202,3.8202,3.8329,3.8366,3.8538,3.8686,3.887,3.8995,3.9213,3.943,3.99,4.02,4.0566,4.0857,4.106,4.1459,4.211,4.2443,4.271,4.3096,4.3432,4.3509,4.3615,4.3615,4.3615,4.3615,4.3615,4.3615,4.3615,4.3615,4.3615,4.3615,4.3615,4.3615,3.1629,3.1383,3.1038,3.0982,3.1128,3.0802,3.058,3.0583,3.1145,3.1951,3.2686,3.3056,3.3784,3.4565,3.4916,3.4681,3.5327,3.5244,3.4847,3.4787,3.4558,3.4318,3.403,3.361,3.3128,3.2551,3.2262,3.1997,3.1777,3.1729,3.1717,3.1717,3.1705,3.1705,3.1705,3.1705,3.1705,3.1705,3.1705,3.1705,3.1705,3.1705,3.1705,3.1705,3.1705,3.1705,3.1705,3.1705,3.1705,3.1705,3.1705,3.1717,3.1805,3.2025,3.2257,3.2475,3.2723,3.2884,3.3025,3.3081,3.3124,3.3124,3.3124,3.4275,3.5909,3.6869,3.7116,3.7491,3.7924,3.8089,3.8165,3.8202,3.8202,3.8202,3.8202,3.8202,3.8202,3.8202,3.8202,3.8202,3.8202,3.8202,3.824,3.8404,3.8478,3.876,3.9017,3.9235,3.9472,3.9793,4.0076,4.0547,4.094,4.1227,4.1558,4.1819,4.2269,4.2834,4.3005,4.3113,4.3281,4.3539,4.3568,4.3615,4.3615,4.3615,4.3615,4.3615,4.3615,4.3615,4.3615,4.3615,4.3615,4.3615,4.3615,3.1339,3.0949,3.0859,3.0623,3.0318,3.0455,3.0641,3.1042,3.2018,3.2746,3.3273,3.4185,3.4645,3.5013,3.5819,3.5661,3.5099,3.5352,3.5027,3.4691,3.4294,3.4042,3.3574,3.3068,3.2647,3.2334,3.209,3.1862,3.1705,3.1705,3.1705,3.1705,3.1705,3.1705,3.1705,3.1705,3.1705,3.1705,3.1705,3.1705,3.1705,3.1705,3.1705,3.1705,3.1705,3.1705,3.1705,3.1705,3.1705,3.1705,3.1705,3.1805,3.1994,3.2269,3.2475,3.2723,3.2939,3.3025,3.3111,3.3167,3.3167,3.3167,3.3124,3.5047,3.6649,3.7553,3.7848,3.7924,3.8127,3.8165,3.8202,3.8202,3.8202,3.8202,3.8202,3.8202,3.8202,3.8202,3.8202,3.8202,3.8202,3.824,3.8292,3.8441,3.8664,3.9017,3.9364,3.9975,4.0289,4.0721,4.1042,4.1343,4.1689,4.1917,4.2205,4.2506,4.2741,4.3235,4.3342,4.3449,4.3585,4.3615,4.3615,4.3615,4.3615,4.3615,4.3615,4.3615,4.3615,4.3615,4.3615,4.3615,4.3615,4.3615,4.3615,3.1026,3.0859,3.017,3.0216,3.0784,3.1494,3.1704,3.1605,3.2225,3.2955,3.3803,3.4059,3.471,3.5337,3.5301,3.533,3.5252,3.51,3.4643,3.4294,3.397,3.3502,3.308,3.2635,3.2274,3.2042,3.1801,3.1705,3.1705,3.1705,3.1705,3.1705,3.1705,3.1705,3.1705,3.1705,3.1705,3.1705,3.1705,3.1705,3.1705,3.1705,3.1705,3.1705,3.1705,3.1705,3.1705,3.1705,3.1705,3.1705,3.1849,3.195,3.1994,3.2388,3.2723,3.2939,3.3068,3.3124,3.3197,3.3654,3.381,3.3398,3.3283,3.415,3.5949,3.7477,3.8165,3.8202,3.8202,3.8202,3.8202,3.8202,3.8202,3.8202,3.8202,3.8202,3.8202,3.8202,3.8202,3.824,3.824,3.8315,3.8404,3.8575,3.887,3.922,3.9707,4.0428,4.0992,4.1393,4.19,4.2158,4.2349,4.2554,4.2912,4.3204,4.3342,4.3539,4.3568,4.3615,4.3615,4.3615,4.3615,4.3615,4.3615,4.3615,4.3615,4.3615,4.3615,4.3615,4.3615,4.3615,4.3615,4.3615,4.3615,3.0769,3.0532,2.9806,2.9908,3.0687,3.1516,3.1882,3.2099,3.2764,3.3459,3.4032,3.4453,3.5016,3.5454,3.5331,3.5174,3.5171,3.4715,3.4282,3.4078,3.361,3.3116,3.2623,3.2274,3.1985,3.1789,3.1705,3.1705,3.1705,3.1705,3.1705,3.1705,3.1705,3.1705,3.1705,3.1705,3.1705,3.1705,3.1705,3.1705,3.1705,3.1705,3.1705,3.1705,3.1705,3.1705,3.1705,3.1705,3.1705,3.1717,3.1893,3.2081,3.2213,3.2593,3.2853,3.3068,3.3081,3.3124,3.3253,3.3907,3.4092,3.4163,3.4121,3.5156,3.6267,3.7758,3.8075,3.8202,3.8202,3.8202,3.8202,3.8202,3.8202,3.8202,3.8202,3.8202,3.8202,3.8202,3.824,3.8329,3.8352,3.8464,3.8575,3.8782,3.9038,3.9364,4.001,4.0891,4.1393,4.1787,4.238,4.2881,4.3005,4.3143,4.3479,4.3615,4.3598,4.3568,4.3598,4.3615,4.3615,4.3615,4.3615,4.3615,4.3615,4.3615,4.3615,4.3615,4.3615,4.3615,4.3615,4.3615,4.3615,4.3615,4.3615,3.0589,3.0136,2.9714,2.9809,3.0242,3.0852,3.1649,3.2578,3.3418,3.3958,3.4169,3.5049,3.5376,3.536,3.5184,3.4934,3.4736,3.4294,3.3922,3.385,3.3116,3.2551,3.2262,3.1949,3.1837,3.1741,3.1705,3.1705,3.1705,3.1705,3.1705,3.1705,3.1705,3.1705,3.1705,3.1705,3.1705,3.1705,3.1705,3.1705,3.1705,3.1705,3.1705,3.1705,3.1705,3.1705,3.1705,3.1705,3.1705,3.1761,3.1937,3.2181,3.2519,3.2822,3.3025,3.3068,3.3124,3.3124,3.3411,3.4092,3.4855,3.5278,3.5749,3.6517,3.7438,3.7924,3.8165,3.8202,3.8202,3.8202,3.8202,3.8202,3.8202,3.8202,3.8202,3.8202,3.8202,3.8277,3.8389,3.8478,3.8501,3.8612,3.887,3.9075,3.9493,3.9672,4.0289,4.126,4.1803,4.219,4.271,4.3342,4.3372,4.3402,4.3509,4.3615,4.3615,4.3615,4.3615,4.3615,4.3615,4.3615,4.3615,4.3615,4.3615,4.3615,4.3615,4.3615,4.3615,4.3615,4.3615,4.3615,4.3615,4.3615,4.3615,3.008,2.9714,2.9946,3.0111,3.0321,3.1127,3.2067,3.3045,3.3243,3.3657,3.4085,3.463,3.5002,3.5023,3.4606,3.4352,3.4222,3.3898,3.3537,3.314,3.2539,3.2214,3.2006,3.1825,3.1705,3.1705,3.1705,3.1705,3.1705,3.1705,3.1705,3.1705,3.1705,3.1705,3.1705,3.1705,3.1705,3.1705,3.1705,3.1705,3.1705,3.1705,3.1705,3.1705,3.1705,3.1705,3.1705,3.1705,3.1705,3.1761,3.2125,3.2487,3.2909,3.3038,3.3081,3.3124,3.3124,3.3167,3.3611,3.4358,3.5237,3.5949,3.6582,3.7477,3.8052,3.8165,3.8202,3.8202,3.8202,3.8202,3.8202,3.8202,3.8202,3.8202,3.8202,3.8202,3.8202,3.8389,3.859,3.8612,3.8686,3.8907,3.9147,3.9493,3.9884,4.0359,4.0925,4.1591,4.2126,4.2554,4.2881,4.3402,4.3509,4.3568,4.3615,4.3615,4.3615,4.3615,4.3615,4.3615,4.3615,4.3615,4.3615,4.3615,4.3615,4.3615,4.3615,4.3615,4.3615,4.3615,4.3615,4.3615,4.3615,4.3615,4.3615,2.9943,2.9553,2.9789,3.0134,3.0625,3.1628,3.2476,3.3252,3.388,3.4116,3.3969,3.4277,3.4515,3.4567,3.3977,3.3817,3.3803,3.3466,3.3092,3.2611,3.2214,3.1961,3.1801,3.1705,3.1705,3.1705,3.1705,3.1705,3.1705,3.1705,3.1705,3.1705,3.1705,3.1705,3.1705,3.1705,3.1705,3.1705,3.1705,3.1705,3.1705,3.1705,3.1705,3.1705,3.1705,3.1705,3.1705,3.1705,3.1705,3.1849,3.2125,3.2605,3.2952,3.3081,3.3124,3.3124,3.3167,3.3283,3.3882,3.4718,3.5628,3.6188,3.7193,3.8037,3.8127,3.8202,3.8202,3.8202,3.8202,3.8202,3.8202,3.8202,3.8202,3.8202,3.824,3.824,3.8352,3.8538,3.8723,3.887,3.9111,3.9636,3.9955,4.0447,4.0789,4.0992,4.1558,4.1965,4.2459,4.2851,4.3174,4.3432,4.3539,4.3615,4.3615,4.3615,4.3615,4.3615,4.3615,4.3615,4.3615,4.3615,4.3615,4.3615,4.3615,4.3615,4.3615,4.3615,4.3615,4.3615,4.3615,4.3615,4.3615,4.3615,4.3615,2.984,2.9503,2.9635,3.0182,3.1069,3.2056,3.2835,3.3592,3.4653,3.4748,3.4065,3.3889,3.4177,3.407,3.3723,3.3702,3.3482,3.2987,3.2599,3.225,3.1958,3.1825,3.1765,3.1705,3.1705,3.1705,3.1705,3.1705,3.1705,3.1705,3.1705,3.1705,3.1705,3.1705,3.1705,3.1705,3.1705,3.1705,3.1705,3.1705,3.1705,3.1705,3.1705,3.1705,3.1705,3.1705,3.1705,3.1705,3.1705,3.1893,3.2157,3.2593,3.2952,3.3124,3.3124,3.3124,3.3411,3.3738,3.4343,3.5237,3.5682,3.6188,3.7477,3.8113,3.8202,3.8202,3.8202,3.8202,3.8202,3.8202,3.8202,3.8202,3.8202,3.8202,3.824,3.8263,3.8464,3.8723,3.898,3.9162,3.9687,4.0235,4.0771,4.1227,4.1591,4.1787,4.2078,4.2459,4.282,4.3113,4.3402,4.3509,4.3568,4.3615,4.3615,4.3615,4.3615,4.3615,4.3615,4.3615,4.3615,4.3615,4.3615,4.3615,4.3615,4.3615,4.3615,4.3615,4.3615,4.3615,4.3615,4.3615,4.3615,4.3615,4.3615,2.9582,2.9555,3.0313,3.1004,3.1601,3.2218,3.3172,3.433,3.4219,3.4306,3.4273,3.3651,3.3442,3.35,3.3359,3.3232,3.2905,3.2515,3.2166,3.1849,3.1789,3.1741,3.1705,3.1705,3.1705,3.1705,3.1705,3.1705,3.1705,3.1705,3.1705,3.1705,3.1705,3.1705,3.1705,3.1705,3.1705,3.1705,3.1705,3.1705,3.1705,3.1705,3.1705,3.1705,3.1705,3.1705,3.1705,3.1705,3.1705,3.1849,3.2157,3.2605,3.2909,3.3124,3.3167,3.3454,3.3696,3.4272,3.4937,3.5856,3.6241,3.657,3.7606,3.8165,3.8202,3.8202,3.8202,3.8202,3.8202,3.8202,3.8202,3.8202,3.8202,3.8202,3.8202,3.8352,3.8501,3.898,3.9358,3.9722,4.02,4.0771,4.1327,4.1819,4.2317,4.2554,4.2851,4.319,4.3221,4.3449,4.3615,4.3615,4.3615,4.3615,4.3615,4.3615,4.3615,4.3615,4.3615,4.3615,4.3615,4.3615,4.3615,4.3615,4.3615,4.3615,4.3615,4.3615,4.3615,4.3615,4.3615,4.3615,4.3615,4.3645,4.3704]}]]